[[{"header":{"parameterUnit":"m.s-1","parameterCategory":1,"la1":30.6,"la2":29.2853,"lo1":-89.7004,"lo2":-87.6739,"dx":0.0162,"dy":0.0183,"nx":112,"ny":82,"refTime":"2022-12-05T06:00:00:Z","depth":0,"parameterNumber":2,"parameterNumberName":"U-component_of_WINDS"},"data":[0.0,0.0,0.0,0.0,0.0,0.0,0.0,0.0,0.0,0.0,0.0,0.0,0.0,0.0,0.0,0.0,0.0,0.0,0.0,0.0,0.0,0.0,0.0,0.0,0.0,0.0,0.0,0.0,0.0,0.0,0.0,0.0,0.0,0.0,0.0,0.0,0.0,0.0,0.0,0.0,0.0,0.0,0.0,0.0,0.0,0.0,0.0,0.0,0.0,0.0,0.0,0.0,0.0,0.0,0.0,0.0,0.0,0.0,0.0,0.0,0.0,0.0,0.0,0.0,0.0,0.0,0.0,0.0,0.0,0.0,0.0,0.0,0.0,0.0,0.0,0.0,0.0,0.0,0.0,0.0,0.0,0.0,0.0,0.0,0.0,0.0,0.0,0.0,0.0,0.0,-2.36,-2.1963,-2.3708,-2.5005,-2.5005,-2.505,-2.3544,-1.9907,0.0,0.0,0.0,0.0,0.0,0.0,0.0,0.0,0.0,0.0,0.0,0.0,0.0,0.0,0.0,0.0,0.0,0.0,0.0,0.0,0.0,0.0,0.0,0.0,0.0,0.0,0.0,0.0,0.0,0.0,0.0,0.0,0.0,0.0,0.0,0.0,0.0,0.0,0.0,0.0,0.0,0.0,0.0,0.0,0.0,0.0,0.0,0.0,0.0,0.0,0.0,0.0,0.0,0.0,0.0,0.0,0.0,0.0,0.0,0.0,0.0,0.0,0.0,0.0,0.0,0.0,0.0,0.0,0.0,0.0,0.0,0.0,0.0,0.0,0.0,0.0,0.0,0.0,0.0,0.0,0.0,0.0,0.0,0.0,0.0,0.0,0.0,0.0,0.0,0.0,0.0,0.0,0.0,0.0,0.0,0.0,0.0,0.0,0.0,0.0,0.0,0.0,0.0,0.0,-2.1699,-2.415,-2.4763,-2.4991,-2.4991,-2.5017,-2.346,-1.9843,0.0,0.0,0.0,0.0,0.0,0.0,0.0,0.0,0.0,0.0,0.0,0.0,0.0,0.0,0.0,0.0,0.0,0.0,0.0,0.0,0.0,0.0,0.0,0.0,0.0,0.0,0.0,0.0,0.0,0.0,0.0,0.0,0.0,0.0,0.0,0.0,0.0,0.0,0.0,0.0,0.0,0.0,0.0,0.0,0.0,0.0,0.0,0.0,0.0,0.0,0.0,0.0,0.0,0.0,0.0,0.0,0.0,0.0,0.0,0.0,0.0,0.0,0.0,0.0,0.0,0.0,0.0,0.0,0.0,0.0,0.0,0.0,0.0,0.0,0.0,0.0,0.0,0.0,0.0,0.0,0.0,0.0,0.0,0.0,0.0,0.0,0.0,0.0,0.0,0.0,0.0,0.0,0.0,0.0,0.0,0.0,0.0,0.0,0.0,0.0,0.0,0.0,0.0,-2.1622,-2.1775,-2.4681,-2.5003,-2.5003,-2.5003,-2.5003,-2.3465,-1.983,-1.8125,0.0,0.0,0.0,0.0,0.0,0.0,0.0,0.0,0.0,0.0,0.0,0.0,0.0,0.0,0.0,0.0,0.0,0.0,0.0,0.0,0.0,0.0,0.0,0.0,0.0,0.0,0.0,0.0,0.0,0.0,0.0,0.0,0.0,0.0,0.0,0.0,0.0,0.0,0.0,0.0,0.0,0.0,0.0,0.0,0.0,0.0,0.0,0.0,0.0,0.0,0.0,0.0,0.0,0.0,0.0,0.0,0.0,0.0,0.0,0.0,0.0,0.0,0.0,0.0,0.0,0.0,0.0,0.0,0.0,0.0,0.0,0.0,0.0,0.0,0.0,0.0,0.0,0.0,0.0,0.0,0.0,0.0,0.0,0.0,0.0,0.0,0.0,0.0,0.0,0.0,0.0,0.0,0.0,0.0,0.0,0.0,0.0,0.0,0.0,0.0,0.0,0.0,-2.1387,-2.2836,-2.4795,-2.5003,-2.5003,-2.5003,-2.5003,-2.3465,-1.983,-1.7219,0.0,0.0,0.0,0.0,0.0,0.0,0.0,0.0,0.0,0.0,0.0,0.0,0.0,0.0,0.0,0.0,0.0,0.0,0.0,0.0,0.0,0.0,0.0,0.0,0.0,0.0,0.0,0.0,0.0,0.0,0.0,0.0,0.0,0.0,0.0,0.0,0.0,0.0,0.0,0.0,0.0,0.0,0.0,0.0,0.0,0.0,0.0,0.0,0.0,0.0,0.0,0.0,0.0,0.0,0.0,0.0,0.0,0.0,0.0,0.0,0.0,0.0,0.0,0.0,0.0,0.0,0.0,0.0,0.0,0.0,0.0,0.0,0.0,0.0,0.0,0.0,0.0,0.0,0.0,0.0,0.0,0.0,0.0,0.0,0.0,0.0,0.0,0.0,0.0,0.0,0.0,0.0,0.0,0.0,0.0,0.0,0.0,0.0,0.0,0.0,0.0,0.0,-2.1842,-2.4795,-2.4984,-2.5003,-2.5003,-2.5003,-2.5003,-2.3465,-1.983,-1.6699,0.0,0.0,0.0,0.0,0.0,0.0,0.0,0.0,0.0,0.0,0.0,0.0,0.0,0.0,0.0,0.0,0.0,0.0,0.0,0.0,0.0,0.0,0.0,0.0,0.0,0.0,0.0,0.0,0.0,0.0,0.0,0.0,0.0,0.0,0.0,0.0,0.0,0.0,0.0,0.0,0.0,0.0,0.0,0.0,0.0,0.0,0.0,0.0,0.0,0.0,0.0,0.0,0.0,0.0,0.0,0.0,0.0,0.0,0.0,0.0,0.0,0.0,0.0,0.0,0.0,0.0,0.0,0.0,0.0,0.0,0.0,0.0,0.0,0.0,0.0,0.0,0.0,0.0,0.0,0.0,0.0,0.0,0.0,0.0,0.0,0.0,0.0,0.0,0.0,0.0,0.0,0.0,0.0,0.0,0.0,0.0,0.0,0.0,0.0,0.0,0.0,0.0,-2.1699,-2.4752,-2.6387,-2.6565,-2.6565,-2.6565,-2.6565,-2.4594,-1.9944,0.0,0.0,0.0,0.0,0.0,0.0,0.0,0.0,0.0,0.0,0.0,0.0,0.0,0.0,0.0,0.0,0.0,0.0,0.0,0.0,0.0,0.0,0.0,0.0,0.0,0.0,0.0,0.0,0.0,0.0,0.0,0.0,0.0,0.0,0.0,0.0,0.0,0.0,0.0,0.0,0.0,0.0,0.0,0.0,0.0,0.0,0.0,0.0,0.0,0.0,0.0,0.0,0.0,0.0,0.0,0.0,0.0,0.0,0.0,0.0,0.0,0.0,0.0,0.0,0.0,0.0,0.0,0.0,0.0,0.0,0.0,0.0,0.0,0.0,0.0,0.0,0.0,0.0,0.0,0.0,0.0,0.0,0.0,0.0,0.0,0.0,0.0,0.0,0.0,0.0,0.0,0.0,0.0,0.0,0.0,0.0,0.0,0.0,0.0,0.0,0.0,0.0,-1.8869,-2.2262,-2.5439,-2.7206,-2.7426,-2.7441,-2.7441,-2.7472,-2.5277,-2.0051,0.0,0.0,0.0,0.0,0.0,0.0,0.0,0.0,0.0,0.0,0.0,0.0,0.0,0.0,0.0,0.0,0.0,0.0,0.0,0.0,0.0,0.0,0.0,0.0,0.0,0.0,0.0,0.0,0.0,0.0,0.0,0.0,0.0,0.0,0.0,0.0,0.0,0.0,0.0,0.0,0.0,0.0,0.0,0.0,0.0,0.0,0.0,0.0,0.0,0.0,0.0,0.0,0.0,0.0,0.0,0.0,0.0,0.0,0.0,0.0,0.0,0.0,0.0,0.0,0.0,0.0,0.0,0.0,0.0,0.0,0.0,0.0,0.0,0.0,0.0,0.0,0.0,0.0,0.0,0.0,0.0,0.0,0.0,0.0,0.0,0.0,0.0,0.0,0.0,0.0,0.0,0.0,0.0,0.0,0.0,0.0,0.0,0.0,0.0,0.0,0.0,0.0,-1.8817,-2.3695,-2.7235,-2.7235,-2.7301,-2.7331,-2.7331,-2.7453,-2.5303,0.0,0.0,0.0,0.0,0.0,0.0,0.0,0.0,0.0,0.0,0.0,0.0,0.0,0.0,0.0,0.0,0.0,0.0,0.0,0.0,0.0,0.0,0.0,0.0,0.0,0.0,0.0,0.0,0.0,0.0,0.0,0.0,0.0,0.0,0.0,0.0,0.0,0.0,0.0,0.0,0.0,0.0,0.0,0.0,0.0,0.0,0.0,0.0,0.0,0.0,0.0,0.0,0.0,0.0,0.0,0.0,0.0,0.0,0.0,0.0,0.0,0.0,0.0,0.0,0.0,0.0,0.0,0.0,0.0,0.0,0.0,0.0,0.0,0.0,0.0,0.0,0.0,0.0,0.0,0.0,0.0,0.0,0.0,0.0,0.0,0.0,0.0,0.0,0.0,0.0,0.0,0.0,0.0,0.0,0.0,0.0,0.0,0.0,0.0,0.0,0.0,0.0,0.0,-1.9558,-2.4978,-2.8868,-2.896,-2.8987,-2.8986,-2.8986,-2.9041,-2.639,-2.0119,0.0,0.0,0.0,0.0,0.0,0.0,0.0,0.0,0.0,0.0,0.0,0.0,0.0,0.0,0.0,0.0,0.0,0.0,0.0,0.0,0.0,0.0,0.0,0.0,0.0,0.0,0.0,0.0,0.0,0.0,0.0,0.0,0.0,0.0,0.0,0.0,0.0,0.0,0.0,0.0,0.0,0.0,0.0,0.0,0.0,0.0,0.0,0.0,0.0,0.0,0.0,0.0,0.0,0.0,0.0,0.0,0.0,0.0,0.0,0.0,0.0,0.0,0.0,0.0,0.0,0.0,0.0,0.0,0.0,0.0,0.0,0.0,0.0,0.0,0.0,0.0,0.0,0.0,0.0,0.0,0.0,0.0,0.0,0.0,0.0,0.0,0.0,0.0,0.0,0.0,0.0,0.0,0.0,0.0,0.0,0.0,0.0,0.0,0.0,0.0,0.0,0.0,-2.0281,-2.5685,-2.9612,-3.0026,-3.0084,-3.0095,-3.0095,-3.0442,-2.8098,-2.2076,0.0,0.0,0.0,0.0,0.0,0.0,0.0,0.0,0.0,0.0,0.0,0.0,0.0,0.0,0.0,0.0,0.0,0.0,0.0,0.0,0.0,0.0,0.0,0.0,0.0,0.0,0.0,0.0,0.0,0.0,0.0,0.0,0.0,0.0,0.0,0.0,0.0,0.0,0.0,0.0,0.0,0.0,0.0,0.0,0.0,0.0,0.0,0.0,0.0,0.0,0.0,0.0,0.0,0.0,0.0,0.0,0.0,0.0,0.0,0.0,0.0,0.0,0.0,0.0,0.0,0.0,0.0,0.0,0.0,0.0,0.0,0.0,0.0,0.0,0.0,0.0,0.0,0.0,0.0,0.0,0.0,0.0,0.0,0.0,0.0,0.0,0.0,0.0,0.0,0.0,0.0,0.0,0.0,0.0,0.0,0.0,0.0,0.0,0.0,0.0,0.0,0.0,-2.1016,-2.6029,-2.9824,-3.0623,-3.0764,-3.0798,-3.0798,-3.1572,-3.002,-2.5209,0.0,0.0,0.0,0.0,0.0,0.0,0.0,0.0,0.0,0.0,0.0,0.0,0.0,0.0,0.0,0.0,0.0,0.0,0.0,0.0,0.0,0.0,0.0,0.0,0.0,0.0,0.0,0.0,0.0,0.0,0.0,0.0,0.0,0.0,0.0,0.0,0.0,0.0,0.0,0.0,0.0,0.0,0.0,0.0,0.0,0.0,0.0,0.0,0.0,0.0,0.0,0.0,0.0,0.0,0.0,0.0,0.0,0.0,0.0,0.0,-1.8677,0.0,0.0,0.0,0.0,0.0,0.0,0.0,0.0,0.0,0.0,0.0,0.0,0.0,0.0,0.0,0.0,0.0,0.0,0.0,0.0,0.0,0.0,0.0,0.0,0.0,0.0,0.0,0.0,0.0,0.0,0.0,0.0,0.0,0.0,0.0,0.0,0.0,0.0,0.0,0.0,0.0,-2.1937,-2.6869,-3.0641,-3.1459,-3.1556,-3.1567,-3.1567,-3.1756,-3.0315,-2.6656,-2.7623,0.0,0.0,0.0,0.0,0.0,0.0,0.0,0.0,0.0,0.0,0.0,0.0,0.0,0.0,0.0,0.0,0.0,0.0,0.0,0.0,0.0,0.0,0.0,0.0,0.0,0.0,0.0,0.0,0.0,0.0,0.0,0.0,0.0,0.0,0.0,0.0,0.0,0.0,0.0,0.0,0.0,0.0,0.0,0.0,0.0,0.0,0.0,0.0,0.0,0.0,0.0,0.0,0.0,0.0,0.0,0.0,0.0,0.0,0.0,0.0,-2.08,0.0,0.0,0.0,0.0,0.0,0.0,0.0,0.0,0.0,0.0,0.0,0.0,0.0,0.0,0.0,0.0,0.0,0.0,0.0,0.0,0.0,0.0,0.0,0.0,0.0,0.0,0.0,0.0,0.0,0.0,0.0,0.0,0.0,0.0,0.0,0.0,0.0,0.0,0.0,0.0,-2.2734,-2.7382,-3.105,-3.2258,-3.2388,-3.2388,-3.2388,-3.2741,-3.1905,-2.9415,-2.9024,0.0,0.0,0.0,0.0,0.0,0.0,0.0,0.0,0.0,0.0,0.0,0.0,0.0,0.0,0.0,0.0,0.0,0.0,0.0,0.0,0.0,0.0,0.0,0.0,0.0,0.0,0.0,0.0,0.0,0.0,0.0,0.0,0.0,0.0,0.0,0.0,0.0,0.0,0.0,0.0,0.0,0.0,0.0,0.0,0.0,0.0,0.0,0.0,0.0,0.0,0.0,0.0,0.0,-2.6019,-2.6687,-2.7387,-2.7381,-2.8923,-3.1374,-2.7676,-2.7757,-2.9936,0.0,0.0,0.0,0.0,0.0,0.0,0.0,0.0,0.0,0.0,0.0,0.0,0.0,0.0,0.0,0.0,0.0,0.0,0.0,0.0,0.0,0.0,0.0,0.0,0.0,-2.2895,-2.4006,0.0,0.0,0.0,0.0,0.0,0.0,0.0,0.0,0.0,0.0,0.0,0.0,-2.4073,-2.8129,-3.144,-3.3039,-3.3224,-3.3224,-3.3224,-3.3677,-3.3417,-3.2091,-2.9311,-2.8816,0.0,0.0,0.0,0.0,0.0,0.0,0.0,0.0,0.0,0.0,0.0,0.0,0.0,0.0,0.0,0.0,0.0,0.0,0.0,0.0,0.0,0.0,0.0,0.0,0.0,0.0,0.0,0.0,0.0,0.0,0.0,0.0,-2.3805,-2.4812,0.0,0.0,0.0,0.0,0.0,0.0,0.0,0.0,0.0,0.0,0.0,0.0,0.0,-2.4078,-2.5172,-2.8244,-2.9815,-2.9889,-3.2868,-3.4346,-3.4462,-3.4459,-3.4707,-3.5057,-3.3724,0.0,-2.9518,-2.7621,0.0,0.0,0.0,0.0,0.0,0.0,0.0,0.0,0.0,0.0,0.0,0.0,0.0,0.0,0.0,0.0,0.0,0.0,0.0,0.0,0.0,0.0,-2.9088,-2.8781,-2.8981,-2.9174,0.0,-2.2684,-1.7744,-1.9438,0.0,0.0,0.0,0.0,0.0,0.0,0.0,0.0,-2.7119,-2.999,-3.2258,-3.3863,-3.403,-3.403,-3.403,-3.3491,-3.3076,-3.2871,-3.2409,-3.102,-2.8481,-2.6626,0.0,0.0,0.0,0.0,0.0,0.0,0.0,0.0,0.0,0.0,0.0,0.0,0.0,0.0,0.0,0.0,0.0,0.0,0.0,0.0,0.0,0.0,0.0,0.0,0.0,0.0,0.0,0.0,0.0,-2.2088,-2.3854,-2.4804,-2.2743,-2.0485,0.0,0.0,0.0,0.0,0.0,0.0,0.0,0.0,0.0,-2.7892,-2.8009,-2.9095,-3.1406,-3.2926,-3.3655,-3.3637,-3.5144,-3.5861,-3.5866,-3.5866,-3.5841,-3.5775,-3.541,-3.3868,-3.1467,-2.915,-2.5627,-2.1465,0.0,0.0,0.0,0.0,-1.7847,-1.8491,-2.1772,-2.37,0.0,0.0,0.0,0.0,0.0,0.0,0.0,0.0,0.0,0.0,0.0,0.0,0.0,-2.9717,-3.0121,-3.0196,-3.0361,-2.7491,-2.4538,0.0,-2.3084,-2.04,-1.2195,0.0,0.0,0.0,0.0,-2.4356,-2.7839,-3.0743,-3.2927,-3.4067,-3.4197,-3.4197,-3.4197,-3.3466,-3.3001,-3.3001,-3.2895,-3.2158,-3.0612,-2.8324,-2.4584,0.0,0.0,0.0,0.0,0.0,0.0,0.0,0.0,0.0,0.0,0.0,0.0,0.0,0.0,0.0,0.0,0.0,0.0,0.0,0.0,0.0,0.0,0.0,0.0,0.0,0.0,0.0,0.0,-2.4221,-2.5092,-2.5657,-2.4765,-2.2757,0.0,0.0,0.0,0.0,0.0,0.0,-2.5999,-2.6859,-2.881,-3.203,-3.2128,-3.3331,-3.5879,-3.5898,-3.5896,-3.5895,-3.5895,-3.5901,-3.5909,-3.5909,-3.5867,-3.5817,-3.5587,-3.4667,-3.3124,-3.0558,-2.7961,-2.5367,-2.2818,-2.068,-1.9215,-2.0889,-2.1824,-2.2778,-2.6259,-2.7608,-2.7579,-2.625,0.0,-2.8481,-2.4115,0.0,0.0,0.0,0.0,-2.5421,-2.5361,-2.6234,-2.7633,-2.9618,-3.0099,-3.0162,-3.0355,-3.0009,-2.8902,0.0,-2.8255,-2.7712,-1.925,0.0,0.0,0.0,0.0,-2.5395,-2.8754,-3.1243,-3.3083,-3.4086,-3.4197,-3.4197,-3.4197,-3.328,-3.2704,-3.2704,-3.2544,-3.2428,-3.2296,-3.0202,-2.7973,-2.5654,0.0,0.0,0.0,0.0,0.0,0.0,0.0,0.0,0.0,0.0,0.0,0.0,0.0,0.0,0.0,0.0,0.0,0.0,0.0,0.0,0.0,0.0,0.0,0.0,0.0,0.0,0.0,0.0,0.0,-2.9413,-2.9943,0.0,0.0,0.0,0.0,-2.5375,-2.6293,-2.7933,-3.0351,-3.1309,-3.3007,-3.5641,-3.5738,-3.579,-3.5898,-3.5898,-3.5896,-3.5895,-3.5895,-3.5893,-3.5892,-3.5892,-3.5892,-3.5851,-3.5015,-3.4172,-3.3379,-3.3145,-3.0131,-2.5685,-2.5509,-2.3368,-2.0708,-2.3263,-2.4742,-2.5823,-2.8398,-2.9816,-3.0485,-3.032,-2.8238,-2.5618,-2.4884,-2.3164,0.0,0.0,-2.5336,-2.668,-2.9352,-2.9756,-2.9573,-3.0142,-3.009,-2.9996,-3.033,-2.8995,-2.8211,0.0,-3.025,-2.9212,-2.5442,0.0,-2.3863,-2.4398,-2.384,-2.5369,-3.0913,-3.1756,-3.2462,-3.403,-3.4197,-3.4197,-3.4197,-3.276,-3.1868,-3.1868,-3.1857,-3.1653,-3.1203,-3.2534,-3.1306,-2.709,-2.9372,0.0,0.0,0.0,0.0,0.0,0.0,0.0,0.0,0.0,0.0,0.0,0.0,0.0,0.0,0.0,0.0,0.0,0.0,0.0,0.0,0.0,0.0,0.0,0.0,0.0,0.0,0.0,0.0,-2.9758,-3.0311,0.0,-2.6039,-2.7698,-2.8985,-2.8985,-3.1348,-3.3182,-3.4099,-3.4431,-3.5036,-3.5973,-3.6539,-3.6837,-3.6807,-3.7353,-3.763,-3.7635,-3.7635,-3.7617,-3.7576,-3.7576,-3.7572,-3.7558,-3.7247,-3.6303,-3.5019,-3.498,-3.2615,-2.898,-2.8973,-2.8223,-2.7236,-2.8171,-2.8688,-2.9038,-2.993,-3.04,-3.0622,-3.0621,-3.0133,-2.9424,-2.8734,-2.8367,-2.8207,-2.8354,-2.8635,-2.9072,-3.0024,-3.0162,-3.0087,-3.0266,-3.0267,-3.0222,-3.0209,-2.9684,-2.9381,-2.9975,-2.9372,-2.8044,-2.5692,-2.6651,-2.7061,-2.5102,-2.6612,-2.8925,-3.1459,-3.2258,-3.299,-3.4067,-3.4197,-3.4197,-3.4197,-3.3194,-3.2574,-3.2574,-3.2574,-3.2551,-3.2444,-3.3394,-3.2923,-3.0752,-3.212,-3.1468,0.0,0.0,0.0,0.0,0.0,0.0,0.0,0.0,0.0,0.0,0.0,0.0,0.0,0.0,0.0,0.0,0.0,0.0,0.0,0.0,0.0,0.0,0.0,0.0,0.0,0.0,-3.1389,-2.9754,-3.1323,-3.1191,-2.7756,-3.0527,-3.2557,-3.2557,-3.4977,-3.6441,-3.6441,-3.6716,-3.6872,-3.6872,-3.7438,-3.7731,-3.7731,-3.8318,-3.8591,-3.8591,-3.8591,-3.858,-3.8532,-3.8532,-3.8534,-3.8534,-3.8534,-3.7715,-3.6342,-3.6047,-3.4431,-3.2054,-3.1478,-3.1059,-3.0801,-3.0801,-3.0939,-3.118,-3.1444,-3.1495,-3.1447,-3.1439,-3.1792,-3.214,-3.1599,-3.1811,-3.2111,-3.1482,-3.1261,-3.1194,-3.1149,-3.113,-3.1123,-3.1168,-3.1188,-3.1143,-3.1058,-3.1011,-3.0885,-3.0566,-2.9466,-2.8204,-2.7044,-2.8491,-2.903,-2.6758,-2.8577,-3.0586,-3.1663,-3.2277,-3.302,-3.4086,-3.4197,-3.4197,-3.4197,-3.2723,-3.2017,-3.2555,-3.2091,-3.1916,-3.2188,-3.2019,-3.1489,-3.054,-3.0985,-2.9875,-2.7137,0.0,0.0,0.0,0.0,0.0,0.0,0.0,0.0,0.0,0.0,0.0,0.0,0.0,0.0,0.0,0.0,0.0,0.0,0.0,0.0,0.0,0.0,0.0,-2.9557,-3.0989,-3.1517,-2.991,-3.3431,-3.4684,-3.1327,-3.406,-3.6051,-3.607,-3.6852,-3.734,-3.734,-3.8142,-3.8591,-3.8591,-3.8611,-3.863,-3.863,-3.8669,-3.8689,-3.8689,-3.8689,-3.8689,-3.8689,-3.8689,-3.8689,-3.8689,-3.8689,-3.8181,-3.73,-3.6466,-3.558,-3.4562,-3.2816,-3.1614,-3.0879,-3.0877,-3.1362,-3.214,-3.2919,-3.3151,-3.3107,-3.3107,-3.3126,-3.3146,-3.3107,-3.3121,-3.3135,-3.3109,-3.2961,-3.2845,-3.298,-3.2845,-3.274,-3.2859,-3.2811,-3.2747,-3.2878,-3.2778,-3.251,-3.1853,-3.0782,-2.9959,-2.9902,-2.9751,-2.9608,-2.9626,-2.951,0.0,-3.1626,-3.1849,-3.2425,-3.3956,-3.4123,-3.4123,-3.4123,-3.1273,-3.014,-3.1738,-3.0392,-2.9749,-3.0231,-2.8734,-2.7433,-2.6475,-2.6537,-2.4694,-2.0866,0.0,0.0,0.0,0.0,0.0,0.0,0.0,0.0,0.0,0.0,0.0,0.0,0.0,0.0,0.0,0.0,0.0,0.0,0.0,0.0,0.0,-2.8203,-3.062,-3.0375,-3.2976,-3.4733,-3.4261,-3.5261,-3.5869,-3.5543,-3.6384,-3.7204,-3.7849,-3.8103,-3.824,-3.824,-3.8474,-3.8591,-3.8591,-3.9175,-3.9468,-3.9468,-4.0094,-4.0406,-4.0406,-4.0406,-4.0406,-4.0406,-4.0406,-4.0406,-4.0406,-4.0406,-3.9917,-3.9096,-3.8853,-3.7537,-3.5461,-3.3724,-3.2893,-3.2672,-3.2628,-3.2716,-3.288,-3.3074,-3.3117,-3.3107,-3.3107,-3.3532,-3.3919,-3.3293,-3.3506,-3.3848,-3.3211,-3.2991,-3.2948,-3.2998,-3.291,-3.2846,-3.2885,-3.2865,-3.2838,-3.2776,-3.2725,-3.2604,-3.2267,-3.1939,-3.1355,-3.0239,-2.9915,-2.9976,-3.0406,-3.0368,0.0,-3.2462,-3.2667,-3.263,-3.2481,-3.2462,-3.2462,-3.2462,-3.1645,-3.1622,-3.2743,-3.2389,-3.2032,-3.1735,-3.1848,-3.1944,-3.1997,-3.1084,-3.0063,0.0,0.0,0.0,0.0,0.0,0.0,0.0,0.0,0.0,0.0,0.0,0.0,0.0,0.0,0.0,0.0,0.0,0.0,0.0,0.0,0.0,0.0,-3.0936,-3.3009,-3.3365,-3.4891,-3.6096,-3.6454,-3.6522,-3.6881,-3.7725,-3.7827,-3.8045,-3.8552,-3.8903,-3.9099,-3.9099,-3.945,-3.9645,-3.9645,-4.0093,-4.0346,-4.0346,-4.0855,-4.1109,-4.1109,-4.1109,-4.1109,-4.1109,-4.1109,-4.1109,0.0,-4.1109,-4.0816,-4.0327,-3.9942,-3.8939,0.0,0.0,0.0,0.0,0.0,-3.4323,-3.4272,-3.4221,-3.419,-3.419,-3.419,-3.4524,-3.4853,-3.4348,-3.4516,-3.4781,-3.4234,-3.4094,-3.4076,-3.4045,-3.402,-3.3987,-3.3987,-3.3987,-3.3961,-3.3885,-3.3863,-3.3726,-3.3249,0.0,0.0,-3.1427,-3.1058,-3.0923,-3.0847,-3.1058,-3.1542,-3.24,-3.2797,-3.2946,-3.2816,-3.2816,-3.2816,-3.2816,-3.1931,0.0,0.0,0.0,-3.1764,-3.0716,-3.0678,0.0,0.0,0.0,0.0,0.0,0.0,0.0,0.0,-2.9632,-2.7447,0.0,0.0,0.0,0.0,0.0,0.0,0.0,0.0,0.0,0.0,0.0,0.0,0.0,0.0,0.0,0.0,-3.3843,-3.6356,-3.7214,-3.6679,-3.6472,-3.7252,-3.739,-3.7755,-3.8575,-3.8702,-3.8785,-3.8864,-3.9546,-3.9956,-3.9956,0.0,0.0,0.0,0.0,-4.1109,-4.1109,-4.1109,-4.1109,-4.1109,-4.1109,-4.1109,-4.1109,-4.1109,-4.1109,-4.1109,-4.1109,-4.1108,-4.1048,-4.0266,-3.9826,-3.9489,-3.7842,-3.6189,-3.4826,-3.5535,-3.5791,0.0,-3.5722,0.0,0.0,-3.5704,-3.5704,-3.5704,-3.5684,-3.5684,-3.5673,-3.5616,-3.5598,-3.5579,-3.5527,-3.5507,-3.5493,-3.5479,-3.5472,-3.5472,-3.5472,-3.5472,-3.5229,-3.4487,-3.4359,-3.4069,-3.3168,-3.2697,-3.2131,-3.1214,-3.1665,-3.2073,-3.1991,-3.2567,-3.3243,-3.3863,0.0,0.0,-3.3918,-3.209,-3.1597,-3.3111,-3.1851,-3.0424,-2.9016,-2.8015,-2.7555,-2.7678,-2.7472,-2.8732,-3.1547,-3.2484,-3.2865,-3.2606,-2.8756,-2.7651,0.0,0.0,0.0,0.0,0.0,0.0,0.0,0.0,0.0,0.0,0.0,0.0,0.0,0.0,0.0,-3.2506,-3.5129,-3.7253,-3.8129,-3.8093,-3.806,-3.8227,-3.8251,-3.8614,-3.947,-3.9552,-3.987,-4.0561,-4.0758,-4.0855,-4.0855,-4.1012,-4.1109,-4.1109,-4.1109,-4.1109,-4.1109,-4.1109,-4.1109,-4.1109,0.0,0.0,-4.1109,-4.1109,-4.1109,-4.1109,-4.1109,-4.1104,-4.1095,-4.0925,-4.0028,-3.8645,-3.7609,-3.6559,-3.5652,-3.5757,-3.5773,-3.5713,-3.5711,-3.5704,-3.5704,-3.5704,-3.5704,-3.5684,-3.5637,-3.5612,0.0,-3.561,-3.556,-3.5515,-3.5502,-3.5508,-3.5453,-3.5308,-3.5258,-3.5258,-3.5258,-3.5258,-3.5258,-3.5249,-3.525,-3.5185,-3.4985,-3.3673,-3.2518,-3.2161,-3.21,-3.233,-3.2922,-3.2993,-3.2816,-3.2314,-3.2258,-3.2258,-3.2258,-3.196,-3.2198,-3.3227,-3.2534,-3.2185,-3.2338,-3.1957,-3.1964,-3.2464,-3.2215,-3.2377,-3.2994,-3.3197,-3.3284,-3.3237,-3.3034,-3.297,0.0,0.0,0.0,0.0,0.0,0.0,0.0,0.0,0.0,0.0,0.0,-2.7869,-2.9716,0.0,-3.3832,-3.5606,-3.7007,-3.8149,-3.9026,-3.9143,-3.9146,-3.9151,-3.916,-3.9482,-4.0372,-4.0442,-4.0627,-4.1062,-4.1106,-4.1109,-4.1109,-4.1109,-4.1109,-4.1109,-4.1109,-4.1109,-4.1109,-4.1109,-4.1109,-4.1109,-4.1109,-4.1109,-4.1109,-4.1109,-4.1109,-4.1109,-4.1109,-4.1103,-4.1092,-4.1093,-4.0079,-3.8461,-3.8013,-3.7049,-3.5882,-3.5819,-3.5782,-3.5751,-3.5716,-3.5704,-3.5704,-3.5704,-3.5704,-3.5684,-3.5668,-3.5643,-3.5631,-3.5534,-3.5477,-3.5424,-3.5367,-3.53,-3.5231,-3.5122,-3.507,-3.5081,-3.5185,-3.5115,-3.5132,-3.5439,-3.5417,-3.5346,-3.5346,-3.4577,-3.3772,-3.3233,-3.3345,-3.3438,-3.3325,-3.3474,-3.3436,-3.3039,-3.3001,-3.3025,-3.3101,-3.3278,-3.3594,-3.4061,-3.3722,-3.3644,-3.3944,-3.3566,-3.3497,-3.3788,-3.3534,-3.3393,-3.3393,-3.3393,-3.3393,-3.3408,-3.3947,-3.4124,0.0,0.0,0.0,0.0,0.0,0.0,0.0,-2.449,-2.5419,-2.829,-2.9941,-3.1588,-3.3897,-3.5408,-3.6858,-3.8494,-3.8753,-3.9065,-3.9922,-4.0042,-4.0042,-4.0042,-4.0054,-4.0332,-4.1037,-4.1098,-4.1092,-4.1094,-4.1103,-4.1109,-4.1109,-4.1109,-4.1109,-4.1109,-4.1109,-4.1109,-4.1109,-4.1109,-4.1109,-4.1109,-4.1109,-4.1109,-4.1109,-4.1109,-4.1109,-4.1109,-4.1104,-4.1099,-4.1107,-4.1103,-4.007,-3.85,-3.85,-3.7428,-3.5883,-3.5827,-3.5795,-3.5782,-3.5727,-3.5704,-3.5704,-3.5704,-3.5704,-3.5704,-3.5704,-3.5704,-3.5662,-3.5464,-3.5405,-3.5364,-3.5246,-3.5105,-3.498,-3.4944,-3.4898,-3.4898,-3.5054,-3.4982,-3.4963,-3.5324,-3.525,-3.5132,-3.5132,-3.5132,-3.4854,-3.3966,-3.4261,-3.4338,-3.3609,-3.3791,-3.4086,-3.442,-3.429,-3.4257,-3.4439,-3.4655,-3.4839,-3.4898,-3.4751,-3.4615,-3.4528,-3.4111,-3.3815,-3.3726,-3.3506,-3.3393,-3.3393,-3.3393,-3.3393,-3.3411,-3.3633,-3.3726,-2.6104,-2.5529,-2.5306,-2.574,-2.6498,-2.8505,0.0,-3.3308,-3.2752,-3.6265,-3.7132,-3.7396,-3.7839,-3.8065,-3.8513,-3.949,-3.9649,-3.9961,-4.0835,-4.0947,-4.0956,-4.0956,-4.0944,-4.0983,-4.1095,-4.1108,-4.11,-4.1092,-4.1103,-4.1109,-4.1109,-4.1109,-4.1109,-4.1109,-4.1109,-4.1109,-4.1109,-4.1109,-4.1109,-4.1109,-4.1109,-4.1109,-4.1109,-4.1109,-4.1109,-4.1108,-4.1109,-4.1098,-4.1093,-4.1106,-4.0078,-3.85,-3.85,-3.7428,-3.5883,-3.5827,-3.5795,-3.5782,-3.5727,-3.5704,-3.5704,-3.5704,-3.5704,-3.5704,-3.5704,-3.5704,-3.5668,-3.5534,-3.5444,-3.5371,-3.5316,-3.5149,-3.4953,-3.4774,-3.4743,-3.4713,-3.4678,-3.4701,-3.4773,-3.4945,-3.4955,-3.4926,-3.4926,-3.4926,-3.4633,-3.3761,-3.3553,-3.3694,-3.4277,-3.3649,-3.3696,-3.5194,-3.4674,-3.4305,-3.455,-3.4708,-3.4839,-3.4898,-3.4889,-3.4691,-3.4257,-3.4185,-3.3934,-3.3452,-3.3408,-3.3393,-3.3393,-3.3393,-3.3393,-3.3393,-3.3422,-3.3437,-3.1068,-3.0567,-2.9765,-3.0605,-3.1446,-3.2607,-3.4653,-3.4668,-3.4985,-3.7641,-3.8581,-3.9005,-3.9221,-3.9669,-4.0136,-4.0506,-4.0565,-4.0679,-4.1049,-4.1106,-4.1095,-4.1095,-4.1095,-4.1098,-4.1106,-4.1098,-4.1107,-4.1094,-4.1103,-4.1109,-4.1109,-4.1109,-4.1109,-4.1109,-4.1109,-4.1109,-4.1109,-4.1109,-4.1109,-4.1109,-4.1109,-4.1109,-4.1109,-4.1109,-4.1109,-4.1108,-4.1105,-4.1093,-4.1091,-4.1103,-4.0078,-3.85,-3.85,-3.7439,-3.5895,-3.5819,-3.5795,-3.5782,-3.5727,-3.5704,-3.5704,-3.5704,-3.5704,-3.5704,-3.5704,-3.5651,-3.5566,-3.5423,-3.5311,-3.5192,-3.5098,-3.4973,-3.485,-3.468,-3.4639,-3.4639,-3.466,-3.4649,-3.4732,-3.5028,-3.4982,-3.4908,-3.4908,-3.4908,-3.4737,-3.424,-3.412,-3.4358,-3.5143,-3.4799,-3.4735,-3.5478,-3.4878,-3.4506,-3.4697,-3.481,-3.486,-3.4908,-3.4801,-3.4564,-3.4221,-3.4049,-3.3793,-3.3411,-3.3393,-3.3393,-3.3393,-3.3393,-3.3713,-3.4333,-3.4333,-3.4687,-3.2921,-3.3253,-3.3253,-3.412,-3.5477,-3.6451,-3.5878,-3.6184,-3.7028,-3.8511,-3.9327,-3.9832,-4.011,-4.0659,-4.1107,-4.1107,-4.1107,-4.1107,-4.1107,-4.1109,-4.11,-4.11,-4.1096,-4.1105,-4.1105,-4.109,-4.1094,-4.1094,-4.1317,-4.1459,-4.1459,-4.1695,-4.1714,-4.1479,-4.1695,-4.1695,-4.1459,-4.1459,-4.1459,-4.1459,-4.1207,-4.1109,-4.1109,-4.1109,-4.1109,-4.1108,-4.1105,-4.1093,-4.1091,-4.1103,-4.0214,-3.8831,-3.8597,-3.7572,-3.6223,-3.5927,-3.5799,-3.5765,-3.5722,-3.5704,-3.5704,-3.5704,-3.5704,-3.5704,-3.5704,-3.5626,-3.5522,-3.5352,-3.5227,-3.5113,-3.4936,-3.4849,-3.4778,-3.4676,-3.4655,-3.4666,-3.468,-3.4649,-3.472,-3.4992,-3.4927,-3.4821,-3.4821,-3.4821,-3.4771,-3.4615,-3.4612,-3.4977,-3.6028,-3.6234,-3.6105,-3.5703,-3.5248,-3.4932,-3.4807,-3.485,-3.4908,-3.4908,-3.471,-3.4484,-3.4209,-3.3947,-3.3671,-3.3411,-3.3393,-3.3437,-3.3506,-3.3738,-3.4274,-3.5127,-3.5348,-3.5946,-2.9529,-3.1465,-3.414,-3.4961,-3.7665,-4.0129,-4.011,-4.0129,-4.0247,-4.0558,-4.0636,-4.0732,-4.1006,-4.1088,-4.1107,-4.1107,-4.1107,-4.1107,-4.1107,-4.1095,-4.1093,-4.1093,-4.1095,-4.1108,0.0,-4.1099,-4.1094,-4.1094,-4.1883,-4.2357,-4.2357,-4.3157,-4.3235,-4.2396,-4.3177,-4.3216,-4.2376,-4.2357,-4.2357,-4.2357,-4.1498,-4.1109,-4.1109,-4.1109,-4.1109,-4.1108,-4.1105,-4.1093,-4.1091,-4.1103,-4.0565,-3.9688,-3.8831,-3.7954,-3.7052,-3.6203,-3.5811,-3.5704,-3.5706,-3.5704,-3.5704,-3.5704,-3.5704,-3.5704,-3.5704,-3.5704,-3.5645,-3.5374,-3.5308,-3.5227,-3.4963,-3.4849,-3.4798,-3.4788,-3.4788,-3.4758,-3.4634,-3.4697,-3.4758,-3.4645,-3.4604,-3.4612,-3.4612,-3.4612,-3.4612,-3.4612,-3.4612,-3.5213,-3.6847,-3.7749,-3.7598,-3.5965,-3.5894,-3.5648,-3.4874,-3.485,-3.4908,-3.4908,-3.471,-3.4484,-3.4209,-3.3947,-3.3671,-3.3411,-3.3393,-3.352,-3.3793,-3.4573,-3.5103,-3.5411,-3.6242,-3.6783,-3.2795,-3.4342,-3.6126,-3.8085,-3.9441,-4.0301,-4.0301,-4.0301,-4.0345,-4.0527,-4.0636,-4.0574,-4.0172,-4.0648,-4.0912,-4.0331,-4.0718,-4.1107,-4.1107,-4.1109,-4.1106,-4.1093,-4.1618,-4.1961,-4.1967,0.0,0.0,-4.1143,-4.2433,-4.3001,-4.2435,-4.3235,-4.3567,-4.3274,-4.3548,-4.3567,-4.3274,-4.3255,-4.2962,-4.2396,-4.1518,-4.1109,-4.1109,-4.1109,-4.1106,-4.1097,-4.11,-4.1108,-4.11,-4.1097,-4.0584,-3.9708,-3.8831,-3.7942,-3.7027,-3.6197,-3.5811,-3.5704,-3.5708,-3.5697,-3.5704,-3.5704,-3.5704,-3.5673,-3.5596,-3.5509,-3.5395,-3.5219,-3.5105,-3.5009,-3.4917,-3.4879,-3.4859,-3.4809,-3.483,-3.4849,-3.4739,-3.48,-3.485,-3.4811,-3.4801,-3.4801,-3.4801,-3.4801,-3.4801,-3.4801,-3.562,-3.6453,-3.7035,-3.7805,-3.8122,-3.7638,-3.6645,-3.5924,-3.5749,-3.5211,-3.4908,-3.4908,-3.484,-3.471,-3.4484,-3.4374,-3.4209,-3.3934,-3.4463,-3.4774,-3.4864,-3.5705,-3.6546,-3.7335,-3.7628,-3.8179,-3.4915,-3.6061,-3.7111,-3.9652,-4.0301,-4.0301,-4.0301,-4.0301,-4.0345,-4.0534,-4.0344,-4.0055,-3.9721,-4.0163,-4.05,-4.0305,-4.0971,-4.1536,-4.1536,-4.1551,-4.1568,-4.1562,-4.2063,-4.2524,-4.2824,-4.3157,-4.2962,-4.2085,-4.3352,-4.3918,-4.3352,-4.4153,-4.4484,-4.4172,-4.4465,-4.4484,-4.4172,-4.4153,-4.3567,-4.2396,-4.1518,-4.1109,-4.1109,-4.1109,-4.1106,-4.1099,-4.1107,-4.1098,-4.1108,-4.1109,-4.0769,-4.0184,-3.9301,-3.841,-3.7498,-3.668,-3.6102,-3.5732,-3.5713,-3.5693,-3.5704,-3.5704,-3.5704,-3.5679,-3.5596,-3.5489,-3.5333,-3.5211,-3.5079,-3.4954,-3.4898,-3.4908,-3.4889,-3.4849,-3.486,-3.4889,-3.4849,-3.486,-3.4908,-3.4908,-3.4908,-3.4908,-3.4908,-3.4908,-3.5003,-3.5325,-3.617,-3.6877,-3.7178,-3.8177,-3.8795,-3.859,-3.7618,-3.6761,-3.6234,-3.595,-3.5533,-3.4946,-3.5105,-3.5023,-3.4612,-3.4768,-3.4804,-3.4618,-3.5442,-3.5901,-3.5968,-3.6851,-3.7677,-3.8456,-3.8746,-3.9248,-3.5621,-3.6596,-3.7264,-3.969,-4.0301,-4.0301,-4.0301,-4.0301,-4.0353,-4.0506,-3.9764,-3.9142,-3.9404,-3.9455,-3.9766,-4.0692,-4.1614,-4.2237,-4.2237,-4.2292,-4.2348,-4.2381,-4.2434,-4.2817,-4.3684,-4.4543,-4.4719,-4.3899,0.0,-4.5049,-4.499,-4.5831,-4.5929,-4.5088,-4.587,-4.5909,-4.5068,-4.4971,-4.4094,-4.2454,-4.1537,-4.1109,-4.1109,-4.1109,-4.1109,-4.1108,-4.1097,-4.1094,-4.109,-4.1106,-4.1095,-4.1014,-4.0142,-3.9298,-3.8461,-3.7545,-3.6625,-3.5849,-3.5747,-3.5693,-3.5704,-3.5704,-3.5704,-3.5704,-3.5673,-3.5596,-3.5457,-3.533,-3.5187,-3.5062,-3.4926,-3.4908,-3.4908,-3.4908,-3.4908,-3.4908,-3.4908,-3.4908,-3.4908,-3.4908,-3.4908,-3.4908,-3.4908,-3.4908,-3.5173,-3.6017,-3.6168,-3.651,-3.7363,-3.885,-3.9559,-3.8841,-3.8727,-3.8064,-3.6472,-3.7002,-3.6708,-3.5135,-3.5579,-3.5536,-3.4773,-3.5245,-3.5516,-3.5498,-3.6348,-3.6901,-3.7088,-3.7965,-3.8512,-3.8784,-3.9551,-3.99,-3.608,-3.7894,-3.948,-4.0129,-4.0301,-4.0301,-4.0301,-4.0301,-3.9956,-3.872,-3.7855,-3.68,-3.5059,-3.6369,-3.7638,-3.7283,-3.9591,-4.14,-4.14,-4.1425,-4.1668,-4.2326,-4.2968,-4.3702,-4.4588,-4.5457,-4.587,0.0,-4.5831,-4.5695,-4.5029,-4.5831,-4.6202,-4.5987,-4.6183,-4.6183,-4.5968,-4.468,-4.3801,-4.3352,-4.1831,-4.1109,-4.1109,-4.1109,-4.1104,-4.1097,-4.1095,-4.1103,-4.1106,-4.1098,-4.1109,-4.1019,-4.0136,-3.9669,-3.9279,-3.7759,-3.7014,-3.6669,-3.6015,-3.5742,-3.5704,-3.5704,-3.5704,-3.5662,-3.545,-3.5381,-3.5296,-3.507,-3.4973,-3.4936,-3.4917,-3.4908,-3.4908,-3.4908,-3.4908,-3.4908,-3.4908,-3.4908,-3.4908,-3.4908,-3.4908,-3.4908,-3.4908,-3.4908,-3.4984,-3.5192,-3.578,-3.6737,-3.8178,-3.8746,-3.9153,-3.954,-3.9058,-3.8538,-3.8102,-3.7666,-3.723,-3.6784,-3.6944,-3.6943,-3.6694,-3.6873,-3.6936,-3.6893,-3.7753,-3.8221,-3.8275,-3.9096,-3.9534,-3.9597,-3.9805,-3.99,-3.7264,-3.8926,-4.0301,-4.0301,-4.0301,-4.0091,-3.9336,-3.9164,-3.8484,-3.6086,-3.5278,-3.4269,-3.1854,-3.4209,-3.6366,-3.5958,-3.9123,-4.1633,-4.1633,-4.1965,-4.2383,-4.2869,-4.3704,-4.4575,-4.5482,-4.6002,-4.63,-4.63,-4.63,-4.6085,-4.5597,-4.6027,-4.63,-4.63,-4.63,-4.63,-4.63,-4.4953,-4.4075,-4.3686,-4.2318,-4.1479,-4.1109,-4.1109,-4.1106,-4.1101,0.0,-4.1092,-4.1093,-4.1106,-4.1095,-4.1042,-4.0568,-4.0136,-3.9685,-3.8676,-3.7797,-3.7038,-3.6511,-3.6048,-3.5704,-3.5704,-3.5704,-3.5668,-3.5515,-3.5395,-3.5258,-3.5122,-3.4991,-3.4908,-3.4908,-3.4908,-3.4908,-3.4908,-3.4908,-3.4908,-3.4908,-3.4908,-3.4908,-3.4908,-3.4908,-3.4908,-3.4908,-3.4908,-3.5022,-3.5401,-3.5552,-3.6377,-3.8474,-3.8719,-3.9012,-3.9805,-3.9513,-3.9077,-3.8727,-3.8584,-3.8197,-3.7488,-3.784,-3.7878,-3.7469,-3.7859,-3.8039,-3.7969,-3.8793,-3.9229,-3.9229,-3.9673,-3.99,-3.99,-3.99,-3.99,-3.8438,-3.9546,-4.0301,-4.0301,-4.0301,-3.9843,-3.8094,-3.7521,-3.6444,-3.3205,-3.2237,-3.133,-2.9252,-3.2151,-3.5029,-3.5491,-3.9065,-4.1906,-4.2257,-4.2958,-4.3513,-4.3749,-4.4445,-4.5277,-4.6206,-4.6294,-4.63,-4.63,-4.63,-4.63,-4.63,-4.63,-4.63,-4.63,-4.63,-4.6241,-4.6124,-4.5265,-4.4387,-4.3528,-4.265,-4.183,-4.1109,-4.1109,-4.1109,-4.1109,0.0,0.0,-4.109,-4.1098,-4.1106,-4.1092,-4.1094,-4.0643,-3.9955,-3.9762,-3.8731,-3.7407,-3.7235,-3.6603,-3.5839,-3.5723,-3.5704,-3.5684,-3.5656,-3.5489,-3.5281,-3.5251,-3.5079,-3.4908,-3.4908,-3.4908,-3.4908,-3.4908,-3.4908,-3.4908,-3.4908,-3.4908,-3.4908,-3.4908,-3.4908,-3.4889,-3.4917,-3.4917,-3.5164,-3.5932,-3.5401,-3.5837,-3.8316,-3.8569,-3.8898,-3.9827,-3.9911,-3.9637,-3.8938,-3.9534,-3.9336,-3.7936,-3.8554,-3.8592,-3.7717,-3.8392,-3.8771,-3.869,-3.9399,-3.9786,-3.99,-3.99,-3.99,-3.99,-3.99,-3.99,-3.7846,-3.9088,-4.0301,-4.0301,-4.0301,-3.9843,-3.8094,-3.6623,-3.4683,-3.1362,-2.9027,-2.728,-2.6289,-2.8503,-3.1226,-3.3468,-3.6824,-3.9883,-4.2003,-4.2432,-4.3065,-4.4507,-4.4816,-4.5277,-4.6206,-4.6294,-4.63,0.0,-4.63,-4.63,-4.63,-4.63,-4.63,-4.63,-4.63,-4.5948,-4.5226,-4.4367,-4.3489,-4.2611,-4.1732,-4.1246,-4.1109,-4.1109,-4.1109,-4.1109,-4.1109,0.0,-4.1096,-4.1093,-4.1098,-4.1094,-4.1091,-4.101,-4.0773,-3.9995,-3.947,-3.9062,-3.8326,-3.7475,-3.6574,-3.5916,-3.5704,-3.5656,-3.5449,-3.5345,-3.5251,-3.5035,-3.4945,-3.4908,-3.4908,-3.4908,-3.4908,-3.4908,-3.4908,-3.4908,-3.4908,-3.4908,-3.4908,-3.4908,-3.4908,-3.4917,-3.4964,-3.4992,-3.5039,-3.5256,-3.5161,-3.574,-3.7566,-3.7697,-3.8247,-3.9875,-4.0026,-3.9939,-3.9848,-3.9981,-3.9953,-3.9678,-3.9842,-3.9546,-3.862,-3.8717,-3.8773,-3.869,-3.8841,-3.9248,-3.99,-3.99,-3.99,-3.99,-3.99,-3.99,-3.7693,-3.8973,-4.0301,-4.0301,-4.0301,-3.9499,-3.647,-3.4808,-3.2565,-2.7892,-2.603,-2.4881,-2.3651,-2.6353,-2.9355,-3.1091,-3.4993,-3.8578,-4.0698,-4.214,-4.3455,-4.4741,-4.5304,-4.5765,-4.6245,-4.6294,-4.63,-4.63,-4.63,-4.63,-4.63,-4.63,-4.63,-4.63,-4.63,-4.6105,-4.5675,-4.4816,-4.3938,-4.3079,-4.2181,-4.1537,-4.1109,-4.1109,-4.1109,-4.1109,-4.1109,0.0,-4.1093,-4.1093,-4.1098,-4.1107,-4.1107,-4.1107,-4.1042,-4.0517,-4.0017,-3.9543,-3.9071,-3.8319,-3.7516,-3.7135,-3.64,-3.5662,-3.5457,-3.536,-3.5346,-3.5614,-3.5287,-3.5003,-3.5457,-3.523,-3.4908,-3.4908,-3.4908,-3.4908,-3.4908,-3.4908,-3.4908,-3.4908,-3.4908,-3.4927,-3.4992,-3.5001,-3.502,-3.5084,-3.5092,-3.5558,-3.6814,-3.7272,-3.8174,-3.9916,-4.0067,-4.0067,-4.0106,-4.0106,-4.0098,-4.0157,-3.9767,-3.9309,-3.8812,-3.8794,-3.8773,-3.869,-3.9115,-3.9513,-3.99,-3.99,-3.99,-3.99,-3.99,-3.99,-3.7693,-3.8973,-4.0301,-4.0301,-4.0301,-3.9193,-3.4961,-3.3051,-3.0598,-2.504,-2.3577,-2.3009,-2.2046,-2.4729,-2.7684,-2.9496,-3.3336,-3.7038,-3.9708,-4.1945,-4.3786,-4.5039,-4.5772,-4.6233,-4.6286,-4.6296,-4.63,-4.63,0.0,0.0,-4.63,-4.63,-4.63,-4.63,-4.63,-4.6124,-4.5753,-4.5051,-4.4192,-4.3139,-4.2454,-4.1752,-4.1109,-4.1109,-4.1109,-4.1109,-4.1106,0.0,0.0,-4.1091,-4.1095,-4.1107,-4.1107,-4.1107,-4.1081,-4.0943,-4.0461,-3.9869,-3.9799,-3.9204,-3.8489,-3.8489,-3.7328,-3.5958,-3.599,-3.5676,-3.5488,-3.6382,-3.5932,-3.5344,-3.6017,-3.5685,-3.5135,-3.4946,-3.4908,-3.4889,-3.4927,-3.4917,-3.4917,-3.4936,-3.4936,-3.4945,-3.502,-3.5038,-3.5066,-3.5119,-3.5119,-3.5441,-3.6306,-3.6965,-3.7937,-3.9442,-3.9737,-3.9841,-3.9851,-3.969,-3.9604,-3.9662,-3.9023,-3.8537,-3.8271,-3.8442,-3.8507,-3.8424,-3.9167,-3.9667,-3.99,-3.9826,-3.9837,-3.99,-3.99,-3.99,-3.7693,-3.8973,-4.0301,-4.0301,-4.0301,-3.9193,-3.4961,-3.216,-2.9192,-2.4792,-2.2169,-2.1082,-2.2517,-2.321,-2.5134,-2.9905,-3.1739,-3.4547,-4.0195,-4.1809,-4.3322,-4.5794,-4.6147,-4.6236,-4.6298,-4.63,-4.63,-4.63,0.0,0.0,-4.63,-4.63,-4.63,-4.63,-4.63,-4.5539,-4.3959,-4.386,-4.2983,-4.1343,-4.1265,-4.1187,-4.1109,-4.1109,-4.1109,-4.1108,-4.1099,0.0,0.0,-4.1103,-4.1106,-4.1107,-4.1107,-4.1107,-4.1081,-4.0943,-4.0849,-4.0777,-4.0703,-4.012,-3.9385,-3.9385,-3.8199,-3.6887,-3.7425,-3.6523,-3.558,-3.6929,-3.6728,-3.6112,-3.6187,-3.6149,-3.5874,-3.5097,-3.4908,-3.4917,-3.4983,-3.4936,-3.4936,-3.5066,-3.5029,-3.5029,-3.5155,-3.5191,-3.5181,-3.5185,-3.5193,-3.5518,-3.6377,-3.6568,-3.695,-3.7837,-3.8575,-3.9023,-3.9108,-3.8382,-3.7915,-3.7917,-3.7841,-3.7442,-3.6578,-3.7291,-3.7642,-3.7514,-3.8139,-3.8939,-3.99,-3.9647,-3.9658,-3.99,-3.99,-3.99,-3.8209,-3.9374,-4.0301,-4.0301,-3.9508,-3.7769,-3.4063,-3.0873,-2.7625,-2.39,-2.1615,-2.083,-2.2575,-2.2588,-2.3848,-2.8483,-2.9964,-3.1914,-3.5908,-3.8505,-4.0797,-4.2877,-4.4063,-4.5111,-4.6193,-4.6296,-4.63,0.0,0.0,0.0,-4.63,-4.63,-4.63,-4.63,-4.63,-4.5714,-4.4484,-4.3957,-4.3099,-4.1888,-4.1343,-4.1109,-4.1109,-4.1109,-4.1109,-4.1108,-4.1097,0.0,0.0,-4.11,-4.1106,-4.1107,-4.1107,-4.1107,-4.1081,-4.0943,-4.0907,-4.0893,-4.082,-4.0565,-4.0274,-4.0274,-3.9399,-3.8285,-3.7913,-3.7283,-3.6885,-3.7897,-3.7571,-3.704,-3.7571,-3.7325,-3.6718,-3.5874,-3.5714,-3.5609,-3.5115,-3.5011,-3.5048,-3.5084,-3.5075,-3.5084,-3.5172,-3.52,-3.5198,-3.5201,-3.5209,-3.5343,-3.566,-3.6604,-3.7158,-3.7005,-3.7695,-3.8182,-3.8211,-3.7906,-3.7678,-3.7632,-3.7147,-3.6681,-3.6321,-3.7091,-3.7509,-3.746,-3.8664,-3.9377,-3.9658,-3.9705,-3.9705,-3.9658,-3.9815,-3.99,-3.8228,-3.9451,-4.0301,-4.0301,-3.8992,-3.6814,-3.3463,-3.0102,-2.6727,-2.3307,-2.1365,-2.0753,-2.2246,-2.2122,-2.3031,-2.6846,-2.8171,-2.9905,-3.3281,-3.6058,-3.8561,-4.0827,-4.2176,-4.3613,-4.5354,-4.6003,-4.63,0.0,0.0,0.0,0.0,-4.63,-4.63,-4.63,-4.63,-4.5753,-4.4621,-4.4016,-4.3138,-4.2006,-4.1381,-4.1109,-4.1109,-4.1109,-4.1109,-4.1108,0.0,0.0,0.0,-4.1095,-4.11,-4.1107,-4.1107,-4.1107,-4.1081,-4.0943,-4.0907,-4.0893,-4.082,-4.0797,-4.0797,-4.0797,-4.0254,-3.9454,-3.8753,-3.811,-3.7804,-3.8778,-3.8443,-3.7931,-3.8538,-3.7874,-3.6908,-3.6359,-3.6065,-3.5751,-3.5171,-3.5084,-3.5101,-3.5127,-3.5119,-3.5147,-3.5189,-3.5198,-3.5187,-3.5201,-3.5209,-3.5209,-3.5209,-3.647,-3.7024,-3.6194,-3.6852,-3.7332,-3.7326,-3.7088,-3.6908,-3.6834,-3.6263,-3.5931,-3.5884,-3.6948,-3.747,-3.7349,-3.8878,-3.9604,-3.9514,-3.958,-3.9635,-3.9623,-3.9804,-3.99,-3.7483,-3.8973,-4.0301,-4.0301,-3.8992,-3.6814,-3.3463,-3.0102,-2.6727,-2.3307,-2.1365,-2.0579,-2.1446,-2.1711,-2.2661,-2.5309,-2.64,-2.8719,-3.3863,-3.5356,-3.7201,-4.0682,-4.1124,-4.18,-4.3567,-4.5285,0.0,0.0,0.0,0.0,0.0,-4.63,-4.63,-4.63,-4.63,-4.546,-4.3725,-4.3705,-4.2827,-4.1109,-4.1109,-4.1109,-4.1109,-4.1109,-4.1109,0.0,0.0,0.0,0.0,-4.1103,-4.1107,-4.1107,-4.1107,-4.1107,-4.1081,-4.0943,-4.0907,-4.0893,-4.082,-4.0797,-4.0797,-4.0797,-4.0571,-4.029,-4.029,-3.9018,-3.7918,-3.945,-3.9304,-3.869,-3.869,-3.7457,-3.6235,-3.6283,-3.5647,-3.5048,-3.5164,-3.5147,-3.5119,-3.5185,-3.5187,-3.5198,-3.5201,-3.5201,-3.5209,-3.5209,-3.5209,-3.5209,-3.5209,-3.5965,-3.6175,-3.5305,-3.5984,-3.6483,-3.642,-3.5614,-3.5094,-3.503,-3.5085,-3.5048,-3.4917,-3.6635,-3.7409,-3.7012,-3.8383,-3.9236,-3.9514,-3.9176,-3.932,-3.99,-3.99,-3.99,-3.4789,-3.5572,-3.5859,-3.5259,-3.4284,-3.2879,-3.0617,-2.7969,-2.5356,-2.3122,-2.1405,-2.0572,-2.1499,-2.1245,-2.2525,-2.7489,-2.7509,-2.8505,-3.3125,-3.5512,-3.7427,-3.9118,-4.2434,-4.4814,-4.541,0.0,0.0,0.0,0.0,0.0,0.0,-4.5402,-4.5675,-4.628,-4.5714,-4.4855,-4.3705,-4.3118,-4.224,-4.1109,-4.1109,-4.1109,-4.1109,-4.1109,0.0,0.0,0.0,0.0,0.0,-4.1103,-4.1107,-4.1107,-4.1107,-4.1107,-4.1081,-4.0943,-4.0907,-4.0893,-4.082,-4.0797,-4.0797,-4.0797,-4.0571,-4.0309,-4.0309,-3.9767,-3.9262,-3.9759,-3.9711,-3.9532,-3.9532,-3.8748,-3.783,-3.7261,-3.6511,-3.5832,-3.5306,-3.517,-3.5176,-3.5201,-3.5193,-3.5193,-3.5201,-3.5209,-3.5209,-3.5209,-3.5209,-3.5411,-3.6003,-3.6814,-3.7005,-3.6175,-3.6827,-3.6838,-3.5677,-3.5335,-3.5129,-3.5011,-3.502,-3.5011,-3.4964,-3.5871,-3.6594,-3.7058,-3.7866,-3.8474,-3.8894,-3.8971,-3.9216,-3.9623,-3.9623,-3.9717,-3.221,-3.3261,-3.3452,-3.3242,-3.2095,-3.0643,-2.9223,-2.6727,-2.4238,-2.2589,-2.1212,-2.0481,-2.109,-2.1097,-2.233,-2.642,-2.6729,-2.8076,-3.2735,-3.5044,-3.7057,-3.9218,-4.2905,-4.5263,0.0,0.0,0.0,0.0,0.0,0.0,0.0,-4.4699,-4.4758,-4.5304,-4.4797,-4.4094,-4.3216,-4.2669,-4.1967,-4.1109,-4.1109,-4.1109,-4.1109,-4.1109,0.0,0.0,0.0,0.0,0.0,-4.11,-4.1107,-4.1107,-4.1107,-4.1107,-4.1081,-4.0943,-4.0907,-4.0893,-4.082,-4.0797,-4.0797,-4.0797,-4.0571,-4.0283,-4.0176,-4.003,-3.99,-3.99,-3.99,-3.99,-3.99,-3.9109,-3.8183,-3.7661,-3.6719,-3.581,-3.5312,-3.5204,-3.5209,-3.5209,-3.5209,-3.5209,-3.5209,-3.5209,-3.5209,-3.5209,-3.5209,-3.5507,-3.6385,-3.7196,-3.7387,-3.6596,-3.7219,-3.702,-3.5333,-3.5147,-3.5075,-3.4983,-3.4992,-3.5144,-3.5429,-3.5985,-3.6637,-3.7355,-3.7894,-3.8294,-3.86,-3.9004,-3.93,-3.9495,-3.9599,-3.9747,0.0,-3.14,-3.2279,-3.307,-3.151,-2.9535,-2.8726,-2.6091,0.0,-2.1838,-2.0853,-2.0365,-2.057,-2.1196,-2.2116,-2.3341,-2.4803,-2.7628,-3.293,-3.4635,-3.685,-4.0896,-4.2841,-4.3882,-4.3884,0.0,0.0,0.0,0.0,0.0,0.0,-4.4055,-4.3588,-4.353,-4.353,-4.3157,-4.2415,-4.2337,-4.1908,-4.1109,-4.1109,-4.1109,-4.1109,-4.1109,0.0,0.0,0.0,0.0,0.0,-4.1097,-4.1107,-4.1107,-4.1107,-4.1107,-4.1081,-4.0943,-4.0907,-4.0893,-4.082,-4.0797,-4.079,-4.0778,-4.0549,-4.0239,-3.9988,-3.99,-3.99,-3.99,-3.99,-3.9911,-3.9911,-3.8721,-3.7528,-3.7595,-3.6366,-3.5198,-3.5201,-3.5209,-3.5209,-3.5209,-3.5209,-3.5209,-3.5209,-3.5209,-3.5209,-3.5209,-3.5209,-3.5507,-3.6385,-3.7196,-3.7387,-3.6576,-3.721,-3.702,-3.5325,-3.5075,-3.4983,-3.4917,-3.4974,-3.5353,-3.612,-3.6688,-3.7224,-3.7765,-3.8298,-3.8585,-3.86,-3.9154,-3.9458,-3.9514,-3.9758,-3.9878,-2.4186,0.0,-2.6014,-2.623,-2.5829,-2.5332,0.0,-2.3951,-2.2652,-2.1752,-2.0907,-2.0748,-2.2207,-2.1565,-2.2388,-2.7217,-2.7217,-2.8894,-3.5382,-3.9301,-4.2133,-4.3811,-4.4964,-4.5638,-4.5679,0.0,0.0,0.0,0.0,0.0,0.0,-4.2825,-4.2396,-4.1734,-4.1714,-4.1927,-4.2396,-4.1732,-4.1304,-4.1109,-4.1109,-4.1109,-4.1109,-4.1109,0.0,0.0,0.0,0.0,-4.1095,-4.1097,-4.1107,-4.1107,-4.1107,-4.1107,-4.1081,-4.0943,-4.0907,-4.0893,-4.082,-4.0797,-4.0771,-4.05,-4.0283,-4.0129,-4.0008,-3.9943,-3.99,-3.99,-3.9933,-3.9975,-3.9975,-3.8821,-3.7661,-3.767,-3.641,-3.5193,-3.5201,-3.5209,-3.5209,-3.5209,-3.5209,-3.5209,-3.5209,-3.5209,-3.5209,-3.5209,-3.5209,-3.5507,-3.6385,-3.7196,-3.737,-3.6514,-3.7192,-3.6974,-3.5199,-3.5066,-3.5057,-3.4992,-3.4992,-3.5239,-3.5794,-3.581,-3.6318,-3.7474,-3.8031,-3.8385,-3.86,-3.8733,-3.9045,-3.9514,-3.9563,-3.9693,-2.0198,-2.262,-2.5141,-2.5537,-2.5352,-2.5046,-2.5046,-2.3479,-2.1857,-2.1141,-2.0631,-2.0754,-2.2238,-2.272,-2.3945,-2.7236,-2.8953,-3.1875,-3.7584,-4.14,-4.3919,-4.4809,-4.4952,-4.5181,0.0,0.0,0.0,0.0,0.0,0.0,0.0,-4.2025,-4.1596,-4.1109,-4.1109,-4.1324,-4.1791,-4.1343,-4.1109,-4.1109,-4.1109,-4.1109,-4.1109,-4.1104,-4.1095,0.0,0.0,0.0,-4.1103,-4.1094,-4.1107,-4.1107,-4.1107,-4.1107,-4.1081,-4.0943,-4.0907,-4.0893,-4.082,-4.0746,-4.0621,-4.0415,-4.0257,-4.0139,-4.0038,-4.0005,-3.9994,-3.9994,-4.0005,-3.9912,-3.9552,-3.8585,-3.7593,-3.7193,-3.6122,-3.5209,-3.5209,-3.5209,-3.5209,-3.5209,-3.5209,-3.5209,-3.5209,-3.5209,-3.5343,-3.5736,-3.5793,-3.6233,-3.7493,-3.8,-3.7925,-3.7097,-3.7356,-3.6891,-3.5163,-3.5001,-3.4992,-3.4955,-3.5191,-3.5606,-3.6269,-3.6302,-3.6779,-3.776,-3.8056,-3.8338,-3.86,-3.8715,-3.9031,-3.9495,-3.9623,-3.9978,-1.823,-2.239,-2.6612,-2.6708,-2.6479,-2.6179,-2.6039,-2.3714,-2.1416,-2.0795,-2.0679,-2.1158,-2.2676,-2.4468,-2.5991,-2.6907,-3.1057,-3.5441,-3.9084,-4.1906,-4.3838,-4.4449,-4.3971,0.0,0.0,0.0,0.0,0.0,0.0,0.0,0.0,-4.1498,-4.1109,-4.1109,-4.1109,-4.1109,-4.1109,-4.1109,-4.1109,-4.1109,-4.1109,-4.1109,-4.1109,-4.1099,-4.1107,0.0,0.0,0.0,-4.1107,-4.1107,-4.1107,-4.1107,-4.1107,-4.1107,-4.1081,-4.0971,-4.0917,-4.0907,-4.0843,-4.0681,-4.0484,-4.0435,-4.0317,-4.0177,-4.0068,-4.0067,-4.0087,-4.0127,-4.0077,-3.9837,-3.9022,-3.8252,-3.7469,-3.6611,-3.5787,-3.5209,-3.5209,-3.5209,-3.5209,-3.5209,-3.5209,-3.5209,-3.5209,-3.5305,-3.5641,-3.6385,-3.6596,-3.7207,-3.862,-3.8851,-3.8537,-3.7593,-3.749,-3.6825,-3.5125,-3.4936,-3.4908,-3.4908,-3.5455,-3.6186,-3.7072,-3.7377,-3.7739,-3.8191,-3.8241,-3.8385,-3.8658,-3.8943,-3.9242,-3.9575,-3.9925,-4.0487,-2.1052,-2.457,-2.6594,-2.3217,-2.3892,-2.5185,-2.4454,-2.3307,-2.2407,-2.2333,-2.2424,-2.3689,-2.7511,-2.6841,-2.7355,-3.2401,-3.5752,-3.7954,-3.8617,-4.1536,-4.3393,-4.2844,0.0,0.0,0.0,0.0,0.0,0.0,0.0,0.0,0.0,-4.1168,-4.1109,-4.1109,-4.1109,-4.1109,-4.1109,-4.1109,-4.1109,-4.1109,-4.1109,-4.1109,-4.1109,-4.1099,-4.1107,0.0,0.0,-4.1106,-4.1107,-4.1107,-4.1107,-4.1107,-4.1107,-4.1107,-4.1085,-4.1003,-4.0984,-4.098,-4.0903,-4.0724,-4.0503,-4.0484,-4.033,-4.0118,-4.0166,-4.0147,-4.0127,-4.0234,-4.0225,-3.9967,-3.9119,-3.8298,-3.7493,-3.6682,-3.5832,-3.5209,-3.5209,-3.5209,-3.5209,-3.5209,-3.5209,-3.5209,-3.5209,-3.5812,-3.6347,-3.6481,-3.7082,-3.7599,-3.7879,-3.8489,-3.828,-3.6692,-3.71,-3.6805,-3.5059,-3.4917,-3.4908,-3.4908,-3.5674,-3.658,-3.7631,-3.7918,-3.8132,-3.8209,-3.8417,-3.8673,-3.8938,-3.9255,-3.9575,-3.9864,-4.0647,-4.1075,-1.8257,-2.2326,-2.569,-2.334,-2.6389,-2.9848,-2.944,-2.8031,-2.6572,-2.5692,-2.5623,-2.6488,-2.8988,-2.9679,-3.1661,-3.7214,-3.8324,-3.8831,-3.9766,-4.1263,-4.226,0.0,0.0,0.0,0.0,0.0,0.0,0.0,0.0,0.0,0.0,0.0,-4.1109,-4.1109,-4.1109,-4.1109,-4.1109,-4.1109,-4.1109,-4.1109,-4.1104,-4.1101,-4.1101,-4.1103,-4.1091,-4.1103,0.0,-4.1097,-4.1107,-4.1107,-4.1107,-4.1107,-4.1107,-4.1107,-4.1085,-4.103,-4.098,-4.0935,-4.0864,-4.0687,-4.0484,-4.0458,-4.0314,-4.0166,-4.0186,-4.0196,-4.0225,-4.0272,-4.0253,-3.99,-3.8593,-3.7981,-3.7387,-3.6099,-3.5488,-3.5209,-3.5209,-3.5209,-3.5209,-3.5209,-3.5209,-3.5209,-3.5209,-3.5927,-3.6653,-3.7082,-3.7828,-3.8526,-3.8995,-3.8928,-3.8365,-3.7081,-3.6862,-3.6283,-3.5003,-3.4908,-3.516,-3.5728,-3.6166,-3.6906,-3.7979,-3.828,-3.8417,-3.8417,-3.8688,-3.8957,-3.9274,-3.9433,-3.9789,-4.0337,-4.0752,-4.1411,-1.7092,-2.1037,-2.5093,-2.5072,-2.8981,-3.2955,-3.3566,-3.1807,-2.9855,-2.9216,-2.9175,-2.9596,-3.0759,-3.3134,-3.6123,-3.9883,-3.9708,-3.9571,-4.0912,-4.1107,-4.1322,0.0,0.0,0.0,0.0,0.0,0.0,0.0,0.0,0.0,0.0,0.0,-4.1109,-4.1109,-4.1109,-4.1109,-4.1109,-4.1109,-4.1109,-4.1109,-4.1099,-4.1094,-4.1094,-4.1108,-4.1095,-4.1095,-4.1097,-4.1107,-4.1107,-4.1107,-4.1107,-4.1107,-4.1107,-4.1107,-4.1085,-4.1038,-4.0988,-4.0935,-4.0898,-4.0736,-4.054,-4.05,-4.0349,-4.0215,-4.0215,-4.0253,-4.0301,-4.0301,-4.0129,-3.9576,-3.8085,-3.7693,-3.7273,-3.5611,-3.5209,-3.5209,-3.5209,-3.5209,-3.5209,-3.5209,-3.5209,-3.5259,-3.5469,-3.6214,-3.7054,-3.7856,-3.8679,-3.9424,-4.0071,-3.9363,-3.8458,-3.7565,-3.6719,-3.5836,-3.4965,-3.4908,-3.539,-3.6527,-3.6586,-3.7114,-3.8344,-3.8507,-3.8631,-3.8688,-3.8971,-3.9203,-3.9377,-3.952,-3.9846,-4.0325,-4.077,-4.1646,-2.2336,-2.4123,-2.5646,-2.7956,-2.8911,-2.9891,-3.226,-3.0835,-2.9679,-3.205,-3.2601,-3.3209,-3.5006,-3.7537,-3.9201,-3.8753,-3.9941,-4.0951,-4.1088,0.0,0.0,0.0,0.0,0.0,0.0,0.0,0.0,0.0,0.0,0.0,0.0,0.0,0.0,-4.1109,-4.1109,-4.1109,-4.1109,-4.1109,-4.1109,-4.1109,-4.1099,-4.1094,-4.1094,-4.1108,-4.1095,-4.1095,-4.1097,-4.1107,-4.1107,-4.1107,-4.1107,-4.1107,-4.1107,-4.1107,-4.1107,-4.1088,-4.1085,-4.1081,-4.1078,-4.0912,-4.0687,-4.0681,-4.0496,-4.0301,-4.0301,-4.0301,-4.0301,-4.0301,-3.9709,-3.8868,-3.7941,-3.7693,-3.7273,-3.5611,-3.5209,-3.5209,-3.5209,-3.5209,-3.5209,-3.5209,-3.5209,-3.545,-3.6271,-3.7082,-3.7894,-3.8689,-3.9557,-4.009,-4.0027,-3.9304,-3.8448,-3.7505,-3.668,-3.5836,-3.4965,-3.4908,-3.5481,-3.6876,-3.6683,-3.7251,-3.8864,-3.8715,-3.8718,-3.8966,-3.93,-3.9326,-3.9036,-3.9604,-3.9599,-3.9166,-4.0967,-4.1744,-2.0483,-2.3244,-2.6142,-2.7103,-2.9318,-3.1935,-3.4475,-3.5201,-3.546,-3.6022,-3.622,-3.636,-3.6628,-3.8838,-4.0312,-3.9454,-4.0312,-4.1107,-4.1107,0.0,0.0,0.0,0.0,0.0,0.0,0.0,0.0,0.0,0.0,0.0,0.0,0.0,0.0,-4.1109,-4.1109,-4.1109,-4.1109,-4.1109,-4.1106,-4.1099,-4.1107,-4.1098,-4.1091,-4.1109,-4.11,-4.11,-4.1091,-4.1107,-4.1107,-4.1107,-4.1107,-4.1107,-4.1107,-4.1107,-4.1107,-4.1107,-4.1107,-4.1078,-4.0912,-4.0776,-4.0668,-4.0516,-4.0389,-4.0301,-4.0301,-4.0301,-4.0186,-3.9632,-3.926,-3.8801,-3.7922,-3.733,-3.6661,-3.5477,-3.5209,-3.5209,-3.5209,-3.5209,-3.5209,-3.5209,-3.5641,-3.6118,-3.6443,-3.7617,-3.8592,-3.8851,-3.9614,-4.0098,-4.0007,-3.8798,-3.78,-3.7438,-3.6196,-3.5249,-3.4927,-3.4908,-3.5264,-3.6137,-3.6575,-3.7237,-3.8214,-3.884,-3.8952,-3.8515,-3.9329,-3.9682,-3.9568,-3.9792,-4.021,-4.0814,-4.1353,-4.2091,-2.1166,-2.3738,-2.6931,-2.7472,-3.0159,-3.3368,-3.5927,-3.725,-3.8112,-3.8736,-3.8565,-3.8248,-3.8059,-3.926,-4.0175,-3.9844,-4.0526,-4.1107,0.0,0.0,0.0,0.0,0.0,0.0,0.0,0.0,0.0,0.0,0.0,0.0,0.0,0.0,0.0,0.0,-4.1109,-4.1109,-4.1109,-4.1109,-4.1103,-4.1107,-4.1098,-4.1108,-4.1095,-4.1097,-4.1107,-4.1107,-4.1107,-4.1107,-4.1107,-4.1107,-4.1107,-4.1107,-4.1107,-4.1107,-4.1107,-4.1107,-4.1075,-4.1,-4.0828,-4.0706,-4.0621,-4.043,-4.0337,-4.0301,-4.0301,-4.0301,-4.011,-3.926,-3.8801,-3.84,-3.754,-3.6901,-3.6271,-3.5411,-3.5209,-3.5209,-3.5209,-3.5209,-3.5209,-3.5209,-3.5679,-3.6252,-3.6787,-3.7827,-3.8745,-3.9233,-3.9766,-4.0067,-4.0007,-3.8474,-3.7211,-3.667,-3.5571,-3.4908,-3.4908,-3.4908,-3.5162,-3.5827,-3.6418,-3.6993,-3.7534,-3.8802,-3.9144,-3.838,-3.9369,-3.9867,-3.977,-3.9867,-4.0363,-4.1246,-4.1349,-4.2054,-2.5723,-2.6352,-2.8103,-2.9765,-3.1484,-3.3425,-3.5946,-3.5851,-3.6241,-3.9773,-3.934,-3.8637,-3.9614,-3.9101,-3.8792,-3.9669,-4.0526,0.0,0.0,0.0,0.0,0.0,0.0,0.0,0.0,0.0,0.0,0.0,0.0,0.0,0.0,0.0,0.0,0.0,-4.1109,-4.1109,-4.1109,-4.1109,-4.1099,-4.1093,-4.1093,-4.1108,-4.1095,-4.1097,-4.1107,-4.1107,-4.1107,-4.1107,-4.1107,-4.1107,-4.1107,-4.1107,-4.1107,-4.1107,-4.1107,-4.1107,-4.1023,-4.0907,-4.0907,-4.0718,-4.0496,-4.0496,-4.0405,-4.0301,-4.0282,-4.0282,-4.0091,-3.9221,-3.8343,-3.7502,-3.6691,-3.6481,-3.6271,-3.5411,-3.5209,-3.5209,-3.5209,-3.5209,-3.5209,-3.5209,-3.5209,-3.5744,-3.7406,-3.7712,-3.8286,-3.9958,-4.0147,-4.0048,-3.9969,-3.8455,-3.6746,-3.5078,-3.4908,-3.4908,-3.4908,-3.4908,-3.5268,-3.613,-3.6206,-3.6436,-3.6974,-3.8601,-3.9239,-3.8709,-3.9494,-3.977,-3.9495,-3.977,-3.9871,-3.9843,-4.0914,-4.1505,-2.2274,-2.4576,-2.7816,-2.8313,-3.2821,-3.733,-3.8094,-3.8056,-3.8376,-4.0138,-4.0223,-3.991,-3.9706,-3.9956,0.0,-3.9835,0.0,0.0,0.0,0.0,0.0,0.0,0.0,0.0,0.0,0.0,0.0,0.0,0.0,0.0,0.0,0.0,0.0,0.0,-4.1109,-4.1109,-4.1109,-4.1103,-4.1092,-4.1093,-4.1106,-4.1092,-4.1097,-4.1091,-4.1107,-4.1107,-4.1107,-4.1107,-4.1107,-4.1107,-4.1107,-4.1107,-4.1107,-4.1107,-4.1107,-4.1107,-4.1075,-4.1003,-4.0828,-4.0706,-4.0602,-4.0422,-4.0337,-4.0186,-3.9565,-3.9393,-3.9088,-3.7646,-3.7054,-3.6653,-3.5812,-3.5583,-3.5526,-3.5267,-3.5209,-3.5209,-3.5209,-3.5209,-3.5209,-3.5209,-3.6146,-3.712,-3.7617,-3.8725,-3.9662,-4.007,-3.9594,-3.8736,-3.7488,-3.688,-3.6121,-3.5022,-3.4908,-3.4908,-3.4908,-3.4908,-3.5003,-3.5268,-3.5855,-3.6527,-3.7259,-3.8356,-3.8861,-3.8709,-3.9494,-3.9867,-3.9781,-3.9867,-4.0375,-4.1278,-4.1349,-4.1928,-2.5842,-2.8351,-3.1439,-3.2451,-3.5373,-3.8257,-3.9298,-3.9527,-3.9696,-4.0361,-4.0301,-4.0108,-4.0102,-4.0213,0.0,0.0,0.0,0.0,0.0,0.0,0.0,0.0,0.0,0.0,0.0,0.0,0.0,0.0,0.0,0.0,0.0,0.0,0.0,0.0,-4.1109,-4.1108,-4.1103,-4.1097,-4.1105,-4.1106,-4.11,-4.1106,-4.1107,-4.1107,-4.1107,-4.1107,-4.1107,-4.1107,-4.1107,-4.1107,-4.1107,-4.1107,-4.1107,-4.1107,-4.1107,-4.1107,-4.1034,-4.0921,-4.0767,-4.0622,-4.0504,-4.0345,-4.0072,-3.9699,-3.9164,-3.8763,-3.8209,-3.6863,-3.65,-3.629,-3.543,-3.5209,-3.5209,-3.5209,-3.5209,-3.5209,-3.5209,-3.5209,-3.5209,-3.5209,-3.6298,-3.733,-3.7636,-3.884,-3.9834,-4.0099,-3.9374,-3.8165,-3.6425,-3.6206,-3.5874,-3.4984,-3.4908,-3.4908,-3.4908,-3.4908,-3.4908,-3.4908,-3.5382,-3.6196,-3.7363,-3.8235,-3.8538,-3.8197,-3.9323,-3.9856,-3.9747,-3.9747,-4.0353,-4.1551,-4.128,-4.1879,-3.2497,-3.4522,-3.6825,-3.9155,-3.8276,-3.7455,-3.9766,-4.0301,-4.0337,-4.046,-3.9842,-3.9625,-4.0668,-4.0115,0.0,0.0,0.0,0.0,0.0,0.0,0.0,0.0,0.0,0.0,0.0,0.0,0.0,0.0,0.0,0.0,0.0,0.0,0.0,0.0,-4.1109,-4.1104,-4.1094,-4.1092,-4.11,0.0,-4.1095,-4.1106,-4.1107,-4.1107,-4.1107,-4.1107,-4.1107,-4.1107,-4.1107,-4.1107,-4.1107,-4.1107,-4.1107,-4.1107,-4.1107,-4.1081,-4.0926,-4.0712,-4.0687,-4.0519,-4.0329,-4.0291,-3.9709,-3.8992,-3.8916,-3.8285,-3.7426,-3.6615,-3.6385,-3.6194,-3.5411,-3.5209,-3.5209,-3.5209,-3.5209,-3.5209,-3.5209,-3.5209,-3.5209,-3.5209,-3.5965,-3.6844,-3.757,-3.844,-3.9261,-3.9976,-3.9259,-3.8077,-3.6415,-3.613,-3.578,-3.4984,-3.4908,-3.4908,-3.4908,-3.4908,-3.4908,-3.4908,-3.4908,-3.5571,-3.7116,-3.8083,-3.8273,-3.7637,-3.9123,-3.977,-3.9514,-3.9514,-4.0025,-4.0987,-4.087,-4.1504,-2.4727,-2.9217,-3.4674,-3.5209,-3.7445,-3.9632,-4.0186,-4.0301,-4.032,-4.0337,-4.0193,-4.0168,-4.0518,0.0,0.0,0.0,0.0,0.0,0.0,0.0,0.0,0.0,0.0,0.0,0.0,0.0,0.0,0.0,0.0,0.0,0.0,0.0,0.0,-4.1109,-4.1109,-4.1104,-4.1094,-4.1103,-4.1091,0.0,-4.1103,-4.1094,-4.1107,-4.1107,-4.1107,-4.1107,-4.1107,-4.1107,-4.1107,-4.1107,-4.1107,-4.1107,-4.1107,-4.1107,-4.1081,-4.0984,-4.0912,-4.0828,-4.0628,-4.0504,-4.0436,-4.0337,-3.9709,-3.8877,-3.819,-3.7406,-3.6576,-3.5717,-3.5469,-3.543,-3.5248,-3.5209,-3.5209,-3.5209,-3.5209,-3.5209,-3.5209,-3.5209,-3.5209,-3.5209,-3.6413,-3.7512,-3.7678,-3.8928,-3.9728,-3.9173,-3.8286,-3.7335,-3.6339,-3.559,-3.5116,-3.4927,-3.4908,-3.4908,-3.4908,-3.4908,-3.4908,-3.4908,-3.4908,-3.5059,-3.542,-3.6879,-3.8205,-3.9332,-3.9711,-3.977,-3.9514,-3.9514,-3.9946,-4.0835,-4.0818,-4.1469,-2.7205,-3.1176,-3.5346,-3.6184,-3.8056,-3.9785,-4.0205,-4.0301,-4.0301,-4.0301,-4.0301,-4.0346,0.0,0.0,0.0,0.0,0.0,0.0,0.0,0.0,0.0,0.0,0.0,0.0,0.0,0.0,0.0,0.0,0.0,0.0,0.0,-4.1109,-4.1109,0.0,-4.1109,-4.1103,-4.1105,-4.1098,-4.1103,-4.1103,-4.1094,-4.1107,-4.1107,-4.1107,-4.1107,-4.1107,-4.1107,-4.1107,-4.1107,-4.1107,-4.1107,-4.1107,-4.1107,-4.1107,-4.1081,-4.0943,-4.0859,-4.0784,-4.0579,-4.046,-4.033,-3.9841,-3.9088,-3.8228,-3.7387,-3.6538,-3.5774,-3.5335,-3.5209,-3.5209,-3.5209,-3.5209,-3.5209,-3.5209,-3.5209,-3.5209,-3.5209,-3.5209,-3.5316,-3.5692,-3.6818,-3.7811,-3.8175,-3.928,-3.9792,-3.8893,-3.7979,-3.7116,-3.6301,-3.5438,-3.4908,-3.4908,-3.4908,-3.4908,-3.4908,-3.4908,-3.4908,-3.4908,-3.4908,-3.5097,-3.5514,-3.6727,-3.7807,-3.8698,-3.9483,-3.967,-3.9203,-3.9203,-3.9675,-4.0509,-4.0474,-4.1214,-3.0662,-3.3595,-3.6065,-3.8238,-3.8782,-3.9011,-3.9881,-4.0072,-4.011,-4.0263,-4.0301,0.0,0.0,0.0,0.0,0.0,0.0,0.0,0.0,0.0,0.0,0.0,0.0,0.0,0.0,0.0,0.0,0.0,0.0,0.0,-4.1108,0.0,-4.1108,-4.1109,-4.1106,-4.1095,-4.1093,-4.1091,-4.1098,-4.1107,-4.1107,-4.1107,-4.1107,-4.1107,-4.1107,-4.1107,-4.1107,-4.1107,-4.1107,-4.1107,-4.1107,-4.1107,-4.1107,-4.1081,-4.1041,-4.0917,-4.0771,-4.0642,-4.0512,-4.0388,-4.0148,-3.9279,-3.8419,-3.754,-3.6729,-3.5889,-3.5209,-3.5209,-3.5209,-3.5209,-3.5209,-3.5209,-3.5209,-3.5209,-3.5209,-3.5209,-3.5209,-3.5316,-3.5605,-3.6268,-3.7203,-3.8128,-3.8889,-3.9561,-3.9737,-3.9012,-3.8045,-3.7173,-3.6491,-3.5533,-3.4965,-3.5116,-3.4984,-3.4965,-3.5116,-3.4984,-3.4908,-3.4908,-3.504,-3.5438,-3.6168,-3.7116,-3.7628,-3.7628,-3.9123,-3.958,-3.8896,-3.9044,-3.9483,-4.0181,-4.0266,-4.1087,-2.3197,-2.742,-3.3008,-3.691,-3.7865,-3.8094,-3.8973,-3.9164,-3.9393,0.0,0.0,0.0,0.0,0.0,0.0,0.0,0.0,0.0,0.0,0.0,0.0,0.0,0.0,0.0,0.0,0.0,0.0,0.0,0.0,0.0,0.0,-4.1101,-4.1099,-4.1109,-4.1092,-4.1098,-4.1093,-4.1103,-4.1109,-4.1107,-4.1107,-4.1107,-4.1107,-4.1107,-4.1107,-4.1107,-4.1107,-4.1107,-4.1107,-4.1107,-4.1107,-4.1107,-4.1107,-4.103,-4.0917,-4.0784,-4.0636,-4.0504,-4.0372,-4.031,-4.0148,-3.9279,-3.8419,-3.754,-3.6729,-3.5889,-3.5209,-3.5209,-3.5209,-3.5209,-3.5209,-3.5209,-3.5209,-3.5209,-3.5209,-3.5209,-3.5209,-3.5749,-3.6268,-3.6373,-3.7624,-3.8915,-3.9703,-3.9878,-3.9873,-3.9748,-3.8395,-3.7363,-3.7249,-3.5874,-3.5192,-3.596,-3.5344,-3.5211,-3.596,-3.5325,-3.4908,-3.4908,-3.5609,-3.6093,-3.6206,-3.7704,-3.8538,-3.8538,-3.9437,-3.958,-3.8896,-3.9604,-4.0004,-4.0139,-4.0818,-4.1566,-2.4803,-2.8755,-3.2913,-3.6214,-3.7024,-3.7254,-3.8075,-3.8266,-3.8514,-3.9393,0.0,0.0,0.0,0.0,0.0,0.0,0.0,0.0,0.0,0.0,0.0,0.0,0.0,0.0,0.0,0.0,0.0,0.0,0.0,0.0,-4.1108,-4.1099,-4.1095,-4.1101,-4.1103,-4.1091,-4.1103,-4.1098,-4.1106,-4.1107,-4.1107,-4.1107,-4.1107,-4.1107,-4.1107,-4.1107,-4.1107,-4.1107,-4.1107,-4.1107,-4.1107,-4.1107,-4.1107,-4.1027,-4.0874,-4.0742,-4.0628,-4.0492,-4.0355,-4.0301,-4.0072,-3.8706,-3.8018,-3.7464,-3.6156,-3.5488,-3.5209,-3.5209,-3.5209,-3.5209,-3.5209,-3.5209,-3.5209,-3.5209,-3.5209,-3.5335,-3.5812,-3.6179,-3.6669,-3.7566,-3.8648,-3.9526,-3.9886,-3.9922,-3.99,-3.99,-3.8471,-3.7401,-3.7401,-3.5931,-3.523,-3.6112,-3.542,-3.5249,-3.613,-3.5401,-3.4908,-3.4908,-3.5249,-3.5685,-3.6187,-3.7344,-3.8197,-3.869,-3.9494,-3.9635,-3.9073,-3.9682,-4.0079,-4.0235,-4.089,-4.1578,-2.571,-2.8627,-3.0924,-3.4345,-3.5365,-3.5861,-3.712,-3.7406,-3.7636,0.0,0.0,0.0,0.0,0.0,0.0,0.0,0.0,0.0,0.0,0.0,0.0,0.0,0.0,0.0,0.0,0.0,0.0,0.0,0.0,0.0,-4.1044,-4.1087,-4.1109,-4.1109,-4.1093,-4.1103,-4.11,-4.1098,-4.1109,-4.1097,-4.1091,-4.1107,-4.1107,-4.1107,-4.1107,-4.1107,-4.1107,-4.1107,-4.1107,-4.1107,-4.1107,-4.1107,-4.1071,-4.0975,-4.0833,-4.0694,-4.0552,-4.0427,-4.0337,-4.0301,-4.0014,-3.8266,-3.7693,-3.7387,-3.5706,-3.5209,-3.5209,-3.5209,-3.5209,-3.5248,-3.5469,-3.5526,-3.5583,-3.5802,-3.6012,-3.6271,-3.6712,-3.6906,-3.7433,-3.8839,-3.9545,-3.99,-3.99,-3.99,-3.99,-3.99,-3.866,-3.7647,-3.7438,-3.6121,-3.5476,-3.613,-3.542,-3.5249,-3.613,-3.5401,-3.4908,-3.4908,-3.5116,-3.5609,-3.6472,-3.7287,-3.814,-3.8993,-3.9556,-3.9611,-3.9105,-3.9841,-4.0195,-4.0218,-4.103,-4.1716,-2.1667,-2.2933,-2.4416,-3.0223,-3.2298,-3.3546,-3.5995,-3.6557,-3.6787,0.0,0.0,0.0,0.0,0.0,0.0,0.0,0.0,0.0,0.0,0.0,0.0,0.0,0.0,0.0,0.0,0.0,0.0,0.0,0.0,0.0,-4.0906,-4.1028,-4.1093,-4.1093,-4.1109,-4.1106,-4.1093,-4.11,-4.1095,-4.1095,-4.1097,-4.1107,-4.1107,-4.1107,-4.1107,-4.1107,-4.1107,-4.1107,-4.1107,-4.1107,-4.1107,-4.1081,-4.0967,-4.0833,-4.0694,-4.0564,-4.043,-4.032,-4.031,-4.0301,-4.0014,-3.8266,-3.7693,-3.7387,-3.5706,-3.5209,-3.5209,-3.5209,-3.5209,-3.5392,-3.6214,-3.6424,-3.6615,-3.7387,-3.8209,-3.8592,-3.7821,-3.8185,-3.8936,-3.9779,-3.9924,-3.99,-3.99,-3.99,-3.99,-3.99,-3.9172,-3.8329,-3.7514,-3.6661,-3.6149,-3.6206,-3.542,-3.5249,-3.613,-3.5401,-3.4908,-3.4908,-3.5685,-3.6491,-3.7306,-3.8178,-3.9001,-3.9824,-3.9743,-3.9427,-3.881,-4.0305,-4.0642,-3.9969,-4.1522,-4.2272,-1.9406,-2.1692,-2.4233,-2.8017,-3.0433,-3.226,-3.3737,-3.4887,-3.5908,0.0,0.0,0.0,0.0,0.0,0.0,0.0,0.0,0.0,0.0,0.0,0.0,0.0,0.0,0.0,0.0,0.0,0.0,0.0,0.0,0.0,-4.0894,-4.1036,-4.1103,-4.1103,-4.1092,-4.1095,-4.1093,-4.1103,-4.1095,-4.1095,-4.1097,-4.1107,-4.1107,-4.1107,-4.1107,-4.1107,-4.1107,-4.1107,-4.1107,-4.1107,-4.1107,-4.1081,-4.0943,-4.0823,-4.0681,-4.0557,-4.0422,-4.0301,-4.0301,-3.9919,-3.9279,-3.8075,-3.7349,-3.671,-3.5553,-3.5209,-3.5209,-3.5209,-3.5602,-3.6099,-3.6424,-3.6882,-3.7483,-3.8323,-3.9557,-4.0444,-4.0139,-4.0261,-4.0627,-4.1396,-4.1533,-4.1491,-4.1491,-4.1491,-4.1321,-4.0809,-4.0014,-3.9172,-3.8348,-3.704,-3.6396,-3.6927,-3.5723,-3.5249,-3.613,-3.5401,-3.5135,-3.5704,-3.6036,-3.6813,-3.8178,-3.8538,-3.9077,-3.9881,-3.9781,-3.9727,-3.9764,-4.0572,-4.0955,-4.0953,-4.187,-4.2308,-1.7144,-1.9558,-2.2566,-2.625,-2.801,-2.967,-3.2824,-3.3745,-3.4323,0.0,0.0,0.0,0.0,0.0,0.0,0.0,0.0,0.0,0.0,0.0,0.0,0.0,0.0,0.0,0.0,0.0,0.0,0.0,0.0,0.0,-4.0825,-4.0997,-4.1103,-4.1103,-4.1103,-4.1106,-4.1093,-4.1103,-4.1095,-4.1095,-4.1097,-4.1107,-4.1107,-4.1107,-4.1107,-4.1107,-4.1107,-4.1107,-4.1107,-4.1107,-4.1107,-4.1081,-4.0907,-4.079,-4.0675,-4.0508,-4.0381,-4.0263,-3.9957,-3.9489,-3.882,-3.7674,-3.712,-3.6729,-3.5889,-3.5821,-3.605,-3.605,-3.647,-3.6958,-3.7264,-3.8151,-3.926,-4.0406,-4.1484,-4.2321,-4.2586,-4.2153,-4.1841,-4.2344,-4.2424,-4.2401,-4.2401,-4.2401,-4.2117,-4.1321,-4.0715,-3.9949,-3.8841,-3.7476,-3.6699,-3.6965,-3.5742,-3.5135,-3.5704,-3.5495,-3.5571,-3.6168,-3.6453,-3.723,-3.8633,-3.869,-3.9077,-3.9881,-3.991,-4.013,-4.057,-4.0785,-4.1067,-4.1366,-4.2014,-4.2308,0.0,0.0,0.0,-2.4575,-2.4867,-2.5685,-3.3141,0.0,-3.1954,0.0,0.0,0.0,0.0,0.0,0.0,0.0,0.0,0.0,0.0,0.0,0.0,0.0,0.0,0.0,0.0,0.0,0.0,0.0,0.0,-4.0699,-4.07,-4.0945,-4.1093,-4.1093,-4.1093,-4.1093,-4.1093,-4.1103,-4.1095,-4.1095,-4.1097,-4.1107,-4.1107,-4.1107,-4.1107,-4.1107,-4.1107,-4.1107,-4.1107,-4.1107,-4.1107,-4.1071,-4.0773,-4.0674,-4.0655,-4.0368,-4.0263,-4.0129,-3.9298,-3.8973,-3.8686,-3.7054,-3.7063,-3.754,-3.6767,-3.7082,-3.7693,-3.7693,-3.7712,-3.7941,-3.8839,-4.031,-4.1972,-4.3605,-4.3984,-4.4149,-4.4924,-4.3764,-4.2579,-4.2579,-4.2523,-4.2458,-4.2458,-4.2439,-4.2155,-4.1359,-4.1219,-4.0593,-3.8955,-3.795,-3.7097,-3.632,-3.542,-3.4908,-3.4946,-3.5704,-3.6225,-3.6282,-3.7021,-3.7837,-3.8709,-3.8746,-3.9115,-3.9908,-4.0156,-4.057,-4.1125,-4.0983,-4.0997,-4.1145,-4.193,-4.2308,-1.4224,0.0,0.0,0.0,0.0,0.0,0.0,0.0,0.0,0.0,0.0,0.0,0.0,0.0,0.0,0.0,0.0,0.0,0.0,0.0,0.0,0.0,0.0,0.0,0.0,0.0,0.0,0.0,-4.0468,-4.0602,-4.0694,-4.0953,-4.1111,-4.1107,-4.1098,-4.1098,-4.1107,-4.1108,-4.1095,-4.1095,-4.1097,-4.1107,-4.1107,-4.1107,-4.1107,-4.1107,-4.1107,-4.1107,-4.1107,-4.1107,-4.1038,-4.0876,-4.0073,-4.0082,-4.0457,-3.9655,-3.9355,-3.9336,-3.9088,-3.8591,-3.798,-3.7521,-3.7521,-3.7655,-3.7445,-3.7521,-3.7693,-3.7693,-3.8151,-3.8973,-4.0425,-4.2049,-4.3404,-4.3821,-4.4358,-4.4828,-4.4988,-4.4607,-4.4237,-4.4237,-4.4225,-4.4213,-4.4213,-4.3739,-4.3057,-4.2192,-4.1567,-4.079,-3.9711,-3.83,-3.7306,-3.7097,-3.5761,-3.5154,-3.578,-3.6074,-3.6718,-3.7931,-3.8216,-3.8709,-3.9521,-3.9559,-3.9808,-4.0328,-4.0303,-4.0714,-4.152,-4.1397,-4.1554,-4.1966,-4.2218,-4.2308,-1.4573,-1.5902,-1.7679,-1.8251,0.0,0.0,-2.4815,-2.5672,0.0,0.0,0.0,0.0,0.0,0.0,0.0,0.0,0.0,0.0,0.0,0.0,0.0,0.0,0.0,0.0,0.0,0.0,0.0,0.0,-4.0427,-4.0588,-4.0759,-4.097,-4.1103,-4.1099,-4.1103,-4.1098,-4.1105,-4.11,-4.1106,-4.1106,-4.1094,-4.1107,-4.1107,-4.1107,-4.1107,-4.1107,-4.1107,-4.086,-4.0466,-4.0466,-4.0439,-4.0242,-3.9191,-3.9043,-3.9346,-3.868,-3.8686,-3.8954,-3.8572,-3.8362,-3.8171,-3.7827,-3.7941,-3.8247,-3.8247,-3.8495,-3.8782,-3.8782,-3.9393,-4.0425,-4.2106,-4.3251,-4.4041,-4.4372,-4.4763,-4.5057,-4.5022,-4.4943,-4.4895,-4.4895,-4.4895,-4.4781,-4.4459,-4.4004,-4.3284,-4.2079,-4.1491,-4.0753,-3.9551,-3.8224,-3.7268,-3.6946,-3.5704,-3.5116,-3.5609,-3.6301,-3.7116,-3.8102,-3.8812,-3.9418,-3.9881,-3.99,-4.0148,-4.0703,-4.0654,-4.1071,-4.195,-4.1645,-4.1779,-4.2308,-4.2308,-4.2308,-1.5819,-1.6674,-1.8339,-2.0262,-1.9292,0.0,-2.6829,-2.6867,-2.7205,0.0,0.0,0.0,0.0,0.0,0.0,0.0,0.0,0.0,0.0,0.0,0.0,0.0,0.0,0.0,0.0,0.0,-4.0301,-4.0298,-4.0433,-4.063,-4.0866,-4.1011,-4.1095,-4.1106,-4.1105,-4.1091,-4.1091,-4.1103,-4.1107,-4.1107,-4.1107,-4.1107,-4.1107,-4.1107,-4.1107,-4.1107,-4.1107,-4.0586,-3.9736,-3.961,-3.9504,-3.9301,-3.8305,-3.795,-3.8016,-3.7895,-3.8323,-3.8897,-3.8113,-3.8343,-3.8877,-3.8094,-3.8438,-3.9145,-3.9145,-3.9699,-4.032,-4.0416,-4.1074,-4.2125,-4.3595,-4.4022,-4.4247,-4.5009,-4.5091,-4.501,-4.4979,-4.4931,-4.4895,-4.4895,-4.4895,-4.4649,-4.3834,-4.3625,-4.3019,-4.1435,-4.1113,-4.0498,-3.8898,-3.795,-3.7097,-3.6301,-3.542,-3.4984,-3.5154,-3.6538,-3.7476,-3.7675,-3.9066,-3.99,-3.99,-3.9995,-4.0363,-4.1072,-4.1226,-4.1647,-4.2308,-4.1814,-4.1832,-4.2308,-4.2308,-4.2308,-1.8863,-1.8829,-1.9244,-1.7672,-1.8458,0.0,-1.8276,-1.8696,-2.027,0.0,0.0,0.0,0.0,0.0,0.0,0.0,0.0,0.0,0.0,0.0,0.0,0.0,0.0,0.0,0.0,0.0,-4.031,-4.0301,-4.0527,-4.0674,-4.0738,-4.0976,-4.1111,-4.11,-4.1108,-4.11,-4.11,-4.11,-4.1107,-4.1107,-4.1107,-4.1107,-4.1107,-4.1107,-4.1107,-4.1107,-4.1107,-4.0933,-4.0577,-3.9779,-3.8966,-3.8202,-3.7986,-3.8258,-3.8778,-3.8753,-3.8858,-3.8973,-3.882,-3.8858,-3.8973,-3.8801,-3.9336,-4.0053,-4.0053,-4.0167,-4.0435,-4.1074,-4.2354,-4.3576,-4.3859,-4.4429,-4.496,-4.5011,-4.5014,-4.4998,-4.4919,-4.4907,-4.4895,-4.4895,-4.4895,-4.4649,-4.3834,-4.3133,-4.2306,-4.134,-4.0601,-3.9786,-3.8822,-3.795,-3.7097,-3.6301,-3.542,-3.5457,-3.6803,-3.7211,-3.7978,-3.9332,-3.9711,-3.99,-3.99,-4.0563,-4.1175,-4.1633,-4.229,-4.252,-4.2308,-4.2188,-4.2188,-4.2308,-4.2308,-4.2308,-2.0389,-1.9769,-1.9902,-1.9057,-1.9172,0.0,0.0,-1.8843,-1.9931,-2.3747,0.0,0.0,0.0,0.0,0.0,0.0,0.0,0.0,0.0,0.0,0.0,0.0,0.0,0.0,0.0,0.0,-4.0328,-4.0388,-4.0589,-4.0732,-4.0805,-4.099,-4.1108,-4.1093,-4.1103,-4.0881,-4.0454,-4.0457,-4.0448,-4.0448,-4.0448,-4.0679,-4.1107,-4.1107,-4.1107,-4.1107,-4.103,-4.0673,-4.0109,-3.9541,-3.8717,-3.7797,-3.7797,-3.8027,-3.8343,-3.8343,-3.8629,-3.9011,-3.9011,-3.9279,-3.9661,-3.9661,-3.9938,-4.0301,-4.0301,-4.0578,-4.117,-4.2412,-4.3318,-4.4031,-4.4448,-4.4824,-4.5091,-4.5022,-4.4967,-4.4931,-4.4907,-4.4895,-4.4895,-4.4895,-4.4895,-4.4516,-4.3265,-4.2685,-4.1984,-4.0734,-4.0184,-3.9445,-3.8216,-3.7666,-3.6927,-3.5685,-3.5154,-3.523,-3.6083,-3.6538,-3.7334,-3.8565,-3.9058,-3.9475,-3.9881,-4.0734,-4.1481,-4.2084,-4.2661,-4.2749,-4.2308,-4.2308,-4.2308,-4.2308,-4.2308,-4.2093,-2.2334,-2.1424,-2.1521,-2.1421,-2.0638,-2.0079,0.0,0.0,0.0,0.0,0.0,0.0,0.0,0.0,0.0,0.0,0.0,0.0,0.0,0.0,0.0,0.0,0.0,0.0,0.0,0.0,-3.9112,-4.0375,-3.956,-3.9553,-4.0795,-4.1,-4.1028,-4.0852,-4.0844,-4.0429,-3.9552,-3.9558,-3.9552,-3.9552,-3.9552,-4.0019,-4.0854,-4.0854,-4.0926,-4.1064,-4.0939,-4.0416,-3.9599,-3.949,-3.8953,-3.8171,-3.8018,-3.7941,-3.796,-3.8132,-3.8648,-3.926,-3.926,-3.9709,-4.0301,-4.0301,-4.0396,-4.053,-4.053,-4.1208,-4.2259,-4.3595,-4.405,-4.4304,-4.4998,-4.5091,-4.501,-4.4979,-4.4931,-4.4895,-4.4895,-4.4895,-4.4895,-4.4895,-4.4895,-4.4364,-4.2685,-4.2401,-4.1832,-4.0146,-3.99,-3.9294,-3.7618,-3.7401,-3.6746,-3.5078,-3.4908,-3.4965,-3.5135,-3.5931,-3.6775,-3.7609,-3.8462,-3.9264,-4.0012,-4.0986,-4.1825,-4.2527,-4.2813,-4.2729,-4.2308,-4.2308,-4.2308,-4.2308,-4.2147,-4.1716,-2.6988,-2.6206,-2.5888,-2.2295,-2.2376,-2.2046,-1.7079,0.0,-1.7637,-1.672,0.0,0.0,0.0,0.0,0.0,0.0,0.0,0.0,0.0,0.0,0.0,0.0,0.0,0.0,0.0,0.0,0.0,-3.9918,-3.5707,-3.5195,-4.0434,-4.0956,-4.0743,-3.9964,-3.9944,-3.9535,-3.8658,-3.8656,-3.8656,-3.8656,-3.8656,-3.9104,-3.9941,-3.9941,-4.0294,-4.0921,-4.0912,-4.069,-4.0365,-4.0369,-4.0219,-3.9919,-3.9145,-3.8858,-3.8954,-3.9709,-4.0072,-4.0148,-4.0148,-4.0225,-4.0301,-4.0301,-4.0788,-4.1361,-4.1361,-4.2469,-4.3748,-4.3868,-4.4467,-4.5055,-4.5019,-4.5003,-4.4998,-4.4938,-4.4914,-4.4895,-4.4895,-4.4895,-4.4895,-4.4895,-4.4895,-4.4364,-4.2685,-4.2401,-4.1832,-4.0146,-3.99,-3.9294,-3.7618,-3.7401,-3.6746,-3.5078,-3.4908,-3.5211,-3.5998,-3.6813,-3.7628,-3.85,-3.9304,-4.0027,-4.0597,-4.1848,-4.2683,-4.3013,-4.3051,-4.2827,-4.2308,-4.2308,-4.2308,-4.229,-4.1573,-4.1199,-2.6753,-2.6963,-2.7357,-2.3135,-2.3389,-2.3236,-1.779,-1.6338,-1.609,0.0,0.0,0.0,0.0,0.0,0.0,0.0,0.0,0.0,0.0,0.0,0.0,0.0,0.0,0.0,0.0,0.0,0.0,0.0,0.0,-3.4996,-4.0513,-4.0992,-4.0932,-4.0565,-4.0058,-3.9376,-3.8519,-3.7993,-3.7759,-3.7759,-3.7759,-3.8207,-3.9062,-3.9489,-3.9855,-4.016,-4.0517,-4.0595,-4.0489,-4.0422,-4.0345,-4.0263,-3.99,-3.9747,-3.9804,-4.0167,-4.0301,-4.0301,-4.0301,-4.0301,-4.0377,-4.0845,-4.1227,-4.1686,-4.266,-4.3413,-4.405,-4.4524,-4.4851,-4.508,-4.5003,-4.4967,-4.4931,-4.4907,-4.4895,-4.4895,-4.4895,-4.4895,-4.4895,-4.4895,-4.4516,-4.3815,-4.2609,-4.2401,-4.1832,-4.0146,-3.99,-3.9483,-3.831,-3.7704,-3.6946,-3.578,-3.5192,-3.504,-3.5401,-3.5761,-3.6519,-3.7856,-3.9464,-4.0904,-4.2098,-4.2325,-4.2665,-4.3195,-4.2958,-4.2689,-4.2425,-4.1882,-4.1591,-4.1591,-4.1252,-4.0628,-2.7948,-2.8197,-2.8293,-2.2925,-2.2701,0.0,0.0,0.0,0.0,0.0,0.0,0.0,0.0,0.0,0.0,0.0,0.0,0.0,0.0,0.0,0.0,0.0,0.0,0.0,0.0,0.0,0.0,0.0,0.0,0.0,-4.0475,-4.0975,-4.0951,-4.0757,-4.0136,-3.9279,-3.8149,-3.7525,-3.7077,-3.6844,-3.6844,-3.7419,-3.8468,-3.8991,-3.9457,-3.9874,-4.0304,-4.0484,-4.0427,-4.0346,-4.0301,-4.0301,-4.0301,-4.0301,-4.0301,-4.0301,-4.0301,-4.0301,-4.0301,-4.0435,-4.0731,-4.1304,-4.18,-4.2412,-4.3624,-4.4281,-4.4688,-4.5066,-4.5274,-4.5318,-4.5036,-4.4931,-4.4895,-4.4895,-4.4895,-4.4895,-4.4895,-4.4895,-4.4895,-4.4895,-4.4421,-4.3758,-4.2905,-4.2393,-4.1567,-4.0127,-3.99,-3.9597,-3.8803,-3.795,-3.7097,-3.6301,-3.542,-3.5003,-3.523,-3.5457,-3.6405,-3.8319,-3.9971,-4.1538,-4.2988,-4.2631,-4.263,-4.3105,-4.2786,-4.2548,-4.2445,-4.1542,-4.0985,-4.077,-4.0556,-3.9878,0.0,0.0,0.0,-2.1086,0.0,0.0,0.0,0.0,-1.8096,0.0,0.0,0.0,0.0,0.0,0.0,0.0,0.0,0.0,0.0,0.0,0.0,0.0,0.0,0.0,0.0,0.0,0.0,0.0,0.0,0.0,-4.012,-4.0833,-4.0582,-3.986,-3.9805,-3.8987,-3.7253,-3.7214,-3.6785,-3.5947,-3.5947,-3.6768,-3.83,-3.8339,-3.9116,-4.0473,-4.0477,-4.0438,-4.031,-4.031,-4.0301,-4.0301,-4.0301,-4.0301,-4.0301,-4.0301,-4.0301,-4.0301,-4.0301,-4.0807,-4.1457,-4.1495,-4.2603,-4.393,-4.3987,-4.5133,-4.6219,-4.5346,-4.5712,-4.6126,-4.5159,-4.4895,-4.4895,-4.4895,-4.4895,-4.4895,-4.4895,-4.4895,-4.4895,-4.4895,-4.4876,-4.4611,-4.3796,-4.2318,-4.0923,-4.0033,-3.99,-3.9597,-3.8803,-3.795,-3.7097,-3.6301,-3.542,-3.523,-3.6093,-3.687,-3.8395,-4.0923,-4.1271,-4.1787,-4.2689,-4.2828,-4.2788,-4.2629,-4.2609,-4.251,-4.2308,-4.1484,-4.0699,-3.9912,-3.9218,-3.8861,0.0,0.0,-3.5793,-2.6249,0.0,0.0,0.0,0.0,0.0,0.0,0.0,0.0,0.0,0.0,0.0,0.0,0.0,0.0,0.0,0.0,0.0,0.0,0.0,0.0,0.0,0.0,0.0,0.0,0.0,0.0,0.0,-4.0504,-4.0835,-4.0679,-4.0097,-3.924,-3.8071,-3.7487,-3.6725,-3.576,-3.634,-3.6874,-3.7334,-3.8414,-3.9171,-3.9665,-4.0147,-4.0346,-4.0301,-4.0301,-4.0301,-4.0301,-4.0301,-4.0301,-4.0301,-4.0301,-4.0301,-4.0377,-4.0903,-4.1648,-4.2545,-4.3654,-4.4017,-4.4312,-4.5993,-4.6506,-4.6549,-4.6752,-4.6587,-4.625,-4.591,-4.5368,-4.4895,-4.4895,-4.4895,-4.4895,-4.4895,-4.4895,-4.4895,-4.4895,-4.4478,-4.4023,-4.3758,-4.2754,-4.17,-4.0885,-4.0279,-3.9597,-3.8803,-3.795,-3.7097,-3.6301,-3.542,-3.5162,-3.5819,-3.7664,-3.9604,-4.1531,-4.2039,-4.2529,-4.3133,-4.2996,-4.2843,-4.2745,-4.2649,-4.228,-4.164,-4.0739,-3.9912,-3.9146,-3.8362,-3.8005,-3.7841,-3.8973,0.0,-2.9898,-2.9211,0.0,-2.0079,0.0,-2.1473,0.0,0.0,0.0,0.0,0.0,0.0,0.0,0.0,0.0,0.0,-1.1121,0.0,0.0,0.0,0.0,0.0,0.0,0.0,0.0,0.0,0.0,0.0,0.0,-4.0572,-4.1011,-4.0533,-3.9676,-3.8449,-3.7864,-3.7082,-3.6106,-3.6668,-3.7188,-3.7681,-3.8729,-3.9346,-3.9627,-4.0089,-4.0301,-4.0301,-4.0301,-4.0301,-4.0301,-4.0301,-4.0473,-4.0692,-4.0416,-4.0683,-4.1361,-4.245,-4.3405,-4.4284,-4.5373,-4.5564,-4.5649,-4.7292,-4.7613,-4.74,-4.7289,-4.7029,-4.6623,-4.601,-4.5361,-4.4895,-4.4895,-4.4895,-4.4895,-4.4895,-4.4895,-4.4895,-4.4895,-4.4478,-4.4137,-4.4137,-4.3417,-4.2488,-4.1359,-4.0715,-4.0052,-3.9229,-3.8111,-3.7211,-3.668,-3.5767,-3.5639,-3.677,-3.8913,-4.0758,-4.209,-4.2396,-4.2779,-4.3353,-4.305,-4.293,-4.3062,-4.2464,-4.1972,-4.1658,-4.0221,-3.9253,-3.879,-3.7969,-3.7595]},{"header":{"parameterUnit":"m.s-1","parameterCategory":1,"la1":30.6,"la2":29.2853,"lo1":-89.7004,"lo2":-87.6739,"dx":0.0162,"dy":0.0183,"nx":112,"ny":82,"refTime":"2022-12-05T06:00:00:Z","depth":0,"parameterNumber":3,"parameterNumberName":"V-component_of_WINDS"},"data":[0.0,0.0,0.0,0.0,0.0,0.0,0.0,0.0,0.0,0.0,0.0,0.0,0.0,0.0,0.0,0.0,0.0,0.0,0.0,0.0,0.0,0.0,0.0,0.0,0.0,0.0,0.0,0.0,0.0,0.0,0.0,0.0,0.0,0.0,0.0,0.0,0.0,0.0,0.0,0.0,0.0,0.0,0.0,0.0,0.0,0.0,0.0,0.0,0.0,0.0,0.0,0.0,0.0,0.0,0.0,0.0,0.0,0.0,0.0,0.0,0.0,0.0,0.0,0.0,0.0,0.0,0.0,0.0,0.0,0.0,0.0,0.0,0.0,0.0,0.0,0.0,0.0,0.0,0.0,0.0,0.0,0.0,0.0,0.0,0.0,0.0,0.0,0.0,0.0,0.0,0.5857,0.54,0.5747,0.6032,0.6032,0.5927,0.5843,0.5826,0.0,0.0,0.0,0.0,0.0,0.0,0.0,0.0,0.0,0.0,0.0,0.0,0.0,0.0,0.0,0.0,0.0,0.0,0.0,0.0,0.0,0.0,0.0,0.0,0.0,0.0,0.0,0.0,0.0,0.0,0.0,0.0,0.0,0.0,0.0,0.0,0.0,0.0,0.0,0.0,0.0,0.0,0.0,0.0,0.0,0.0,0.0,0.0,0.0,0.0,0.0,0.0,0.0,0.0,0.0,0.0,0.0,0.0,0.0,0.0,0.0,0.0,0.0,0.0,0.0,0.0,0.0,0.0,0.0,0.0,0.0,0.0,0.0,0.0,0.0,0.0,0.0,0.0,0.0,0.0,0.0,0.0,0.0,0.0,0.0,0.0,0.0,0.0,0.0,0.0,0.0,0.0,0.0,0.0,0.0,0.0,0.0,0.0,0.0,0.0,0.0,0.0,0.0,0.0,0.541,0.5993,0.6117,0.6173,0.6173,0.615,0.6094,0.5972,0.0,0.0,0.0,0.0,0.0,0.0,0.0,0.0,0.0,0.0,0.0,0.0,0.0,0.0,0.0,0.0,0.0,0.0,0.0,0.0,0.0,0.0,0.0,0.0,0.0,0.0,0.0,0.0,0.0,0.0,0.0,0.0,0.0,0.0,0.0,0.0,0.0,0.0,0.0,0.0,0.0,0.0,0.0,0.0,0.0,0.0,0.0,0.0,0.0,0.0,0.0,0.0,0.0,0.0,0.0,0.0,0.0,0.0,0.0,0.0,0.0,0.0,0.0,0.0,0.0,0.0,0.0,0.0,0.0,0.0,0.0,0.0,0.0,0.0,0.0,0.0,0.0,0.0,0.0,0.0,0.0,0.0,0.0,0.0,0.0,0.0,0.0,0.0,0.0,0.0,0.0,0.0,0.0,0.0,0.0,0.0,0.0,0.0,0.0,0.0,0.0,0.0,0.0,0.5316,0.5429,0.6125,0.6205,0.6205,0.6205,0.6205,0.615,0.6015,0.524,0.0,0.0,0.0,0.0,0.0,0.0,0.0,0.0,0.0,0.0,0.0,0.0,0.0,0.0,0.0,0.0,0.0,0.0,0.0,0.0,0.0,0.0,0.0,0.0,0.0,0.0,0.0,0.0,0.0,0.0,0.0,0.0,0.0,0.0,0.0,0.0,0.0,0.0,0.0,0.0,0.0,0.0,0.0,0.0,0.0,0.0,0.0,0.0,0.0,0.0,0.0,0.0,0.0,0.0,0.0,0.0,0.0,0.0,0.0,0.0,0.0,0.0,0.0,0.0,0.0,0.0,0.0,0.0,0.0,0.0,0.0,0.0,0.0,0.0,0.0,0.0,0.0,0.0,0.0,0.0,0.0,0.0,0.0,0.0,0.0,0.0,0.0,0.0,0.0,0.0,0.0,0.0,0.0,0.0,0.0,0.0,0.0,0.0,0.0,0.0,0.0,0.0,0.5209,0.5694,0.6153,0.6205,0.6205,0.6205,0.6205,0.615,0.6015,0.4998,0.0,0.0,0.0,0.0,0.0,0.0,0.0,0.0,0.0,0.0,0.0,0.0,0.0,0.0,0.0,0.0,0.0,0.0,0.0,0.0,0.0,0.0,0.0,0.0,0.0,0.0,0.0,0.0,0.0,0.0,0.0,0.0,0.0,0.0,0.0,0.0,0.0,0.0,0.0,0.0,0.0,0.0,0.0,0.0,0.0,0.0,0.0,0.0,0.0,0.0,0.0,0.0,0.0,0.0,0.0,0.0,0.0,0.0,0.0,0.0,0.0,0.0,0.0,0.0,0.0,0.0,0.0,0.0,0.0,0.0,0.0,0.0,0.0,0.0,0.0,0.0,0.0,0.0,0.0,0.0,0.0,0.0,0.0,0.0,0.0,0.0,0.0,0.0,0.0,0.0,0.0,0.0,0.0,0.0,0.0,0.0,0.0,0.0,0.0,0.0,0.0,0.0,0.5319,0.6153,0.62,0.6205,0.6205,0.6205,0.6205,0.615,0.6015,0.4828,0.0,0.0,0.0,0.0,0.0,0.0,0.0,0.0,0.0,0.0,0.0,0.0,0.0,0.0,0.0,0.0,0.0,0.0,0.0,0.0,0.0,0.0,0.0,0.0,0.0,0.0,0.0,0.0,0.0,0.0,0.0,0.0,0.0,0.0,0.0,0.0,0.0,0.0,0.0,0.0,0.0,0.0,0.0,0.0,0.0,0.0,0.0,0.0,0.0,0.0,0.0,0.0,0.0,0.0,0.0,0.0,0.0,0.0,0.0,0.0,0.0,0.0,0.0,0.0,0.0,0.0,0.0,0.0,0.0,0.0,0.0,0.0,0.0,0.0,0.0,0.0,0.0,0.0,0.0,0.0,0.0,0.0,0.0,0.0,0.0,0.0,0.0,0.0,0.0,0.0,0.0,0.0,0.0,0.0,0.0,0.0,0.0,0.0,0.0,0.0,0.0,0.0,0.541,0.6401,0.6548,0.6562,0.6562,0.6562,0.6562,0.6389,0.5908,0.0,0.0,0.0,0.0,0.0,0.0,0.0,0.0,0.0,0.0,0.0,0.0,0.0,0.0,0.0,0.0,0.0,0.0,0.0,0.0,0.0,0.0,0.0,0.0,0.0,0.0,0.0,0.0,0.0,0.0,0.0,0.0,0.0,0.0,0.0,0.0,0.0,0.0,0.0,0.0,0.0,0.0,0.0,0.0,0.0,0.0,0.0,0.0,0.0,0.0,0.0,0.0,0.0,0.0,0.0,0.0,0.0,0.0,0.0,0.0,0.0,0.0,0.0,0.0,0.0,0.0,0.0,0.0,0.0,0.0,0.0,0.0,0.0,0.0,0.0,0.0,0.0,0.0,0.0,0.0,0.0,0.0,0.0,0.0,0.0,0.0,0.0,0.0,0.0,0.0,0.0,0.0,0.0,0.0,0.0,0.0,0.0,0.0,0.0,0.0,0.0,0.0,0.44,0.5809,0.6935,0.7131,0.7061,0.7001,0.7001,0.6881,0.6478,0.575,0.0,0.0,0.0,0.0,0.0,0.0,0.0,0.0,0.0,0.0,0.0,0.0,0.0,0.0,0.0,0.0,0.0,0.0,0.0,0.0,0.0,0.0,0.0,0.0,0.0,0.0,0.0,0.0,0.0,0.0,0.0,0.0,0.0,0.0,0.0,0.0,0.0,0.0,0.0,0.0,0.0,0.0,0.0,0.0,0.0,0.0,0.0,0.0,0.0,0.0,0.0,0.0,0.0,0.0,0.0,0.0,0.0,0.0,0.0,0.0,0.0,0.0,0.0,0.0,0.0,0.0,0.0,0.0,0.0,0.0,0.0,0.0,0.0,0.0,0.0,0.0,0.0,0.0,0.0,0.0,0.0,0.0,0.0,0.0,0.0,0.0,0.0,0.0,0.0,0.0,0.0,0.0,0.0,0.0,0.0,0.0,0.0,0.0,0.0,0.0,0.0,0.0,0.4779,0.6571,0.7906,0.7906,0.7603,0.7419,0.7419,0.7036,0.6455,0.0,0.0,0.0,0.0,0.0,0.0,0.0,0.0,0.0,0.0,0.0,0.0,0.0,0.0,0.0,0.0,0.0,0.0,0.0,0.0,0.0,0.0,0.0,0.0,0.0,0.0,0.0,0.0,0.0,0.0,0.0,0.0,0.0,0.0,0.0,0.0,0.0,0.0,0.0,0.0,0.0,0.0,0.0,0.0,0.0,0.0,0.0,0.0,0.0,0.0,0.0,0.0,0.0,0.0,0.0,0.0,0.0,0.0,0.0,0.0,0.0,0.0,0.0,0.0,0.0,0.0,0.0,0.0,0.0,0.0,0.0,0.0,0.0,0.0,0.0,0.0,0.0,0.0,0.0,0.0,0.0,0.0,0.0,0.0,0.0,0.0,0.0,0.0,0.0,0.0,0.0,0.0,0.0,0.0,0.0,0.0,0.0,0.0,0.0,0.0,0.0,0.0,0.0,0.5035,0.7133,0.8585,0.8338,0.8244,0.8175,0.8175,0.8054,0.7381,0.5936,0.0,0.0,0.0,0.0,0.0,0.0,0.0,0.0,0.0,0.0,0.0,0.0,0.0,0.0,0.0,0.0,0.0,0.0,0.0,0.0,0.0,0.0,0.0,0.0,0.0,0.0,0.0,0.0,0.0,0.0,0.0,0.0,0.0,0.0,0.0,0.0,0.0,0.0,0.0,0.0,0.0,0.0,0.0,0.0,0.0,0.0,0.0,0.0,0.0,0.0,0.0,0.0,0.0,0.0,0.0,0.0,0.0,0.0,0.0,0.0,0.0,0.0,0.0,0.0,0.0,0.0,0.0,0.0,0.0,0.0,0.0,0.0,0.0,0.0,0.0,0.0,0.0,0.0,0.0,0.0,0.0,0.0,0.0,0.0,0.0,0.0,0.0,0.0,0.0,0.0,0.0,0.0,0.0,0.0,0.0,0.0,0.0,0.0,0.0,0.0,0.0,0.0,0.5434,0.7639,0.9159,0.9073,0.8947,0.8843,0.8843,0.8837,0.8157,0.6618,0.0,0.0,0.0,0.0,0.0,0.0,0.0,0.0,0.0,0.0,0.0,0.0,0.0,0.0,0.0,0.0,0.0,0.0,0.0,0.0,0.0,0.0,0.0,0.0,0.0,0.0,0.0,0.0,0.0,0.0,0.0,0.0,0.0,0.0,0.0,0.0,0.0,0.0,0.0,0.0,0.0,0.0,0.0,0.0,0.0,0.0,0.0,0.0,0.0,0.0,0.0,0.0,0.0,0.0,0.0,0.0,0.0,0.0,0.0,0.0,0.0,0.0,0.0,0.0,0.0,0.0,0.0,0.0,0.0,0.0,0.0,0.0,0.0,0.0,0.0,0.0,0.0,0.0,0.0,0.0,0.0,0.0,0.0,0.0,0.0,0.0,0.0,0.0,0.0,0.0,0.0,0.0,0.0,0.0,0.0,0.0,0.0,0.0,0.0,0.0,0.0,0.0,0.5927,0.8051,0.9654,0.9913,0.9663,0.9489,0.9489,0.9427,0.8821,0.7527,0.0,0.0,0.0,0.0,0.0,0.0,0.0,0.0,0.0,0.0,0.0,0.0,0.0,0.0,0.0,0.0,0.0,0.0,0.0,0.0,0.0,0.0,0.0,0.0,0.0,0.0,0.0,0.0,0.0,0.0,0.0,0.0,0.0,0.0,0.0,0.0,0.0,0.0,0.0,0.0,0.0,0.0,0.0,0.0,0.0,0.0,0.0,0.0,0.0,0.0,0.0,0.0,0.0,0.0,0.0,0.0,0.0,0.0,0.0,0.0,-0.186,0.0,0.0,0.0,0.0,0.0,0.0,0.0,0.0,0.0,0.0,0.0,0.0,0.0,0.0,0.0,0.0,0.0,0.0,0.0,0.0,0.0,0.0,0.0,0.0,0.0,0.0,0.0,0.0,0.0,0.0,0.0,0.0,0.0,0.0,0.0,0.0,0.0,0.0,0.0,0.0,0.0,0.6187,0.8311,0.9919,1.0184,1.0139,1.0105,1.0105,1.0089,0.9595,0.8469,0.8842,0.0,0.0,0.0,0.0,0.0,0.0,0.0,0.0,0.0,0.0,0.0,0.0,0.0,0.0,0.0,0.0,0.0,0.0,0.0,0.0,0.0,0.0,0.0,0.0,0.0,0.0,0.0,0.0,0.0,0.0,0.0,0.0,0.0,0.0,0.0,0.0,0.0,0.0,0.0,0.0,0.0,0.0,0.0,0.0,0.0,0.0,0.0,0.0,0.0,0.0,0.0,0.0,0.0,0.0,0.0,0.0,0.0,0.0,0.0,0.0,-0.2026,0.0,0.0,0.0,0.0,0.0,0.0,0.0,0.0,0.0,0.0,0.0,0.0,0.0,0.0,0.0,0.0,0.0,0.0,0.0,0.0,0.0,0.0,0.0,0.0,0.0,0.0,0.0,0.0,0.0,0.0,0.0,0.0,0.0,0.0,0.0,0.0,0.0,0.0,0.0,0.0,0.6385,0.8437,1.0051,1.0442,1.0485,1.0485,1.0485,1.0599,1.0328,0.9522,0.9711,0.0,0.0,0.0,0.0,0.0,0.0,0.0,0.0,0.0,0.0,0.0,0.0,0.0,0.0,0.0,0.0,0.0,0.0,0.0,0.0,0.0,0.0,0.0,0.0,0.0,0.0,0.0,0.0,0.0,0.0,0.0,0.0,0.0,0.0,0.0,0.0,0.0,0.0,0.0,0.0,0.0,0.0,0.0,0.0,0.0,0.0,0.0,0.0,0.0,0.0,0.0,0.0,0.0,-0.2219,-0.2423,-0.2486,-0.2757,-0.304,-0.3263,-0.2756,-0.252,-0.2487,0.0,0.0,0.0,0.0,0.0,0.0,0.0,0.0,0.0,0.0,0.0,0.0,0.0,0.0,0.0,0.0,0.0,0.0,0.0,0.0,0.0,0.0,0.0,0.0,0.0,0.4919,0.4857,0.0,0.0,0.0,0.0,0.0,0.0,0.0,0.0,0.0,0.0,0.0,0.0,0.6818,0.8667,1.0178,1.0695,1.0755,1.0755,1.0755,1.0942,1.0858,1.0388,1.0021,1.0311,0.0,0.0,0.0,0.0,0.0,0.0,0.0,0.0,0.0,0.0,0.0,0.0,0.0,0.0,0.0,0.0,0.0,0.0,0.0,0.0,0.0,0.0,0.0,0.0,0.0,0.0,0.0,0.0,0.0,0.0,0.0,0.0,0.1978,0.1599,0.0,0.0,0.0,0.0,0.0,0.0,0.0,0.0,0.0,0.0,0.0,0.0,0.0,0.0447,-0.0412,-0.0986,-0.1693,-0.2582,-0.3237,-0.3572,-0.3584,-0.3622,-0.3686,-0.3723,-0.3507,0.0,-0.2323,-0.2022,0.0,0.0,0.0,0.0,0.0,0.0,0.0,0.0,0.0,0.0,0.0,0.0,0.0,0.0,0.0,0.0,0.0,0.0,0.0,0.0,0.0,0.0,0.7421,0.6348,0.616,0.6002,0.0,0.3847,0.283,0.3122,0.0,0.0,0.0,0.0,0.0,0.0,0.0,0.0,0.8162,0.9456,1.0442,1.1003,1.1057,1.1057,1.1057,1.0882,1.0707,1.0641,1.0609,1.0454,1.0261,0.9592,0.0,0.0,0.0,0.0,0.0,0.0,0.0,0.0,0.0,0.0,0.0,0.0,0.0,0.0,0.0,0.0,0.0,0.0,0.0,0.0,0.0,0.0,0.0,0.0,0.0,0.0,0.0,0.0,0.0,0.2297,0.2087,0.1408,0.1167,0.0962,0.0,0.0,0.0,0.0,0.0,0.0,0.0,0.0,0.0,0.1004,0.1009,0.0635,-0.0171,-0.0467,-0.1065,-0.191,-0.2226,-0.2626,-0.3059,-0.3059,-0.3333,-0.38,-0.3722,-0.3038,-0.189,-0.1687,-0.0951,0.0094,0.0,0.0,0.0,0.0,0.1503,0.2127,0.2312,0.2648,0.0,0.0,0.0,0.0,0.0,0.0,0.0,0.0,0.0,0.0,0.0,0.0,0.0,0.6724,0.6437,0.6075,0.5524,0.4817,0.4244,0.0,0.3941,0.3528,0.215,0.0,0.0,0.0,0.0,0.7446,0.8478,0.973,1.0659,1.1069,1.1111,1.1111,1.1111,1.0833,1.0683,1.0683,1.1006,1.1112,1.0916,1.052,0.9314,0.0,0.0,0.0,0.0,0.0,0.0,0.0,0.0,0.0,0.0,0.0,0.0,0.0,0.0,0.0,0.0,0.0,0.0,0.0,0.0,0.0,0.0,0.0,0.0,0.0,0.0,0.0,0.0,0.2359,0.2057,0.1176,0.1,0.0869,0.0,0.0,0.0,0.0,0.0,0.0,0.0936,0.0938,0.1006,0.1153,0.1157,0.0764,0.0,0.0,-0.0431,-0.1293,-0.1293,-0.1607,-0.2196,-0.2196,-0.2547,-0.3173,-0.3113,-0.2348,-0.1157,-0.1301,-0.0671,0.0443,0.0797,0.1605,0.2487,0.169,0.1981,0.2797,0.2963,0.3024,0.3112,0.3514,0.0,0.4066,0.3685,0.0,0.0,0.0,0.0,0.5345,0.5797,0.6268,0.6634,0.6634,0.6535,0.6239,0.5557,0.5494,0.5357,0.0,0.4982,0.4917,0.3416,0.0,0.0,0.0,0.0,0.7855,0.8894,0.9963,1.0749,1.1075,1.1111,1.1111,1.1111,1.0773,1.0587,1.0587,1.1008,1.1404,1.1715,1.1518,1.1054,1.0332,0.0,0.0,0.0,0.0,0.0,0.0,0.0,0.0,0.0,0.0,0.0,0.0,0.0,0.0,0.0,0.0,0.0,0.0,0.0,0.0,0.0,0.0,0.0,0.0,0.0,0.0,0.0,0.0,0.0,0.1091,0.1046,0.0,0.0,0.0,0.0,0.0886,0.0889,0.0945,0.1093,0.1093,0.1153,0.1284,0.1287,0.0859,0.0,0.0,-0.0431,-0.1293,-0.1293,-0.1332,-0.1371,-0.1371,-0.1371,-0.1409,-0.1299,-0.0708,0.0036,-0.1121,-0.0592,0.0953,0.0974,0.1199,0.1493,0.1627,0.1757,0.1976,0.2797,0.3134,0.3305,0.4025,0.3969,0.38,0.464,0.4163,0.0,0.0,0.5646,0.6252,0.5606,0.6904,0.7959,0.6338,0.6671,0.6994,0.569,0.5702,0.5836,0.0,0.5368,0.5184,0.4515,0.0,0.5427,0.6367,0.6921,0.7938,0.997,1.028,1.0509,1.1057,1.1111,1.1111,1.1111,1.0605,1.0316,1.0316,1.0351,1.0899,1.2017,1.2529,1.245,1.1709,1.2924,0.0,0.0,0.0,0.0,0.0,0.0,0.0,0.0,0.0,0.0,0.0,0.0,0.0,0.0,0.0,0.0,0.0,0.0,0.0,0.0,0.0,0.0,0.0,0.0,0.0,0.0,0.0,0.0,0.1267,0.1125,0.0,0.0909,0.0967,0.1044,0.1044,0.1095,0.1195,0.1228,0.124,0.1262,0.1295,0.1316,0.1166,0.0843,0.0856,0.0698,0.0369,0.0369,0.0082,-0.041,-0.041,-0.0697,-0.123,-0.1179,-0.0634,0.0229,-0.0191,0.0391,0.1582,0.1709,0.1819,0.1934,0.2001,0.2163,0.2445,0.2981,0.3363,0.3658,0.4133,0.4235,0.4233,0.4487,0.4303,0.4184,0.4872,0.5404,0.5816,0.5836,0.6239,0.6498,0.602,0.5918,0.5943,0.6009,0.614,0.6346,0.6645,0.5809,0.4945,0.4559,0.5665,0.659,0.6609,0.7946,0.9259,1.0184,1.0442,1.0719,1.1069,1.1111,1.1111,1.1111,1.0785,1.0545,1.0545,1.0545,1.0616,1.0816,1.1539,1.182,1.1612,1.2571,1.2834,0.0,0.0,0.0,0.0,0.0,0.0,0.0,0.0,0.0,0.0,0.0,0.0,0.0,0.0,0.0,0.0,0.0,0.0,0.0,0.0,0.0,0.0,0.0,0.0,0.0,0.0,0.1885,0.1364,0.1231,0.1123,0.0969,0.1099,0.1172,0.1172,0.126,0.1312,0.1312,0.1282,0.1288,0.1288,0.1307,0.1318,0.1318,0.1296,0.1305,0.1305,0.1305,0.101,0.0504,0.0504,0.021,-0.0336,-0.0336,0.0041,0.0634,0.0747,0.124,0.189,0.2029,0.2138,0.2188,0.2188,0.2435,0.2831,0.334,0.3762,0.414,0.4349,0.4503,0.4553,0.4476,0.4506,0.462,0.4986,0.5372,0.5746,0.5879,0.5981,0.6015,0.5882,0.578,0.5807,0.6143,0.638,0.66,0.6776,0.623,0.5674,0.5502,0.6741,0.7643,0.7295,0.8669,0.9901,1.025,1.0448,1.0689,1.1075,1.1111,1.1111,1.1111,1.0593,1.0364,1.0539,1.0388,1.0293,1.0342,1.0791,1.1073,1.1229,1.1546,1.1768,1.1941,0.0,0.0,0.0,0.0,0.0,0.0,0.0,0.0,0.0,0.0,0.0,0.0,0.0,0.0,0.0,0.0,0.0,0.0,0.0,0.0,0.0,0.0,0.0,0.2326,0.2303,0.2031,0.1371,0.1314,0.1249,0.1128,0.1227,0.1298,0.1299,0.1287,0.1304,0.1304,0.129,0.1305,0.1305,0.1306,0.1307,0.1307,0.1308,0.1309,0.1309,0.1309,0.1309,0.1309,0.1309,0.1309,0.1309,0.1309,0.1292,0.1343,0.1672,0.1787,0.1811,0.1899,0.2037,0.2193,0.2227,0.2537,0.3059,0.386,0.4364,0.469,0.469,0.4692,0.4695,0.469,0.4729,0.4767,0.4948,0.5627,0.6162,0.563,0.6162,0.6698,0.5979,0.6341,0.6662,0.5982,0.6408,0.6651,0.5832,0.6613,0.74,0.7386,0.7972,0.849,0.8495,0.9092,0.0,1.0238,1.031,1.0497,1.1033,1.1087,1.1087,1.1087,1.0124,0.9757,1.0274,0.9802,0.9882,1.0705,1.0423,1.0393,1.0697,1.022,0.9572,0.8777,0.0,0.0,0.0,0.0,0.0,0.0,0.0,0.0,0.0,0.0,0.0,0.0,0.0,0.0,0.0,0.0,0.0,0.0,0.0,0.0,0.0,0.2778,0.2511,0.2391,0.2161,0.1896,0.1571,0.1501,0.1448,0.128,0.1271,0.1299,0.128,0.1289,0.1294,0.1294,0.1302,0.1305,0.1305,0.1368,0.1378,0.1378,0.1356,0.1367,0.1367,0.1367,0.1367,0.1367,0.1367,0.1367,0.1367,0.1367,0.1394,0.1408,0.1611,0.1762,0.182,0.21,0.2228,0.232,0.2639,0.3186,0.3855,0.4354,0.4617,0.469,0.469,0.475,0.4805,0.4901,0.4933,0.5021,0.5186,0.5447,0.5699,0.5522,0.5803,0.6051,0.5835,0.5943,0.6197,0.652,0.677,0.6967,0.7227,0.7521,0.7528,0.6808,0.7251,0.7962,0.8683,0.9357,0.0,1.0509,1.0575,1.0563,1.0515,1.0509,1.0509,1.0509,1.0244,1.0122,1.0206,1.0096,0.9793,0.9288,0.932,0.9881,1.0978,1.1046,1.0942,0.0,0.0,0.0,0.0,0.0,0.0,0.0,0.0,0.0,0.0,0.0,0.0,0.0,0.0,0.0,0.0,0.0,0.0,0.0,0.0,0.0,0.0,0.2707,0.2525,0.2479,0.221,0.201,0.191,0.1714,0.157,0.1482,0.1362,0.1287,0.1304,0.1316,0.1323,0.1323,0.1335,0.1341,0.1341,0.14,0.1409,0.1409,0.1382,0.1391,0.1391,0.1391,0.1391,0.1391,0.1391,0.1391,0.0,0.1391,0.1381,0.1408,0.1744,0.187,0.0,0.0,0.0,0.0,0.0,0.3607,0.4056,0.4619,0.4843,0.4843,0.4843,0.4852,0.4898,0.498,0.5043,0.5121,0.5346,0.5476,0.5588,0.5774,0.5922,0.5993,0.5993,0.5993,0.6141,0.6548,0.6659,0.6747,0.7029,0.0,0.0,0.668,0.717,0.7889,0.87,0.9237,0.9794,1.0449,1.0617,1.0665,1.0623,1.0623,1.0623,1.0623,1.0183,0.0,0.0,0.0,0.9258,0.8518,0.8797,0.0,0.0,0.0,0.0,0.0,0.0,0.0,0.0,0.9485,0.849,0.0,0.0,0.0,0.0,0.0,0.0,0.0,0.0,0.0,0.0,0.0,0.0,0.0,0.0,0.0,0.0,0.2626,0.2542,0.2602,0.2404,0.2271,0.2319,0.196,0.169,0.1726,0.1478,0.1354,0.1315,0.1381,0.1395,0.1395,0.0,0.0,0.0,0.0,0.1391,0.1391,0.1391,0.1391,0.1391,0.1391,0.1391,0.1391,0.1391,0.1391,0.1391,0.1391,0.1436,0.1478,0.1934,0.2131,0.2199,0.2273,0.2412,0.2588,0.3461,0.3841,0.0,0.4742,0.0,0.0,0.5018,0.5018,0.5018,0.5015,0.5015,0.5093,0.5482,0.5598,0.5715,0.6145,0.6261,0.6338,0.6416,0.6454,0.6454,0.6454,0.6454,0.6371,0.6081,0.602,0.6199,0.6748,0.7361,0.7974,0.8547,0.8893,0.9386,1.0125,1.0503,1.0761,1.1003,0.0,0.0,1.1021,1.0003,0.9547,1.0005,0.9171,0.8545,0.8355,0.8833,0.9053,0.8926,0.9661,1.06,1.1716,1.1304,1.1397,1.1948,0.9831,0.8884,0.0,0.0,0.0,0.0,0.0,0.0,0.0,0.0,0.0,0.0,0.0,0.0,0.0,0.0,0.0,0.2915,0.2726,0.2605,0.2666,0.2622,0.2536,0.238,0.2298,0.2108,0.181,0.1727,0.161,0.1416,0.1379,0.1382,0.1382,0.1387,0.1391,0.1391,0.1391,0.1391,0.1391,0.1391,0.1391,0.1391,0.0,0.0,0.1391,0.1391,0.1391,0.1391,0.1391,0.1525,0.1749,0.2055,0.2361,0.2575,0.2547,0.2717,0.3041,0.36,0.3997,0.4345,0.482,0.5018,0.5018,0.5018,0.5018,0.5015,0.5207,0.5243,0.0,0.5521,0.5712,0.5864,0.5941,0.6141,0.6451,0.7103,0.7253,0.7253,0.7253,0.7253,0.7053,0.6374,0.6255,0.6283,0.6405,0.6813,0.7358,0.8093,0.8714,0.927,0.9752,1.0324,1.0623,1.046,1.0442,1.0442,1.0442,0.9962,0.9652,0.9685,0.8755,0.8549,0.9311,1.0038,1.0773,1.1536,1.2326,1.2876,1.3122,1.3035,1.3027,1.3092,1.0773,1.0001,0.0,0.0,0.0,0.0,0.0,0.0,0.0,0.0,0.0,0.0,0.0,0.3638,0.3156,0.0,0.2997,0.288,0.275,0.2668,0.2729,0.2737,0.2694,0.2609,0.2481,0.2328,0.216,0.1943,0.1729,0.1613,0.148,0.1391,0.1391,0.1391,0.1391,0.1391,0.1391,0.1391,0.1391,0.1391,0.1391,0.1391,0.1391,0.1391,0.1391,0.1391,0.1391,0.1391,0.1391,0.157,0.1839,0.2199,0.2495,0.2689,0.2658,0.2713,0.2863,0.3567,0.3919,0.4192,0.4781,0.5018,0.5018,0.5018,0.5018,0.5015,0.5132,0.5168,0.5246,0.5747,0.5977,0.6167,0.6595,0.6942,0.7288,0.7706,0.7936,0.7978,0.7599,0.7825,0.7748,0.6528,0.6644,0.6911,0.6911,0.7074,0.7294,0.7558,0.8352,0.9077,0.9556,1.0354,1.0864,1.0695,1.0683,1.0611,1.0437,0.9857,0.9395,0.9167,0.9075,0.9212,0.9733,1.0906,1.178,1.2298,1.3083,1.3492,1.3492,1.3492,1.3492,1.3455,1.1855,1.1335,0.0,0.0,0.0,0.0,0.0,0.0,0.0,0.4927,0.4855,0.4417,0.4475,0.4264,0.3152,0.3137,0.3144,0.2776,0.271,0.2732,0.2792,0.2756,0.2756,0.2756,0.2581,0.2511,0.251,0.2109,0.1839,0.1794,0.157,0.1391,0.1391,0.1391,0.1391,0.1391,0.1391,0.1391,0.1391,0.1391,0.1391,0.1391,0.1391,0.1391,0.1391,0.1391,0.1391,0.1391,0.1525,0.166,0.193,0.2379,0.2626,0.2692,0.2692,0.2617,0.2588,0.3489,0.3802,0.3919,0.4704,0.5018,0.5018,0.5018,0.5018,0.5018,0.5018,0.5018,0.5171,0.5935,0.6163,0.6395,0.7211,0.7783,0.8156,0.8309,0.858,0.8661,0.8093,0.8399,0.8394,0.7026,0.7292,0.7748,0.7748,0.7748,0.7647,0.7414,0.8225,0.904,0.9558,1.0452,1.1075,1.1184,1.1141,1.0925,1.0406,0.9733,0.9132,0.8742,0.9311,0.9803,1.0105,1.1372,1.2224,1.2526,1.3156,1.3492,1.3492,1.3492,1.3492,1.3499,1.2826,1.2526,0.5608,0.5397,0.5321,0.5442,0.5632,0.5864,0.0,0.5911,0.5334,0.4332,0.4149,0.3889,0.2895,0.2745,0.2778,0.2805,0.2773,0.2794,0.29,0.2684,0.255,0.255,0.2728,0.2731,0.2513,0.2289,0.2064,0.1839,0.157,0.1391,0.1391,0.1391,0.1391,0.1391,0.1391,0.1391,0.1391,0.1391,0.1391,0.1391,0.1391,0.1391,0.1391,0.1391,0.1391,0.1436,0.1885,0.2109,0.2199,0.2649,0.2803,0.2692,0.2692,0.2617,0.2588,0.3489,0.3802,0.3919,0.4704,0.5018,0.5018,0.5018,0.5018,0.5018,0.5018,0.5018,0.5132,0.5747,0.6051,0.6356,0.7065,0.7672,0.8271,0.8993,0.9188,0.9301,0.9576,0.942,0.9074,0.8551,0.8513,0.8546,0.8546,0.8546,0.8515,0.8378,0.8951,0.9542,0.9991,1.0448,1.0948,1.1393,1.1224,1.0775,1.003,0.9544,0.9132,0.8742,0.878,0.9458,1.0925,1.1149,1.1892,1.3346,1.3455,1.3492,1.3492,1.3492,1.3492,1.3492,1.3419,1.3382,0.6675,0.6497,0.6327,0.6505,0.6684,0.6857,0.6893,0.6817,0.6405,0.5123,0.4865,0.4444,0.3001,0.2774,0.2807,0.2832,0.2837,0.2889,0.2915,0.2649,0.2513,0.2513,0.2513,0.2469,0.2334,0.2109,0.193,0.1794,0.157,0.1391,0.1391,0.1391,0.1391,0.1391,0.1391,0.1391,0.1391,0.1391,0.1391,0.1391,0.1391,0.1391,0.1391,0.1391,0.1391,0.1436,0.1974,0.2199,0.2243,0.2694,0.2803,0.2692,0.2692,0.2741,0.2943,0.3567,0.3802,0.3919,0.4704,0.5018,0.5018,0.5018,0.5018,0.5018,0.5018,0.5249,0.5673,0.6286,0.6784,0.728,0.7902,0.8437,0.8932,0.9496,0.9647,0.9647,0.9571,0.9609,0.9306,0.8208,0.8399,0.8703,0.8703,0.8703,0.8822,0.9255,0.9543,0.9852,1.016,1.0764,1.1161,1.1144,1.0705,1.018,0.9582,0.9165,0.8894,0.8703,0.9122,0.9911,1.1037,1.1558,1.2342,1.3499,1.3492,1.3492,1.3492,1.3492,1.3322,1.2965,1.2965,1.2797,0.7073,0.7106,0.7106,0.7253,0.7541,0.7748,0.7626,0.7691,0.7365,0.5798,0.5483,0.4935,0.3157,0.2888,0.292,0.292,0.292,0.292,0.292,0.2604,0.2424,0.2424,0.2154,0.1974,0.1974,0.1884,0.1794,0.1794,0.1578,0.1448,0.1448,0.141,0.1411,0.1448,0.141,0.141,0.1448,0.1448,0.1448,0.1448,0.1394,0.1391,0.1391,0.1391,0.1391,0.1436,0.1974,0.2199,0.2243,0.2694,0.2812,0.2715,0.2699,0.2792,0.301,0.3459,0.3763,0.4075,0.4742,0.5018,0.5018,0.5018,0.5018,0.5018,0.5018,0.5285,0.5825,0.6672,0.7207,0.7744,0.8508,0.9013,0.9359,0.9657,0.9733,0.9695,0.9496,0.9609,0.9425,0.836,0.8627,0.9046,0.9046,0.9046,0.9236,0.9803,0.9884,1.003,1.0331,1.0948,1.1168,1.0745,1.0149,0.9687,0.9327,0.8932,0.8703,0.8703,0.9463,1.0255,1.1074,1.1855,1.2673,1.3499,1.3492,1.3382,1.3156,1.3205,1.29,1.2267,1.2344,1.1984,0.631,0.6688,0.7257,0.7431,0.8049,0.8575,0.8571,0.8575,0.8006,0.6107,0.5711,0.5137,0.3227,0.2918,0.292,0.292,0.292,0.292,0.292,0.2513,0.2199,0.2199,0.1749,0.1436,0.0,0.166,0.1794,0.1794,0.16,0.1479,0.1479,0.1507,0.151,0.148,0.1508,0.1509,0.148,0.1479,0.1479,0.1479,0.1449,0.1391,0.1391,0.1391,0.1391,0.1436,0.1974,0.2199,0.2243,0.2694,0.2837,0.2775,0.2715,0.2654,0.2672,0.3008,0.3645,0.4423,0.4859,0.5018,0.5018,0.5018,0.5018,0.5018,0.5018,0.5018,0.5287,0.6556,0.6903,0.7207,0.8394,0.9013,0.9284,0.9322,0.9322,0.9435,0.9809,0.9582,0.9435,0.9771,0.9841,0.9884,0.9884,0.9884,0.9884,0.9884,0.9884,1.0056,1.0522,1.078,1.0737,1.027,0.987,0.951,0.9304,0.8932,0.8703,0.8703,0.9463,1.0255,1.1074,1.1855,1.2673,1.3499,1.3492,1.3119,1.2342,1.2541,1.2216,1.142,1.1645,1.129,0.7008,0.7339,0.7679,0.8139,0.8429,0.8612,0.8612,0.8612,0.8208,0.6918,0.6118,0.5297,0.4001,0.3288,0.2906,0.282,0.2892,0.292,0.292,0.2604,0.2334,0.2199,0.1863,0.1603,0.1466,0.0,0.0,0.1527,0.1528,0.1502,0.1482,0.151,0.1521,0.1511,0.1521,0.1521,0.1511,0.151,0.15,0.148,0.145,0.1391,0.1391,0.1391,0.148,0.1705,0.2064,0.2289,0.2424,0.2784,0.2838,0.2777,0.2715,0.282,0.2995,0.3087,0.3645,0.4423,0.4543,0.4779,0.5018,0.5018,0.5018,0.5093,0.5479,0.5902,0.644,0.7246,0.7783,0.8203,0.8585,0.8818,0.8975,0.9246,0.9089,0.9013,0.943,0.9203,0.8932,0.9084,0.9122,0.9122,0.9122,0.9122,0.9122,0.9122,0.9836,1.041,1.0576,1.0796,1.0752,1.0305,0.9862,0.9458,0.9121,0.8861,0.8703,0.8703,0.897,0.9463,1.0255,1.055,1.1074,1.1892,1.2035,1.1974,1.1708,1.1903,1.1655,1.1015,1.1057,1.0767,0.7461,0.7706,0.7931,0.8473,0.8612,0.8612,0.8612,0.8612,0.8208,0.6874,0.6345,0.5629,0.4,0.347,0.3187,0.2907,0.291,0.295,0.295,0.2723,0.2451,0.2224,0.1974,0.1717,0.1542,0.1507,0.15,0.1424,0.1514,0.1534,0.1514,0.1542,0.1553,0.1543,0.1553,0.1553,0.1543,0.1542,0.1521,0.148,0.145,0.1391,0.1391,0.1391,0.148,0.166,0.193,0.2109,0.2289,0.2604,0.2717,0.2678,0.2705,0.2854,0.2992,0.2927,0.3476,0.419,0.4345,0.4659,0.5018,0.5018,0.5018,0.5054,0.5479,0.6018,0.6668,0.7284,0.7897,0.8432,0.8661,0.8703,0.878,0.9013,0.8894,0.878,0.9013,0.8894,0.8703,0.8703,0.8703,0.8703,0.8703,0.8703,0.8727,0.8807,0.9523,1.0054,1.0136,1.0408,1.0441,1.007,0.9773,0.9422,0.9034,0.8963,0.8859,0.8713,0.9038,0.9425,0.9884,1.0258,1.0682,1.1206,1.1388,1.1363,1.1082,1.1267,1.1027,1.0349,1.0473,1.0333,0.7612,0.782,0.7963,0.8482,0.8612,0.8612,0.8612,0.8612,0.8072,0.6189,0.6387,0.6068,0.3404,0.3495,0.3741,0.2979,0.2956,0.3,0.3,0.2772,0.2497,0.2267,0.1992,0.1729,0.1525,0.1555,0.1562,0.1533,0.0,0.1622,0.162,0.16,0.1604,0.1624,0.1602,0.1603,0.1623,0.162,0.154,0.1483,0.1451,0.1391,0.1391,0.1391,0.1391,0.1436,0.1705,0.1794,0.1884,0.2334,0.2513,0.2553,0.2719,0.2748,0.2689,0.2625,0.3124,0.3847,0.4231,0.4659,0.5018,0.5018,0.5018,0.5018,0.5093,0.5479,0.6093,0.6788,0.7399,0.7974,0.8546,0.8703,0.8703,0.8703,0.8703,0.8703,0.8703,0.8703,0.8703,0.8703,0.8703,0.8703,0.8703,0.8703,0.877,0.8938,0.8976,0.9061,0.9272,0.9686,0.9909,0.9639,0.9611,0.9446,0.9051,0.9183,0.9152,0.876,0.9617,1.0064,0.9889,1.0775,1.1283,1.1278,1.1504,1.1238,1.046,1.0662,1.0364,0.9625,0.9861,0.9994,0.771,0.8098,0.8437,0.8575,0.8612,0.8612,0.8612,0.8612,0.8356,0.757,0.6888,0.5993,0.4538,0.3943,0.3417,0.273,0.2768,0.294,0.294,0.2851,0.2731,0.2542,0.2252,0.2051,0.1898,0.1687,0.1602,0.0,0.16,0.1596,0.1622,0.16,0.1613,0.1606,0.1613,0.1613,0.1605,0.156,0.153,0.1514,0.1415,0.1391,0.1391,0.1391,0.1525,0.1705,0.1749,0.2019,0.2334,0.2469,0.2604,0.2778,0.2807,0.2774,0.2747,0.264,0.3157,0.3894,0.3944,0.4428,0.5018,0.5018,0.5018,0.5171,0.6131,0.6518,0.6861,0.7936,0.8356,0.8508,0.8665,0.8703,0.8703,0.8703,0.8703,0.8703,0.8703,0.8703,0.8703,0.8703,0.8703,0.8703,0.8703,0.8703,0.8722,0.8774,0.8921,0.9117,0.9475,0.9616,0.9762,0.9904,0.9738,0.9564,0.9456,0.9348,0.9239,0.9171,0.9254,0.9339,0.9447,0.9536,0.9681,0.9842,1.0028,1.0018,0.9809,1.0065,1.0086,0.9919,0.9971,0.9994,0.7963,0.8318,0.8612,0.8612,0.8612,0.8567,0.8361,0.8325,0.8048,0.7096,0.6538,0.5735,0.4194,0.3747,0.3382,0.2633,0.2736,0.2957,0.2957,0.298,0.2871,0.2622,0.2386,0.219,0.2035,0.1757,0.1617,0.1617,0.1617,0.1609,0.1592,0.1607,0.1617,0.1617,0.1617,0.1617,0.1617,0.157,0.1539,0.1478,0.1478,0.1448,0.1391,0.1391,0.148,0.1615,0.0,0.1839,0.2199,0.2334,0.2513,0.2735,0.2792,0.2807,0.2819,0.2959,0.339,0.3934,0.4079,0.4506,0.5018,0.5018,0.5018,0.5132,0.5864,0.644,0.7053,0.7706,0.828,0.8703,0.8703,0.8703,0.8703,0.8703,0.8703,0.8703,0.8703,0.8703,0.8703,0.8703,0.8703,0.8703,0.8703,0.8703,0.8732,0.8826,0.8864,0.9028,0.9415,0.9564,0.9682,0.9971,0.9852,0.9743,0.9611,0.962,0.9479,0.9173,0.9128,0.9137,0.9169,0.9133,0.922,0.9423,0.9672,0.9781,0.9781,0.9937,0.9994,0.9994,0.9994,0.9994,0.817,0.8406,0.8612,0.8612,0.8612,0.8514,0.8097,0.7975,0.7497,0.593,0.5793,0.5313,0.3268,0.3344,0.3412,0.2599,0.2732,0.2976,0.3001,0.3051,0.2947,0.2628,0.2427,0.2224,0.2017,0.1768,0.1617,0.1617,0.1617,0.1617,0.1617,0.1617,0.1617,0.1617,0.1617,0.1615,0.1611,0.1581,0.155,0.152,0.1489,0.1461,0.1391,0.1391,0.1391,0.1391,0.0,0.0,0.1884,0.2109,0.2334,0.2558,0.2829,0.2842,0.2882,0.3348,0.3687,0.3973,0.4448,0.4778,0.5037,0.5021,0.5018,0.5015,0.521,0.6018,0.6938,0.7092,0.7897,0.8703,0.8703,0.8703,0.8703,0.8703,0.8703,0.8703,0.8703,0.8703,0.8703,0.8703,0.8703,0.8699,0.8665,0.8665,0.8727,0.8876,0.8744,0.8769,0.9155,0.9438,0.9653,0.9884,0.9951,0.9837,0.9573,0.9765,0.9671,0.9064,0.9167,0.9176,0.9055,0.9173,0.9353,0.9602,0.9823,0.9966,0.9994,0.9994,0.9994,0.9994,0.9994,0.9994,0.8044,0.8308,0.8612,0.8612,0.8612,0.8514,0.8097,0.7784,0.7332,0.6416,0.5642,0.4779,0.3665,0.3279,0.2972,0.2414,0.2575,0.2789,0.2983,0.3014,0.2917,0.2722,0.2447,0.2224,0.2017,0.1768,0.1617,0.0,0.1617,0.1617,0.1617,0.1617,0.1617,0.1617,0.1617,0.1605,0.1579,0.1549,0.1519,0.1488,0.1457,0.1395,0.1391,0.1391,0.1391,0.1391,0.1391,0.0,0.2154,0.2199,0.2469,0.2829,0.2873,0.2913,0.2941,0.3367,0.3757,0.4106,0.4536,0.4892,0.514,0.5048,0.5018,0.521,0.6251,0.671,0.7092,0.8089,0.8551,0.8703,0.8703,0.8703,0.8703,0.8703,0.8703,0.8703,0.8703,0.8703,0.8703,0.8703,0.8703,0.8665,0.8475,0.8441,0.8412,0.8261,0.8239,0.8334,0.8759,0.9137,0.9359,0.9435,0.9563,0.9589,0.9383,0.9414,0.9362,0.9252,0.9061,0.9039,0.9227,0.9072,0.9174,0.9602,0.9639,0.9786,0.9994,0.9994,0.9994,0.9994,0.9994,0.9994,0.8012,0.8284,0.8612,0.8612,0.8612,0.8441,0.7752,0.7399,0.6959,0.5929,0.4883,0.3969,0.335,0.2828,0.2407,0.2242,0.2447,0.2698,0.2891,0.2993,0.2943,0.2736,0.2473,0.2248,0.2019,0.1768,0.1617,0.1617,0.1617,0.1617,0.1617,0.1617,0.1617,0.1617,0.1617,0.161,0.1595,0.1565,0.1534,0.1504,0.1473,0.1451,0.1391,0.1391,0.1391,0.1391,0.1391,0.0,0.2199,0.2199,0.2469,0.292,0.292,0.292,0.3005,0.3678,0.3985,0.42,0.4884,0.5215,0.5314,0.5219,0.5116,0.5171,0.6093,0.6633,0.7111,0.8099,0.8553,0.8727,0.8841,0.8784,0.8703,0.8703,0.8703,0.8703,0.8703,0.8703,0.8703,0.8703,0.8703,0.8627,0.8441,0.8403,0.8327,0.814,0.8102,0.8168,0.8372,0.8733,0.9077,0.9261,0.9388,0.9388,0.9305,0.9305,0.9257,0.9087,0.8862,0.885,0.9094,0.9001,0.9174,0.9602,0.9752,0.9852,0.9994,0.9994,0.9994,0.9994,0.9994,0.9994,0.8012,0.8284,0.8612,0.8612,0.8612,0.8375,0.7431,0.7025,0.6539,0.5351,0.4184,0.3285,0.2976,0.2381,0.1966,0.2095,0.2331,0.259,0.2777,0.2979,0.2966,0.2656,0.2499,0.2271,0.197,0.1718,0.1617,0.1617,0.0,0.0,0.1617,0.1617,0.1617,0.1617,0.1617,0.1611,0.1598,0.1573,0.1543,0.1459,0.1483,0.1458,0.1391,0.1391,0.1391,0.1391,0.148,0.0,0.0,0.2243,0.2513,0.292,0.292,0.292,0.3008,0.3942,0.4253,0.4278,0.5195,0.551,0.5409,0.5409,0.5246,0.5174,0.5982,0.6532,0.7099,0.8066,0.8544,0.8812,0.8938,0.8897,0.876,0.8713,0.8703,0.8699,0.8627,0.8665,0.8665,0.8589,0.8589,0.8551,0.8327,0.825,0.8217,0.7987,0.7987,0.7979,0.8049,0.8322,0.8628,0.897,0.9083,0.9152,0.9109,0.9026,0.8962,0.8793,0.8607,0.8632,0.8835,0.8875,0.9112,0.9536,0.9947,1.012,0.9994,1.0207,1.0164,0.9994,0.9994,0.9994,0.8012,0.8284,0.8612,0.8612,0.8612,0.8375,0.7431,0.6799,0.6205,0.5298,0.3959,0.2963,0.2989,0.226,0.1758,0.2124,0.2219,0.2378,0.2811,0.2969,0.2887,0.245,0.2418,0.2221,0.1667,0.1617,0.1617,0.1617,0.0,0.0,0.1617,0.1617,0.1617,0.1617,0.1617,0.159,0.1487,0.1532,0.1454,0.1399,0.1396,0.1393,0.1391,0.1391,0.1391,0.1436,0.166,0.0,0.0,0.2379,0.2649,0.292,0.292,0.292,0.3008,0.3942,0.4293,0.4421,0.5359,0.5594,0.5491,0.5491,0.5368,0.5431,0.6852,0.7099,0.7239,0.8738,0.9072,0.8962,0.8981,0.8971,0.8944,0.8751,0.8703,0.8665,0.8479,0.8589,0.8589,0.8217,0.8289,0.8289,0.7915,0.7842,0.7799,0.7599,0.7561,0.7631,0.7815,0.7856,0.7938,0.8086,0.8464,0.8607,0.8402,0.8246,0.8189,0.8363,0.8346,0.8429,0.8697,0.8652,0.8864,0.931,1.0175,1.0434,0.9994,1.0809,1.0766,0.9994,0.9994,0.9994,0.8122,0.8369,0.8612,0.8612,0.8398,0.8028,0.724,0.6562,0.5872,0.508,0.3836,0.2928,0.2997,0.22,0.1668,0.2023,0.2128,0.2232,0.2511,0.2608,0.2585,0.2482,0.2261,0.2019,0.1865,0.1718,0.1617,0.0,0.0,0.0,0.1617,0.1617,0.1617,0.1617,0.1617,0.1596,0.1553,0.1535,0.1505,0.1463,0.1399,0.1391,0.1391,0.1391,0.1391,0.1436,0.1705,0.0,0.0,0.2424,0.2649,0.292,0.292,0.292,0.3008,0.3942,0.43,0.4433,0.5374,0.5656,0.5615,0.5615,0.58,0.6235,0.7112,0.7585,0.8051,0.9142,0.9324,0.9192,0.9324,0.9263,0.9112,0.8944,0.878,0.8631,0.843,0.8365,0.8293,0.814,0.8178,0.814,0.7838,0.7804,0.7723,0.7522,0.7484,0.7512,0.762,0.778,0.7898,0.7866,0.8098,0.8247,0.8296,0.823,0.8267,0.8472,0.8405,0.8426,0.8511,0.8734,0.8919,0.9123,0.9864,1.0459,1.0766,1.0593,1.0593,1.0766,1.025,0.9994,0.8126,0.8385,0.8612,0.8612,0.8288,0.7825,0.7151,0.6433,0.5681,0.4954,0.3791,0.2917,0.2953,0.2154,0.1585,0.1907,0.2001,0.2124,0.2291,0.2324,0.2358,0.2408,0.2072,0.1857,0.1831,0.1707,0.1617,0.0,0.0,0.0,0.0,0.1617,0.1617,0.1617,0.1617,0.1598,0.1558,0.1537,0.1506,0.1467,0.1445,0.1391,0.1391,0.1391,0.1391,0.1436,0.0,0.0,0.0,0.2513,0.2739,0.292,0.292,0.292,0.3008,0.3942,0.43,0.4433,0.5374,0.5688,0.5688,0.5688,0.6286,0.7046,0.7401,0.7927,0.8598,0.9489,0.954,0.9413,0.9564,0.9399,0.9159,0.8939,0.8742,0.8542,0.8282,0.814,0.8063,0.7949,0.7987,0.7953,0.7761,0.7723,0.768,0.7522,0.7484,0.7484,0.7484,0.7752,0.787,0.7735,0.7833,0.802,0.8232,0.8222,0.8309,0.8546,0.8414,0.8378,0.8491,0.8743,0.9082,0.9486,1.0281,1.089,1.1284,1.0977,1.0852,1.0895,1.0294,0.9994,0.7967,0.8284,0.8612,0.8612,0.8288,0.7825,0.7151,0.6433,0.5681,0.4954,0.3791,0.2892,0.2895,0.2138,0.156,0.177,0.1846,0.2008,0.2368,0.2279,0.2194,0.2221,0.1975,0.1734,0.1521,0.1581,0.0,0.0,0.0,0.0,0.0,0.1617,0.1617,0.1617,0.1617,0.1588,0.1479,0.1478,0.1449,0.1391,0.1391,0.1391,0.1391,0.1391,0.1391,0.0,0.0,0.0,0.0,0.2694,0.292,0.292,0.292,0.292,0.3008,0.3942,0.43,0.4433,0.5374,0.5688,0.5688,0.5688,0.6653,0.7786,0.7786,0.8071,0.8624,0.9699,0.98,0.9602,0.9602,0.9296,0.895,0.8753,0.8558,0.8293,0.7876,0.7953,0.7987,0.7599,0.768,0.7723,0.7522,0.7522,0.7484,0.7484,0.7484,0.7484,0.7484,0.7686,0.7731,0.7504,0.769,0.788,0.8074,0.8099,0.8183,0.8369,0.8221,0.8293,0.8665,0.8711,0.9327,1.0657,1.1735,1.1949,1.1284,1.2211,1.174,0.9994,0.9994,0.9994,0.7395,0.7561,0.7622,0.7535,0.7326,0.6989,0.6543,0.5945,0.5274,0.4494,0.3558,0.28,0.2473,0.1882,0.155,0.1952,0.1954,0.1993,0.228,0.2289,0.233,0.2521,0.2363,0.2104,0.1883,0.0,0.0,0.0,0.0,0.0,0.0,0.1585,0.1595,0.1616,0.1596,0.1566,0.1478,0.1506,0.1475,0.1391,0.1391,0.1391,0.1391,0.1391,0.0,0.0,0.0,0.0,0.0,0.2694,0.292,0.292,0.292,0.292,0.3008,0.3942,0.43,0.4433,0.5374,0.5688,0.5688,0.5688,0.6653,0.779,0.779,0.8589,0.9562,0.9913,0.9947,0.9856,0.9856,0.9526,0.917,0.8946,0.8555,0.8108,0.7868,0.7757,0.7638,0.7522,0.7561,0.7561,0.7522,0.7484,0.7484,0.7484,0.7484,0.7567,0.7694,0.7825,0.7866,0.7731,0.7954,0.8083,0.7909,0.7915,0.803,0.8365,0.8327,0.8365,0.8475,0.9277,0.9977,1.0495,1.1622,1.2547,1.3203,1.2851,1.2083,1.0895,1.0895,1.0549,0.6846,0.707,0.711,0.7066,0.6822,0.6513,0.6245,0.5681,0.4986,0.4161,0.3407,0.2742,0.2263,0.1776,0.1537,0.1847,0.1898,0.1963,0.2253,0.2259,0.2307,0.2485,0.2342,0.2125,0.0,0.0,0.0,0.0,0.0,0.0,0.0,0.1561,0.1563,0.1582,0.1564,0.154,0.1509,0.149,0.1466,0.1391,0.1391,0.1391,0.1391,0.1391,0.0,0.0,0.0,0.0,0.0,0.2739,0.292,0.292,0.292,0.292,0.3008,0.3942,0.43,0.4433,0.5374,0.5688,0.5688,0.5688,0.6653,0.7921,0.8448,0.9288,0.9994,0.9994,0.9994,0.9994,0.9994,0.9615,0.9123,0.8955,0.8435,0.7939,0.7748,0.7603,0.7484,0.7484,0.7484,0.7484,0.7484,0.7484,0.7484,0.7484,0.7484,0.7588,0.7775,0.7906,0.7947,0.782,0.8081,0.8165,0.7833,0.7953,0.8178,0.8479,0.8441,0.8478,0.8629,0.9684,1.0549,1.1154,1.2312,1.3326,1.4097,1.2814,1.1875,1.1278,1.0982,1.0511,0.0,0.671,0.6898,0.7029,0.6662,0.6278,0.6139,0.5575,0.0,0.3924,0.3303,0.2726,0.2162,0.1761,0.1522,0.1632,0.1734,0.1932,0.2267,0.2232,0.2173,0.2233,0.2058,0.1964,0.1916,0.0,0.0,0.0,0.0,0.0,0.0,0.1538,0.1475,0.1473,0.1473,0.1507,0.1481,0.1478,0.1463,0.1391,0.1391,0.1391,0.1391,0.1391,0.0,0.0,0.0,0.0,0.0,0.2784,0.292,0.292,0.292,0.292,0.3008,0.3942,0.43,0.4433,0.5374,0.5688,0.5733,0.5822,0.6786,0.8141,0.9554,0.9994,0.9994,0.9994,0.9994,0.9951,0.9951,0.9475,0.8923,0.8723,0.8229,0.7723,0.7522,0.7484,0.7484,0.7484,0.7484,0.7484,0.7484,0.7484,0.7484,0.7484,0.7484,0.7588,0.7775,0.7906,0.7947,0.7816,0.8122,0.8165,0.7872,0.8178,0.8479,0.8665,0.8518,0.861,0.9089,1.0002,1.1115,1.2453,1.3609,1.4139,1.4097,1.2345,1.1408,1.1284,1.0467,1.0081,0.5141,0.0,0.5559,0.5575,0.549,0.5385,0.0,0.5118,0.4557,0.3494,0.3078,0.2662,0.187,0.1555,0.1541,0.1933,0.1933,0.202,0.2474,0.2705,0.2808,0.2584,0.2602,0.2442,0.1994,0.0,0.0,0.0,0.0,0.0,0.0,0.1495,0.148,0.1412,0.1411,0.1464,0.148,0.1457,0.1397,0.1391,0.1391,0.1391,0.1391,0.1391,0.0,0.0,0.0,0.0,0.2513,0.2784,0.292,0.292,0.292,0.292,0.3008,0.3942,0.43,0.4433,0.5374,0.5688,0.5866,0.6959,0.7921,0.8759,0.9467,0.982,0.9994,0.9994,0.9864,0.9689,0.9689,0.9141,0.8522,0.8481,0.803,0.7561,0.7522,0.7484,0.7484,0.7484,0.7484,0.7484,0.7484,0.7484,0.7484,0.7484,0.7484,0.7588,0.7775,0.7906,0.8028,0.8011,0.8203,0.8282,0.8248,0.8217,0.8255,0.8441,0.8441,0.8909,1.0011,1.0863,1.1976,1.3362,1.4504,1.4783,1.4097,1.3669,1.2687,1.1284,1.1111,1.0636,0.427,0.4808,0.5344,0.5457,0.5389,0.5324,0.5324,0.4991,0.4348,0.323,0.2945,0.2617,0.1726,0.1564,0.1674,0.1934,0.2025,0.2229,0.2628,0.294,0.3023,0.2888,0.2799,0.2566,0.0,0.0,0.0,0.0,0.0,0.0,0.0,0.1468,0.1453,0.1391,0.1391,0.1398,0.1459,0.1399,0.1391,0.1391,0.1391,0.1391,0.1391,0.1525,0.1749,0.0,0.0,0.0,0.2694,0.2829,0.292,0.292,0.292,0.292,0.3008,0.3942,0.43,0.4433,0.5374,0.5908,0.6343,0.7217,0.8053,0.8807,0.9428,0.965,0.9694,0.9694,0.965,0.9536,0.9359,0.8864,0.8377,0.8288,0.7884,0.7484,0.7484,0.7484,0.7484,0.7484,0.7484,0.7484,0.7484,0.7484,0.7512,0.7637,0.7649,0.7743,0.8012,0.8164,0.8234,0.8182,0.8453,0.8559,0.8401,0.8403,0.8441,0.8513,0.9019,0.9666,1.0486,1.1839,1.316,1.4447,1.5087,1.4957,1.4097,1.3662,1.2729,1.1278,1.0895,1.0479,0.3854,0.4759,0.5657,0.5677,0.5628,0.5535,0.5535,0.5014,0.426,0.3294,0.3021,0.2692,0.1884,0.1765,0.1817,0.1882,0.2172,0.2478,0.2733,0.2976,0.3065,0.3011,0.2834,0.0,0.0,0.0,0.0,0.0,0.0,0.0,0.0,0.1449,0.1391,0.1391,0.1391,0.1391,0.1391,0.1391,0.1391,0.1391,0.1391,0.1391,0.1391,0.166,0.193,0.0,0.0,0.0,0.292,0.292,0.292,0.292,0.292,0.292,0.3008,0.3855,0.421,0.43,0.5196,0.608,0.682,0.6993,0.7746,0.8723,0.9297,0.9388,0.9301,0.9218,0.9345,0.9426,0.9054,0.8655,0.8307,0.8116,0.777,0.7484,0.7484,0.7484,0.7484,0.7484,0.7484,0.7484,0.7484,0.7504,0.7616,0.7775,0.782,0.7951,0.8253,0.848,0.8543,0.8377,0.8742,0.8841,0.8473,0.8589,0.8703,0.8703,0.9625,1.0419,1.0937,1.287,1.4392,1.5382,1.5257,1.4783,1.388,1.2936,1.1997,1.1068,1.0372,1.0142,0.4571,0.5307,0.5744,0.4909,0.5024,0.5325,0.5198,0.4954,0.4584,0.4038,0.3501,0.3066,0.2831,0.223,0.1913,0.2266,0.25,0.2654,0.27,0.295,0.2987,0.2714,0.0,0.0,0.0,0.0,0.0,0.0,0.0,0.0,0.0,0.1393,0.1391,0.1391,0.1391,0.1391,0.1391,0.1391,0.1391,0.1391,0.1391,0.1391,0.1391,0.166,0.193,0.0,0.0,0.2649,0.292,0.292,0.292,0.292,0.292,0.292,0.2963,0.3497,0.3721,0.3765,0.4344,0.5497,0.6823,0.682,0.7885,0.917,0.9043,0.913,0.9218,0.8828,0.8872,0.8952,0.8717,0.8359,0.8012,0.7881,0.7657,0.7484,0.7484,0.7484,0.7484,0.7484,0.7484,0.7484,0.7484,0.7653,0.7767,0.7796,0.7882,0.8078,0.8354,0.8489,0.8618,0.864,0.8864,0.8921,0.866,0.8665,0.8703,0.8703,0.9019,1.0102,1.2046,1.4083,1.5213,1.5389,1.4699,1.3837,1.2887,1.1955,1.1068,1.0217,1.0229,1.0289,0.4006,0.4873,0.5578,0.4988,0.5579,0.631,0.6258,0.5544,0.4745,0.4213,0.3487,0.2842,0.2568,0.2271,0.2214,0.2602,0.268,0.2715,0.2781,0.2931,0.2955,0.0,0.0,0.0,0.0,0.0,0.0,0.0,0.0,0.0,0.0,0.0,0.1391,0.1391,0.1391,0.1391,0.1391,0.1391,0.1391,0.1391,0.1525,0.1615,0.1615,0.2019,0.2243,0.2379,0.0,0.2784,0.292,0.292,0.292,0.292,0.292,0.292,0.2963,0.3409,0.3765,0.4032,0.452,0.5628,0.682,0.7088,0.8065,0.9043,0.8955,0.8911,0.8872,0.8652,0.874,0.88,0.8379,0.816,0.7947,0.7714,0.7584,0.7484,0.7484,0.7484,0.7484,0.7484,0.7484,0.7484,0.7484,0.7677,0.7833,0.7882,0.8127,0.8409,0.8645,0.8853,0.8946,0.886,0.8935,0.892,0.8727,0.8703,0.9216,1.0456,1.0627,1.1681,1.3917,1.4455,1.4699,1.4699,1.3795,1.2893,1.196,1.1494,1.1175,1.095,1.1062,1.1242,0.3848,0.464,0.5477,0.5386,0.616,0.7005,0.7135,0.6183,0.513,0.4562,0.3744,0.298,0.2488,0.2426,0.2526,0.2789,0.2777,0.2767,0.2906,0.292,0.2935,0.0,0.0,0.0,0.0,0.0,0.0,0.0,0.0,0.0,0.0,0.0,0.1391,0.1391,0.1391,0.1391,0.1391,0.1391,0.1391,0.1391,0.166,0.1794,0.1794,0.2289,0.2513,0.2513,0.2784,0.292,0.292,0.292,0.292,0.292,0.292,0.292,0.2963,0.332,0.3676,0.4032,0.4389,0.5408,0.6602,0.6959,0.7889,0.8823,0.8823,0.874,0.8612,0.8612,0.8667,0.8638,0.8139,0.8012,0.7923,0.7569,0.7484,0.7484,0.7484,0.7484,0.7484,0.7484,0.7484,0.7535,0.758,0.7739,0.7918,0.809,0.8442,0.8785,0.9021,0.9224,0.9233,0.9105,0.9028,0.8935,0.8718,0.8703,0.9566,1.1649,1.1976,1.2915,1.4671,1.4349,1.4013,1.3795,1.2851,1.2126,1.1617,1.1192,1.1332,1.1993,1.1932,1.2139,0.5182,0.5431,0.5598,0.6006,0.6211,0.6388,0.6894,0.6554,0.5971,0.5507,0.4909,0.4225,0.3448,0.2995,0.2741,0.271,0.2793,0.2908,0.2918,0.0,0.0,0.0,0.0,0.0,0.0,0.0,0.0,0.0,0.0,0.0,0.0,0.0,0.0,0.1391,0.1391,0.1391,0.1391,0.1391,0.1391,0.1391,0.166,0.1794,0.1794,0.2289,0.2513,0.2513,0.2784,0.292,0.292,0.292,0.292,0.292,0.292,0.292,0.292,0.2918,0.2963,0.3008,0.3053,0.4255,0.5764,0.5808,0.7095,0.8612,0.8612,0.8612,0.8612,0.8612,0.8486,0.8306,0.8065,0.8012,0.7923,0.7569,0.7484,0.7484,0.7484,0.7484,0.7484,0.7484,0.7484,0.7575,0.7751,0.7882,0.8098,0.8489,0.8724,0.9026,0.9471,0.9391,0.9275,0.9264,0.9103,0.8935,0.8718,0.8703,0.93,1.0705,1.161,1.2329,1.2863,1.3662,1.3711,1.2802,1.1875,1.1789,1.2589,1.089,1.0982,1.2631,1.2232,1.2564,0.4611,0.5153,0.5706,0.5792,0.6265,0.6824,0.7367,0.7042,0.6412,0.5665,0.4849,0.4022,0.3084,0.2886,0.2819,0.2759,0.2819,0.292,0.292,0.0,0.0,0.0,0.0,0.0,0.0,0.0,0.0,0.0,0.0,0.0,0.0,0.0,0.0,0.1391,0.1391,0.1391,0.1391,0.1391,0.148,0.166,0.193,0.2109,0.2243,0.2604,0.2739,0.2739,0.2873,0.292,0.292,0.292,0.292,0.292,0.292,0.292,0.292,0.292,0.292,0.3053,0.4255,0.5097,0.5897,0.7098,0.7988,0.8612,0.8612,0.8612,0.8588,0.8469,0.8345,0.8247,0.8061,0.7935,0.7793,0.7541,0.7484,0.7484,0.7484,0.7484,0.7484,0.7484,0.7616,0.7718,0.7788,0.7996,0.8291,0.8569,0.8918,0.9257,0.9559,0.9404,0.9293,0.9291,0.9025,0.8789,0.8708,0.8703,0.9202,1.0448,1.0964,1.1607,1.2463,1.2433,1.2142,1.1637,1.0861,1.0679,1.102,1.0337,1.0821,1.2332,1.284,1.3423,0.4692,0.5181,0.5847,0.5839,0.6445,0.7131,0.7677,0.7452,0.6892,0.6135,0.4992,0.3809,0.2828,0.2745,0.2809,0.2786,0.2834,0.292,0.0,0.0,0.0,0.0,0.0,0.0,0.0,0.0,0.0,0.0,0.0,0.0,0.0,0.0,0.0,0.0,0.1391,0.1391,0.1391,0.1391,0.157,0.193,0.2109,0.2289,0.2513,0.2784,0.292,0.292,0.292,0.292,0.292,0.292,0.292,0.292,0.292,0.292,0.292,0.292,0.3097,0.3542,0.4832,0.563,0.6343,0.7676,0.8344,0.8612,0.8612,0.8612,0.8571,0.8345,0.8247,0.8162,0.7979,0.7886,0.7751,0.7567,0.7484,0.7484,0.7484,0.7484,0.7484,0.7484,0.7624,0.7747,0.7861,0.804,0.8324,0.8653,0.9044,0.9388,0.9559,0.9415,0.9235,0.9143,0.8869,0.8703,0.8703,0.8703,0.9053,0.9894,1.01,1.0651,1.1834,1.1494,1.1086,1.0554,1.0181,1.0125,1.0424,1.0125,1.1004,1.2856,1.3435,1.4224,0.5791,0.5752,0.5973,0.6327,0.6692,0.7143,0.7682,0.7661,0.7415,0.7147,0.5529,0.3848,0.2987,0.2777,0.2713,0.2774,0.2834,0.0,0.0,0.0,0.0,0.0,0.0,0.0,0.0,0.0,0.0,0.0,0.0,0.0,0.0,0.0,0.0,0.0,0.1391,0.1391,0.1391,0.1391,0.166,0.2199,0.2199,0.2289,0.2513,0.2784,0.292,0.292,0.292,0.292,0.292,0.292,0.292,0.292,0.292,0.292,0.292,0.292,0.3499,0.43,0.43,0.5542,0.7095,0.7095,0.7808,0.8612,0.8608,0.8608,0.8567,0.8337,0.815,0.7971,0.7841,0.7796,0.7751,0.7567,0.7484,0.7484,0.7484,0.7484,0.7484,0.7484,0.7484,0.7598,0.7951,0.8016,0.8225,0.8813,0.913,0.9384,0.955,0.941,0.9162,0.8746,0.8703,0.8703,0.8703,0.8703,0.8793,0.8966,0.8985,0.9508,1.0646,1.1069,1.0744,0.9606,0.9847,1.0424,1.1278,1.0424,1.1527,1.4452,1.3938,1.4851,0.4836,0.528,0.5912,0.6018,0.6976,0.7935,0.8097,0.8089,0.7895,0.7213,0.6101,0.4944,0.3954,0.3803,0.0,0.2917,0.0,0.0,0.0,0.0,0.0,0.0,0.0,0.0,0.0,0.0,0.0,0.0,0.0,0.0,0.0,0.0,0.0,0.0,0.1391,0.1391,0.1391,0.157,0.1839,0.2199,0.2334,0.2558,0.2784,0.2873,0.292,0.292,0.292,0.292,0.292,0.292,0.292,0.292,0.292,0.292,0.292,0.292,0.3097,0.3497,0.4832,0.563,0.634,0.772,0.8344,0.8588,0.841,0.8373,0.8308,0.8045,0.7918,0.7833,0.7653,0.7604,0.7592,0.7496,0.7484,0.7484,0.7484,0.7484,0.7484,0.7484,0.7683,0.789,0.7996,0.8231,0.8611,0.9113,0.9095,0.9077,0.9173,0.911,0.9006,0.8732,0.8703,0.8703,0.8703,0.8703,0.8727,0.8793,0.894,0.9234,0.9679,0.9964,0.996,0.9606,0.9847,1.0125,1.0381,1.0125,1.096,1.2817,1.3435,1.4591,0.5522,0.6026,0.6718,0.6935,0.7559,0.8175,0.8353,0.8402,0.8166,0.7298,0.6609,0.5815,0.448,0.4537,0.0,0.0,0.0,0.0,0.0,0.0,0.0,0.0,0.0,0.0,0.0,0.0,0.0,0.0,0.0,0.0,0.0,0.0,0.0,0.0,0.1391,0.1436,0.157,0.1705,0.1974,0.2334,0.2424,0.2649,0.292,0.292,0.292,0.292,0.292,0.292,0.292,0.292,0.292,0.292,0.292,0.292,0.292,0.292,0.3365,0.4166,0.5322,0.6207,0.7051,0.8208,0.8563,0.8438,0.8325,0.8239,0.8122,0.7877,0.78,0.7755,0.7571,0.7484,0.7484,0.7484,0.7484,0.7484,0.7484,0.7484,0.7484,0.7484,0.7715,0.7935,0.8,0.8344,0.874,0.9074,0.909,0.9031,0.8997,0.8985,0.8944,0.8722,0.8703,0.8703,0.8703,0.8703,0.8703,0.8703,0.8822,0.9025,0.9272,0.9489,0.9564,0.9479,0.9804,1.0168,1.0511,1.0511,1.1476,1.3251,1.4013,1.5139,0.6907,0.7338,0.7869,0.8367,0.818,0.8004,0.8498,0.8612,0.8344,0.7408,0.7205,0.6631,0.4858,0.5192,0.0,0.0,0.0,0.0,0.0,0.0,0.0,0.0,0.0,0.0,0.0,0.0,0.0,0.0,0.0,0.0,0.0,0.0,0.0,0.0,0.1391,0.1525,0.1794,0.1839,0.2064,0.0,0.2513,0.2649,0.292,0.292,0.292,0.292,0.292,0.292,0.292,0.292,0.292,0.292,0.292,0.292,0.292,0.3008,0.4121,0.5586,0.5764,0.6962,0.848,0.8564,0.8486,0.8288,0.8272,0.8138,0.7955,0.7824,0.7775,0.7735,0.7567,0.7484,0.7484,0.7484,0.7484,0.7484,0.7484,0.7484,0.7484,0.7484,0.7686,0.7873,0.8029,0.8346,0.8704,0.8908,0.9154,0.9229,0.9037,0.8966,0.8921,0.8722,0.8703,0.8703,0.8703,0.8703,0.8703,0.8703,0.8703,0.8869,0.9211,0.9451,0.9498,0.9384,0.98,1.0424,1.1284,1.1284,1.2572,1.5019,1.528,1.6245,0.5228,0.6177,0.737,0.7484,0.7959,0.8469,0.8588,0.8612,0.8524,0.8344,0.8269,0.7899,0.6735,0.0,0.0,0.0,0.0,0.0,0.0,0.0,0.0,0.0,0.0,0.0,0.0,0.0,0.0,0.0,0.0,0.0,0.0,0.0,0.0,0.1391,0.1391,0.1525,0.1794,0.2019,0.2243,0.0,0.2694,0.2829,0.292,0.292,0.292,0.292,0.292,0.292,0.292,0.292,0.292,0.292,0.292,0.292,0.3008,0.3721,0.4255,0.4832,0.6299,0.7051,0.754,0.8344,0.8486,0.8264,0.8117,0.7951,0.7816,0.7633,0.758,0.7571,0.7492,0.7484,0.7484,0.7484,0.7484,0.7484,0.7484,0.7484,0.7484,0.7484,0.774,0.8016,0.8267,0.8586,0.8944,0.9179,0.928,0.9222,0.9018,0.8874,0.8755,0.8708,0.8703,0.8703,0.8703,0.8703,0.8703,0.8703,0.8703,0.8741,0.8831,0.9195,0.9526,0.9852,0.9947,1.0424,1.1284,1.1284,1.2691,1.5318,1.5363,1.6335,0.5876,0.6733,0.7594,0.7691,0.8089,0.8502,0.8592,0.8612,0.8612,0.8612,0.8612,0.83,0.0,0.0,0.0,0.0,0.0,0.0,0.0,0.0,0.0,0.0,0.0,0.0,0.0,0.0,0.0,0.0,0.0,0.0,0.0,0.1391,0.1391,0.0,0.1391,0.157,0.1974,0.2109,0.2379,0.2694,0.2829,0.292,0.292,0.292,0.292,0.292,0.292,0.292,0.292,0.292,0.292,0.292,0.292,0.292,0.3008,0.3942,0.4565,0.5188,0.6609,0.7408,0.7885,0.8332,0.8308,0.8126,0.7947,0.7808,0.7645,0.7551,0.7484,0.7484,0.7484,0.7484,0.7484,0.7484,0.7484,0.7484,0.7484,0.7484,0.7547,0.7749,0.7994,0.8296,0.8638,0.8978,0.9278,0.9427,0.9381,0.9211,0.9009,0.8836,0.8703,0.8703,0.8703,0.8703,0.8703,0.8703,0.8703,0.8703,0.8703,0.8751,0.8855,0.9157,0.9426,0.9649,0.989,1.0722,1.2126,1.2126,1.3516,1.6213,1.6352,1.7071,0.6798,0.7371,0.7872,0.8171,0.8243,0.8292,0.8522,0.8563,0.8571,0.8604,0.8612,0.0,0.0,0.0,0.0,0.0,0.0,0.0,0.0,0.0,0.0,0.0,0.0,0.0,0.0,0.0,0.0,0.0,0.0,0.0,0.1436,0.0,0.1436,0.1391,0.148,0.1749,0.2199,0.2243,0.2469,0.292,0.292,0.292,0.292,0.292,0.292,0.292,0.292,0.292,0.292,0.292,0.292,0.292,0.292,0.3008,0.3275,0.421,0.5142,0.6074,0.7007,0.7896,0.858,0.8349,0.8166,0.7979,0.7849,0.7669,0.7484,0.7484,0.7484,0.7484,0.7484,0.7484,0.7484,0.7484,0.7484,0.7484,0.7484,0.7547,0.769,0.804,0.8333,0.8671,0.9023,0.9407,0.9678,0.9682,0.9442,0.9225,0.9056,0.8859,0.8718,0.8755,0.8722,0.8718,0.8755,0.8722,0.8703,0.8703,0.8737,0.8836,0.8976,0.9211,0.9338,0.9338,0.98,1.0977,1.3014,1.3064,1.4468,1.7159,1.7456,1.7918,0.5275,0.6079,0.7129,0.7845,0.8048,0.8097,0.8284,0.8325,0.8373,0.0,0.0,0.0,0.0,0.0,0.0,0.0,0.0,0.0,0.0,0.0,0.0,0.0,0.0,0.0,0.0,0.0,0.0,0.0,0.0,0.0,0.0,0.1615,0.166,0.1391,0.1839,0.2109,0.2199,0.2379,0.2604,0.292,0.292,0.292,0.292,0.292,0.292,0.292,0.292,0.292,0.292,0.292,0.292,0.292,0.292,0.3409,0.421,0.5188,0.6118,0.7051,0.8076,0.8476,0.858,0.8349,0.8166,0.7979,0.7849,0.7669,0.7484,0.7484,0.7484,0.7484,0.7484,0.7484,0.7484,0.7484,0.7484,0.7484,0.7484,0.7762,0.804,0.8105,0.8686,0.9253,0.9486,0.9758,0.9941,0.9956,0.9573,0.9272,0.9244,0.8944,0.8774,0.8924,0.8812,0.8779,0.8924,0.8807,0.8703,0.8703,0.8878,0.8957,0.8985,0.9357,0.9564,0.9564,0.9833,1.0977,1.3014,1.3299,1.4808,1.7453,1.7801,1.8236,0.5698,0.6375,0.7109,0.7739,0.787,0.7918,0.8093,0.8134,0.8187,0.8373,0.0,0.0,0.0,0.0,0.0,0.0,0.0,0.0,0.0,0.0,0.0,0.0,0.0,0.0,0.0,0.0,0.0,0.0,0.0,0.0,0.1436,0.166,0.1749,0.1615,0.2019,0.2243,0.2379,0.2469,0.2649,0.292,0.292,0.292,0.292,0.292,0.292,0.292,0.292,0.292,0.292,0.292,0.292,0.292,0.292,0.3454,0.4431,0.5364,0.6299,0.7231,0.8256,0.8612,0.8563,0.8227,0.8081,0.7963,0.7726,0.7584,0.7484,0.7484,0.7484,0.7484,0.7484,0.7484,0.7484,0.7484,0.7484,0.7551,0.7653,0.7897,0.8213,0.8673,0.9279,0.9718,0.9806,0.9907,0.9994,0.9994,0.9592,0.9282,0.9282,0.8959,0.8784,0.8962,0.8831,0.8789,0.8966,0.8826,0.8703,0.8703,0.8789,0.8897,0.8981,0.9268,0.9479,0.9602,0.9847,1.0852,1.2601,1.3374,1.4885,1.7131,1.7833,1.8403,0.5936,0.6412,0.6785,0.7418,0.7598,0.7704,0.789,0.7951,0.8,0.0,0.0,0.0,0.0,0.0,0.0,0.0,0.0,0.0,0.0,0.0,0.0,0.0,0.0,0.0,0.0,0.0,0.0,0.0,0.0,0.0,0.2016,0.1929,0.1885,0.1885,0.2199,0.2379,0.2424,0.2469,0.2604,0.2784,0.2873,0.292,0.292,0.292,0.292,0.292,0.292,0.292,0.292,0.292,0.292,0.292,0.3142,0.381,0.4788,0.5719,0.665,0.7584,0.8344,0.8612,0.8551,0.8134,0.8012,0.7947,0.759,0.7484,0.7484,0.7484,0.7484,0.7492,0.758,0.7592,0.7604,0.761,0.7655,0.7751,0.7929,0.814,0.8556,0.9235,0.9722,0.9994,0.9994,0.9994,0.9994,0.9994,0.9639,0.9343,0.9291,0.9006,0.8845,0.8966,0.8831,0.8789,0.8966,0.8826,0.8703,0.8703,0.8755,0.8878,0.9051,0.9253,0.9465,0.9677,1.0,1.0939,1.2565,1.3573,1.5078,1.7072,1.8,1.8573,0.5127,0.5374,0.5637,0.67,0.7086,0.7322,0.7733,0.7812,0.7861,0.0,0.0,0.0,0.0,0.0,0.0,0.0,0.0,0.0,0.0,0.0,0.0,0.0,0.0,0.0,0.0,0.0,0.0,0.0,0.0,0.0,0.3489,0.2644,0.2199,0.2199,0.2604,0.2649,0.2199,0.2424,0.2513,0.2513,0.2784,0.292,0.292,0.292,0.292,0.292,0.292,0.292,0.292,0.292,0.292,0.3008,0.39,0.4788,0.5719,0.6697,0.7676,0.8524,0.8568,0.8612,0.8551,0.8134,0.8012,0.7947,0.759,0.7484,0.7484,0.7484,0.7484,0.7563,0.7739,0.7784,0.7824,0.7947,0.8122,0.8291,0.8342,0.8684,0.9079,0.9504,0.9816,0.9994,0.9994,0.9994,0.9994,0.9994,0.9767,0.9512,0.931,0.9098,0.8971,0.8985,0.8831,0.8789,0.8966,0.8826,0.8703,0.8703,0.8897,0.9056,0.9258,0.9475,0.9724,0.9975,1.0371,1.1445,1.3269,1.4026,1.555,1.7743,1.8433,1.8765,0.4592,0.5108,0.565,0.6275,0.6747,0.7078,0.7364,0.7495,0.7673,0.0,0.0,0.0,0.0,0.0,0.0,0.0,0.0,0.0,0.0,0.0,0.0,0.0,0.0,0.0,0.0,0.0,0.0,0.0,0.0,0.0,0.3623,0.2825,0.2379,0.2379,0.2558,0.2513,0.2199,0.2379,0.2513,0.2513,0.2784,0.292,0.292,0.292,0.292,0.292,0.292,0.292,0.292,0.292,0.292,0.3008,0.3942,0.4877,0.5808,0.6741,0.772,0.8612,0.8612,0.8531,0.8349,0.8093,0.7939,0.7845,0.7557,0.7484,0.7484,0.7484,0.7608,0.7714,0.7784,0.7882,0.7967,0.8146,0.8543,0.8874,0.8899,0.9156,0.9566,1.0129,1.0307,1.0393,1.0393,1.0393,1.035,1.0222,1.0023,0.9767,0.9517,0.9192,0.9032,0.9164,0.8907,0.8789,0.8966,0.8826,0.876,0.8902,0.8943,0.9136,0.9475,0.9564,0.9743,0.999,1.0381,1.1392,1.3064,1.4268,1.5772,1.7489,1.8369,1.8781,0.4057,0.4628,0.5314,0.603,0.6306,0.6578,0.7239,0.7327,0.7335,0.0,0.0,0.0,0.0,0.0,0.0,0.0,0.0,0.0,0.0,0.0,0.0,0.0,0.0,0.0,0.0,0.0,0.0,0.0,0.0,0.0,0.4336,0.3092,0.2379,0.2379,0.2379,0.2334,0.2199,0.2379,0.2513,0.2513,0.2784,0.292,0.292,0.292,0.292,0.292,0.292,0.292,0.292,0.292,0.292,0.3008,0.43,0.5144,0.5852,0.7143,0.8032,0.8604,0.8539,0.8394,0.8251,0.8008,0.789,0.7849,0.7669,0.7614,0.7663,0.7663,0.7752,0.7898,0.7963,0.8109,0.8345,0.8589,0.9054,0.9431,0.9587,0.9732,0.9949,1.0362,1.0528,1.0621,1.0621,1.0621,1.055,1.035,1.0198,0.996,0.9639,0.9301,0.9108,0.9173,0.8911,0.876,0.8902,0.885,0.8869,0.8976,0.9046,0.9239,0.9587,0.9602,0.9743,0.999,1.0881,1.203,1.3427,1.4543,1.597,1.7666,1.8432,1.8781,0.0,0.0,0.0,0.5815,0.577,0.5783,0.7347,0.0,0.6829,0.0,0.0,0.0,0.0,0.0,0.0,0.0,0.0,0.0,0.0,0.0,0.0,0.0,0.0,0.0,0.0,0.0,0.0,0.0,0.0,0.5539,0.5675,0.3492,0.2199,0.2199,0.2199,0.2199,0.2199,0.2379,0.2513,0.2513,0.2784,0.292,0.292,0.292,0.292,0.292,0.292,0.292,0.292,0.292,0.292,0.3142,0.4961,0.5716,0.5985,0.7893,0.8604,0.8575,0.8353,0.8284,0.8223,0.7918,0.7878,0.7979,0.7857,0.7882,0.8012,0.8012,0.8016,0.8065,0.8256,0.8568,0.8922,0.9318,0.96,0.9939,1.032,1.0305,1.0222,1.0222,1.0454,1.0635,1.0635,1.063,1.0559,1.036,1.0277,1.0121,0.9667,0.9418,0.9206,0.9014,0.8831,0.8703,0.8713,0.8902,0.899,0.9004,0.9188,0.939,0.9606,0.9616,0.9752,1.0043,1.1942,1.3427,1.4462,1.4917,1.6253,1.8319,1.8669,1.8781,0.3333,0.0,0.0,0.0,0.0,0.0,0.0,0.0,0.0,0.0,0.0,0.0,0.0,0.0,0.0,0.0,0.0,0.0,0.0,0.0,0.0,0.0,0.0,0.0,0.0,0.0,0.0,0.0,0.7363,0.634,0.5719,0.3628,0.2244,0.193,0.2109,0.2109,0.193,0.2289,0.2513,0.2513,0.2784,0.292,0.292,0.292,0.292,0.292,0.292,0.292,0.292,0.292,0.332,0.4026,0.5054,0.599,0.6861,0.7978,0.8365,0.8361,0.8308,0.8203,0.8073,0.7975,0.7975,0.8004,0.7959,0.7975,0.8012,0.8012,0.8109,0.8284,0.8593,0.8938,0.9325,0.9615,0.9986,1.0298,1.0645,1.0812,1.0927,1.0927,1.0975,1.1023,1.1023,1.0905,1.0735,1.0569,1.0412,1.0217,0.9947,0.9549,0.9258,0.9206,0.8916,0.8765,0.8921,0.8952,0.9112,0.9413,0.9484,0.9606,0.99,0.9909,1.0434,1.1564,1.2466,1.392,1.599,1.6463,1.7372,1.8684,1.8742,1.8781,0.3298,0.3617,0.4082,0.4297,0.0,0.0,0.5558,0.5662,0.0,0.0,0.0,0.0,0.0,0.0,0.0,0.0,0.0,0.0,0.0,0.0,0.0,0.0,0.0,0.0,0.0,0.0,0.0,0.0,0.7584,0.6428,0.4914,0.3179,0.2019,0.166,0.2019,0.2109,0.1974,0.2424,0.2649,0.2649,0.2829,0.292,0.292,0.292,0.292,0.292,0.292,0.3081,0.3362,0.3362,0.3671,0.4274,0.5464,0.6315,0.6982,0.787,0.8223,0.828,0.8199,0.8154,0.8113,0.804,0.8065,0.813,0.813,0.8182,0.8243,0.8243,0.8373,0.8593,0.895,0.9292,0.9613,0.9837,1.0232,1.0609,1.0757,1.0998,1.1194,1.1194,1.1194,1.1165,1.1085,1.0972,1.0792,1.054,1.0393,1.0208,0.9861,0.953,0.9249,0.9169,0.8902,0.8755,0.8878,0.9009,0.9211,0.9456,0.9677,0.9828,0.999,0.9994,1.0523,1.1671,1.2916,1.4847,1.7537,1.7356,1.7842,1.8781,1.8781,1.8781,0.3453,0.3658,0.4087,0.4701,0.4388,0.0,0.5948,0.5864,0.5783,0.0,0.0,0.0,0.0,0.0,0.0,0.0,0.0,0.0,0.0,0.0,0.0,0.0,0.0,0.0,0.0,0.0,0.852,0.8245,0.7448,0.6027,0.3935,0.2598,0.1749,0.148,0.1974,0.2243,0.2243,0.2694,0.292,0.292,0.292,0.292,0.292,0.292,0.292,0.292,0.292,0.3328,0.4045,0.412,0.4196,0.4434,0.5981,0.6692,0.6874,0.771,0.8146,0.8268,0.8101,0.815,0.8264,0.8097,0.817,0.8321,0.8321,0.8438,0.8616,0.8637,0.8731,0.8954,0.9366,0.9608,0.986,1.003,1.0462,1.0806,1.085,1.1047,1.1194,1.1194,1.1194,1.1132,1.0929,1.0877,1.0726,1.0379,1.0298,1.0097,0.9653,0.9418,0.9206,0.9009,0.8831,0.8722,0.8765,0.911,0.9301,0.9393,0.9786,0.9994,0.9994,1.0018,1.0392,1.1149,1.3495,1.6039,1.8781,1.7911,1.7918,1.8781,1.8781,1.8781,0.416,0.4131,0.4156,0.3938,0.4092,0.0,0.401,0.4102,0.4401,0.0,0.0,0.0,0.0,0.0,0.0,0.0,0.0,0.0,0.0,0.0,0.0,0.0,0.0,0.0,0.0,0.0,0.8568,0.852,0.6918,0.5716,0.5092,0.336,0.2244,0.2064,0.2289,0.2424,0.2424,0.2739,0.292,0.292,0.292,0.292,0.292,0.292,0.292,0.292,0.292,0.3401,0.4265,0.4884,0.552,0.6136,0.6484,0.7177,0.7978,0.8193,0.826,0.8284,0.8251,0.826,0.8284,0.8247,0.8361,0.8559,0.8559,0.8584,0.8641,0.8731,0.9003,0.9362,0.9623,0.985,1.007,1.0547,1.0703,1.0855,1.1096,1.1145,1.1194,1.1194,1.1194,1.1132,1.0929,1.0754,1.0597,1.0355,1.017,0.9966,0.9635,0.9418,0.9206,0.9009,0.8831,0.8841,0.9176,0.9235,0.9469,0.9852,0.9947,0.9994,0.9994,1.0161,1.084,1.2184,1.4976,1.7179,1.8781,1.8618,1.8618,1.8781,1.8781,1.8781,0.4497,0.4315,0.4253,0.4094,0.4119,0.0,0.0,0.407,0.4305,0.5048,0.0,0.0,0.0,0.0,0.0,0.0,0.0,0.0,0.0,0.0,0.0,0.0,0.0,0.0,0.0,0.0,0.8388,0.7896,0.6293,0.5137,0.4694,0.3181,0.2289,0.2199,0.2379,0.25,0.243,0.2696,0.2828,0.2828,0.2828,0.2889,0.292,0.292,0.292,0.292,0.3409,0.4096,0.4925,0.5777,0.6609,0.7304,0.7304,0.765,0.815,0.815,0.8211,0.8292,0.8292,0.8349,0.843,0.843,0.8535,0.8612,0.8612,0.8625,0.8751,0.9015,0.9356,0.9661,0.9854,1.0143,1.0462,1.0757,1.09,1.1047,1.1145,1.1194,1.1194,1.1194,1.1194,1.1099,1.0787,1.0692,1.0516,1.0203,1.0066,0.9881,0.9484,0.9348,0.9164,0.8897,0.8765,0.8784,0.8996,0.911,0.9308,0.9615,0.9738,0.9842,0.999,1.0203,1.1358,1.3573,1.5897,1.7652,1.8781,1.8781,1.8781,1.8781,1.8781,1.8686,0.4926,0.4701,0.4623,0.4529,0.4363,0.4268,0.0,0.0,0.0,0.0,0.0,0.0,0.0,0.0,0.0,0.0,0.0,0.0,0.0,0.0,0.0,0.0,0.0,0.0,0.0,0.0,0.8002,0.7438,0.578,0.4638,0.4243,0.3047,0.233,0.232,0.2453,0.2517,0.2462,0.2679,0.2766,0.2766,0.2766,0.2798,0.2902,0.2902,0.2996,0.3232,0.3987,0.4828,0.5786,0.6608,0.7395,0.8113,0.8081,0.8065,0.8069,0.8105,0.8215,0.8345,0.8345,0.8486,0.8612,0.8612,0.8633,0.8661,0.8661,0.8759,0.8982,0.9366,0.9665,0.9873,1.0079,1.0462,1.0806,1.085,1.1047,1.1194,1.1194,1.1194,1.1194,1.1194,1.1194,1.1061,1.0692,1.0621,1.0478,1.0056,0.9994,0.9843,0.9379,0.9282,0.9162,0.8746,0.8703,0.8718,0.876,0.8959,0.9126,0.9333,0.9545,0.9881,1.0348,1.0791,1.229,1.5007,1.6434,1.7699,1.8781,1.8781,1.8781,1.8781,1.871,1.8573,0.5952,0.578,0.568,0.4739,0.4731,0.4686,0.363,0.0,0.3729,0.3535,0.0,0.0,0.0,0.0,0.0,0.0,0.0,0.0,0.0,0.0,0.0,0.0,0.0,0.0,0.0,0.0,0.0,0.8348,0.5655,0.4399,0.5458,0.3808,0.2804,0.2751,0.2749,0.2721,0.2661,0.2703,0.2703,0.2703,0.2703,0.2734,0.2793,0.2793,0.3304,0.4166,0.4255,0.5312,0.6936,0.7027,0.7636,0.8531,0.8321,0.826,0.828,0.8486,0.8563,0.858,0.858,0.8596,0.8612,0.8612,0.867,0.8792,0.8792,0.9027,0.9399,0.9675,0.9858,1.0092,1.06,1.0752,1.0855,1.11,1.1198,1.1194,1.1194,1.1194,1.1194,1.1194,1.1194,1.1061,1.0692,1.0621,1.0478,1.0056,0.9994,0.9843,0.9379,0.9282,0.9162,0.8746,0.8703,0.8779,0.8934,0.9136,0.9338,0.9555,0.98,1.0445,1.1545,1.2894,1.4437,1.635,1.6579,1.7358,1.8781,1.8781,1.8781,1.8773,1.851,1.8343,0.5839,0.5885,0.5909,0.4918,0.4945,0.4913,0.3761,0.3454,0.3402,0.0,0.0,0.0,0.0,0.0,0.0,0.0,0.0,0.0,0.0,0.0,0.0,0.0,0.0,0.0,0.0,0.0,0.0,0.0,0.0,0.4258,0.484,0.3631,0.2907,0.2837,0.2801,0.2753,0.2694,0.2657,0.264,0.264,0.264,0.2672,0.2774,0.3325,0.3838,0.431,0.5424,0.6384,0.7139,0.772,0.8208,0.8604,0.8526,0.8494,0.8506,0.8584,0.8612,0.8612,0.8612,0.8612,0.8629,0.8682,0.8763,0.8861,0.9068,0.9376,0.9665,0.9871,1.02,1.0511,1.0752,1.09,1.1047,1.1145,1.1194,1.1194,1.1194,1.1194,1.1194,1.1194,1.1099,1.0924,1.0673,1.0621,1.0478,1.0056,0.9994,0.989,0.9507,0.9357,0.9169,0.8921,0.8774,0.8737,0.8826,0.8916,0.9105,0.9395,1.0436,1.1392,1.2121,1.3905,1.5318,1.6365,1.7084,1.7846,1.8612,1.8537,1.8518,1.8518,1.8367,1.8089,0.6132,0.609,0.6111,0.4873,0.4799,0.0,0.0,0.0,0.0,0.0,0.0,0.0,0.0,0.0,0.0,0.0,0.0,0.0,0.0,0.0,0.0,0.0,0.0,0.0,0.0,0.0,0.0,0.0,0.0,0.0,0.4656,0.381,0.3178,0.2895,0.2807,0.2747,0.2668,0.2624,0.2593,0.2576,0.2576,0.274,0.3112,0.384,0.4452,0.5073,0.6474,0.7275,0.7584,0.83,0.8612,0.8612,0.8612,0.8612,0.8612,0.8612,0.8612,0.8612,0.8612,0.8641,0.8658,0.8779,0.8885,0.9015,0.9322,0.9614,0.9856,1.0043,1.0452,1.0775,1.0864,1.1047,1.1194,1.1194,1.1194,1.1194,1.1194,1.1194,1.1194,1.1194,1.1075,1.091,1.0697,1.057,1.0412,1.0051,0.9994,0.9919,0.963,0.9418,0.9206,0.9009,0.8831,0.8727,0.8784,0.8841,0.9077,0.9554,1.132,1.2502,1.2836,1.4888,1.6204,1.6709,1.7613,1.828,1.8566,1.8387,1.8247,1.8152,1.8057,1.7755,0.0,0.0,0.0,0.4506,0.0,0.0,0.0,0.0,0.3826,0.0,0.0,0.0,0.0,0.0,0.0,0.0,0.0,0.0,0.0,0.0,0.0,0.0,0.0,0.0,0.0,0.0,0.0,0.0,0.0,0.0,0.5594,0.4788,0.3818,0.2831,0.2783,0.2726,0.2605,0.2602,0.2572,0.2514,0.2514,0.3055,0.4068,0.4072,0.515,0.7,0.7092,0.7632,0.8568,0.8568,0.8612,0.8612,0.8612,0.8612,0.8612,0.8612,0.8612,0.8612,0.8612,0.8674,0.8812,0.882,0.9056,0.9388,0.94,0.9645,0.9982,1.0313,1.0553,1.0755,1.1103,1.1194,1.1194,1.1194,1.1194,1.1194,1.1194,1.1194,1.1194,1.1194,1.1189,1.1123,1.092,1.0551,1.0251,1.0028,0.9994,0.9919,0.963,0.9418,0.9206,0.9009,0.8831,0.8784,0.8957,0.915,0.9573,1.0251,1.2372,1.3729,1.3922,1.6066,1.7505,1.804,1.8087,1.8319,1.8781,1.847,1.812,1.7822,1.7461,1.7302,0.0,0.0,0.7649,0.5579,0.0,0.0,0.0,0.0,0.0,0.0,0.0,0.0,0.0,0.0,0.0,0.0,0.0,0.0,0.0,0.0,0.0,0.0,0.0,0.0,0.0,0.0,0.0,0.0,0.0,0.0,0.0,0.4749,0.3842,0.2889,0.2804,0.2744,0.2662,0.2621,0.285,0.3365,0.3459,0.3998,0.4915,0.5655,0.6379,0.7083,0.7804,0.83,0.8612,0.8612,0.8612,0.8612,0.8612,0.8612,0.8612,0.8612,0.8612,0.8629,0.8694,0.8852,0.9043,0.9279,0.9356,0.9469,0.9828,1.0044,1.0213,1.0472,1.0755,1.0997,1.1075,1.1154,1.1194,1.1194,1.1194,1.1194,1.1194,1.1194,1.1194,1.1194,1.109,1.0976,1.091,1.066,1.0445,1.0241,1.0089,0.9919,0.963,0.9418,0.9206,0.9009,0.8831,0.9053,0.9849,1.0357,1.089,1.1469,1.3003,1.4282,1.5168,1.6558,1.7473,1.7815,1.7994,1.8111,1.8214,1.8032,1.7822,1.748,1.708,1.6921,0.8433,0.8284,0.0,0.6355,0.6209,0.0,0.4268,0.0,0.4564,0.0,0.0,0.0,0.0,0.0,0.0,0.0,0.0,0.0,0.0,0.2351,0.0,0.0,0.0,0.0,0.0,0.0,0.0,0.0,0.0,0.0,0.0,0.0,0.4309,0.3408,0.3012,0.2948,0.311,0.3063,0.3489,0.4353,0.4421,0.4978,0.5926,0.6655,0.7204,0.7613,0.8293,0.8612,0.8612,0.8612,0.8612,0.8612,0.8612,0.8649,0.8649,0.8637,0.8694,0.8792,0.9023,0.9226,0.9413,0.9644,0.9685,0.9755,1.0106,1.0283,1.0346,1.0484,1.075,1.1032,1.0993,1.11,1.1194,1.1194,1.1194,1.1194,1.1194,1.1194,1.1194,1.1194,1.109,1.1005,1.1005,1.0825,1.0594,1.036,1.0198,1.0032,0.9781,0.9502,0.9235,0.9103,0.9208,0.9842,1.1198,1.1804,1.2315,1.2768,1.3878,1.4939,1.5886,1.6904,1.7673,1.8168,1.8079,1.8087,1.8222,1.7802,1.7528,1.727,1.6905,1.6689]}]]